[[{"header":{"parameterUnit":"m.s-1","parameterCategory":1,"la1":31.0,"la2":29.5877,"lo1":-88.7671,"lo2":-86.6584,"dy":0.0162,"dx":0.0185,"nx":115,"ny":88,"refTime":"2024-10-07T18:00:00:Z","depth":0,"parameterNumber":2,"parameterNumberName":"U-component_of_WINDS"},"data":[0.0,0.0,0.0,0.0,0.0,0.0,0.0,0.0,0.0,0.0,0.0,0.0,0.0,0.0,0.0,0.0,0.0,0.0,0.0,0.0,0.0,0.0,0.0,0.0,0.0,0.0,0.0,0.0,0.0,0.0,0.0,0.0,0.0,0.0,0.0,0.0,0.0,0.0,0.0,0.0,0.0,0.0,0.0,0.0,0.0,0.0,0.0,0.0,0.0,0.0,0.0,0.0,0.0,0.0,0.0,0.0,0.0,0.0,0.0,0.0,0.0,0.0,0.0,0.0,0.0,0.0,0.0,0.0,0.0,0.0,0.0,0.0,0.0,0.0,0.0,0.0,0.0,0.0,0.0,0.0,0.0,0.0,0.0,0.0,0.0,0.0,0.0,0.0,0.0,0.0,0.0,0.0,0.0,0.0,0.0,0.0,0.0,0.0,0.0,0.0,0.0,0.0,0.0,0.0,0.0,0.0,0.0,0.0,0.0,0.0,0.0,0.0,0.0,0.0,0.0,0.0,0.0,0.0,0.0,0.0,0.0,0.0,0.0,0.0,0.0,0.0,0.0,0.0,0.0,0.0,0.0,0.0,0.0,0.0,0.0,0.0,0.0,0.0,0.0,0.0,0.0,0.0,0.0,0.0,0.0,0.0,0.0,0.0,0.0,0.0,0.0,0.0,0.0,0.0,0.0,0.0,0.0,0.0,0.0,0.0,0.0,0.0,0.0,0.0,0.0,0.0,0.0,0.0,0.0,0.0,0.0,0.0,0.0,0.0,0.0,0.0,0.0,0.0,0.0,0.0,0.0,0.0,0.0,0.0,0.0,0.0,0.0,0.0,0.0,0.0,0.0,0.0,0.0,0.0,0.0,0.0,0.0,0.0,0.0,0.0,0.0,0.0,0.0,0.0,0.0,0.0,0.0,0.0,0.0,0.0,0.0,0.0,0.0,0.0,0.0,0.0,0.0,0.0,0.0,0.0,0.0,0.0,0.0,0.0,0.0,0.0,0.0,0.0,0.0,0.0,0.0,0.0,0.0,0.0,0.0,0.0,0.0,0.0,0.0,0.0,0.0,0.0,0.0,0.0,0.0,0.0,0.0,0.0,0.0,0.0,0.0,0.0,0.0,0.0,0.0,0.0,0.0,0.0,0.0,0.0,0.0,0.0,0.0,0.0,0.0,0.0,0.0,0.0,0.0,0.0,0.0,0.0,0.0,0.0,0.0,0.0,0.0,0.0,0.0,0.0,0.0,0.0,0.0,0.0,0.0,0.0,0.0,0.0,0.0,0.0,0.0,0.0,0.0,0.0,0.0,0.0,0.0,0.0,0.0,0.0,0.0,0.0,0.0,0.0,0.0,0.0,0.0,0.0,0.0,0.0,0.0,0.0,0.0,0.0,0.0,0.0,0.0,0.0,0.0,0.0,0.0,0.0,0.0,0.0,0.0,0.0,0.0,0.0,0.0,0.0,0.0,0.0,0.0,0.0,0.0,0.0,0.0,0.0,0.0,0.0,0.0,0.0,0.0,0.0,0.0,0.0,0.0,0.0,0.0,0.0,0.0,0.0,0.0,0.0,0.0,0.0,0.0,0.0,0.0,0.0,0.0,0.0,0.0,0.0,0.0,0.0,0.0,0.0,0.0,0.0,0.0,0.0,0.0,0.0,0.0,0.0,0.0,0.0,0.0,0.0,0.0,0.0,0.0,0.0,0.0,0.0,0.0,0.0,0.0,0.0,0.0,0.0,0.0,0.0,0.0,0.0,0.0,0.0,0.0,0.0,0.0,0.0,0.0,0.0,0.0,0.0,0.0,0.0,0.0,0.0,0.0,0.0,0.0,0.0,0.0,0.0,0.0,0.0,0.0,0.0,0.0,0.0,0.0,0.0,0.0,0.0,0.0,0.0,0.0,0.0,0.0,0.0,0.0,0.0,0.0,0.0,0.0,0.0,0.0,0.0,0.0,0.0,0.0,0.0,0.0,0.0,0.0,0.0,0.0,0.0,0.0,0.0,0.0,0.0,0.0,0.0,0.0,0.0,0.0,0.0,0.0,0.0,0.0,0.0,0.0,0.0,0.0,0.0,0.0,0.0,0.0,0.0,0.0,0.0,0.0,0.0,0.0,0.0,0.0,0.0,0.0,0.0,0.0,0.0,0.0,0.0,0.0,0.0,0.0,0.0,0.0,0.0,0.0,0.0,0.0,0.0,0.0,0.0,0.0,0.0,0.0,0.0,0.0,0.0,0.0,0.0,0.0,0.0,0.0,0.0,0.0,0.0,0.0,0.0,0.0,0.0,0.0,0.0,0.0,0.0,0.0,0.0,0.0,0.0,0.0,0.0,0.0,0.0,0.0,0.0,0.0,0.0,0.0,0.0,0.0,0.0,0.0,0.0,0.0,0.0,0.0,0.0,0.0,0.0,0.0,0.0,0.0,0.0,0.0,0.0,0.0,0.0,0.0,0.0,0.0,0.0,0.0,0.0,0.0,0.0,0.0,0.0,0.0,0.0,0.0,0.0,0.0,0.0,0.0,0.0,0.0,0.0,0.0,0.0,0.0,0.0,0.0,0.0,0.0,0.0,0.0,0.0,0.0,0.0,0.0,0.0,0.0,0.0,0.0,0.0,0.0,0.0,0.0,0.0,0.0,0.0,0.0,0.0,0.0,0.0,0.0,0.0,0.0,0.0,0.0,0.0,0.0,0.0,0.0,0.0,0.0,0.0,0.0,0.0,0.0,0.0,0.0,0.0,0.0,0.0,0.0,0.0,0.0,0.0,0.0,0.0,0.0,0.0,0.0,0.0,0.0,0.0,0.0,0.0,0.0,0.0,0.0,0.0,0.0,0.0,0.0,0.0,0.0,0.0,0.0,0.0,0.0,0.0,0.0,0.0,0.0,0.0,0.0,0.0,0.0,0.0,0.0,0.0,0.0,0.0,0.0,0.0,0.0,0.0,0.0,0.0,0.0,0.0,0.0,0.0,0.0,0.0,0.0,0.0,0.0,0.0,0.0,0.0,0.0,0.0,0.0,0.0,0.0,0.0,0.0,0.0,0.0,0.0,0.0,0.0,0.0,0.0,0.0,0.0,0.0,0.0,0.0,0.0,0.0,0.0,0.0,0.0,0.0,0.0,0.0,0.0,0.0,0.0,0.0,0.0,0.0,0.0,0.0,0.0,0.0,0.0,0.0,0.0,0.0,0.0,0.0,0.0,0.0,0.0,0.0,0.0,0.0,0.0,0.0,0.0,0.0,0.0,0.0,0.0,0.0,0.0,0.0,0.0,0.0,0.0,0.0,0.0,0.0,0.0,0.0,0.0,0.0,0.0,0.0,0.0,0.0,0.0,0.0,0.0,0.0,0.0,0.0,0.0,0.0,0.0,0.0,0.0,0.0,0.0,0.0,0.0,0.0,0.0,0.0,0.0,0.0,0.0,0.0,0.0,0.0,0.0,0.0,0.0,0.0,0.0,0.0,0.0,0.0,0.0,0.0,0.0,0.0,0.0,0.0,0.0,0.0,0.0,0.0,0.0,0.0,0.0,0.0,0.0,0.0,0.0,0.0,0.0,0.0,0.0,0.0,0.0,0.0,0.0,0.0,0.0,0.0,0.0,0.0,0.0,0.0,0.0,0.0,0.0,0.0,0.0,0.0,0.0,0.0,0.0,0.0,0.0,0.0,0.0,0.0,0.0,0.0,0.0,0.0,0.0,0.0,0.0,0.0,0.0,0.0,0.0,0.0,0.0,0.0,0.0,0.0,0.0,0.0,0.0,0.0,0.0,0.0,0.0,0.0,0.0,0.0,0.0,0.0,0.0,0.0,0.0,0.0,0.0,0.0,0.0,0.0,0.0,0.0,0.0,0.0,0.0,0.0,0.0,0.0,0.0,0.0,0.0,0.0,0.0,0.0,0.0,0.0,0.0,0.0,0.0,0.0,0.0,0.0,0.0,0.0,0.0,0.0,0.0,0.0,0.0,0.0,0.0,0.0,0.0,0.0,0.0,0.0,0.0,0.0,0.0,0.0,0.0,0.0,0.0,0.0,0.0,0.0,0.0,0.0,0.0,0.0,0.0,0.0,0.0,0.0,0.0,0.0,0.0,0.0,0.0,0.0,0.0,0.0,0.0,0.0,0.0,0.0,0.0,0.0,0.0,0.0,0.0,0.0,0.0,0.0,0.0,0.0,0.0,0.0,0.0,0.0,0.0,0.0,0.0,0.0,0.0,0.0,0.0,0.0,0.0,0.0,0.0,0.0,0.0,0.0,0.0,0.0,0.0,0.0,0.0,0.0,0.0,4.3504,0.0,0.0,0.0,0.0,0.0,0.0,0.0,0.0,0.0,0.0,0.0,0.0,0.0,0.0,0.0,0.0,0.0,0.0,0.0,0.0,0.0,0.0,0.0,0.0,0.0,0.0,0.0,0.0,0.0,0.0,0.0,0.0,0.0,0.0,0.0,0.0,0.0,0.0,0.0,0.0,0.0,0.0,0.0,0.0,0.0,0.0,0.0,0.0,0.0,0.0,0.0,0.0,0.0,0.0,0.0,0.0,0.0,0.0,0.0,0.0,0.0,0.0,0.0,0.0,0.0,0.0,0.0,0.0,0.0,0.0,0.0,0.0,0.0,0.0,0.0,0.0,0.0,0.0,0.0,0.0,0.0,0.0,0.0,0.0,0.0,0.0,0.0,0.0,0.0,0.0,0.0,0.0,0.0,0.0,0.0,0.0,0.0,0.0,0.0,0.0,0.0,0.0,0.0,0.0,0.0,0.0,0.0,0.0,0.0,0.0,4.3504,4.3504,4.3504,4.3504,4.3504,0.0,0.0,0.0,0.0,0.0,0.0,0.0,0.0,0.0,0.0,0.0,0.0,0.0,0.0,0.0,0.0,0.0,0.0,0.0,0.0,0.0,0.0,0.0,0.0,0.0,0.0,0.0,0.0,0.0,0.0,0.0,0.0,0.0,0.0,0.0,0.0,0.0,0.0,0.0,0.0,0.0,0.0,0.0,0.0,0.0,0.0,0.0,0.0,0.0,0.0,0.0,0.0,0.0,0.0,0.0,0.0,0.0,0.0,0.0,0.0,0.0,0.0,0.0,0.0,0.0,0.0,0.0,0.0,0.0,0.0,0.0,0.0,0.0,0.0,0.0,0.0,0.0,0.0,0.0,0.0,0.0,0.0,0.0,0.0,0.0,0.0,0.0,0.0,0.0,0.0,0.0,0.0,0.0,0.0,0.0,0.0,0.0,0.0,0.0,0.0,0.0,0.0,0.0,0.0,0.0,0.0,0.0,0.0,0.0,0.0,0.0,0.0,4.3504,4.3504,4.3504,0.0,0.0,0.0,0.0,0.0,0.0,0.0,0.0,0.0,0.0,0.0,0.0,0.0,0.0,0.0,0.0,0.0,0.0,0.0,0.0,0.0,0.0,0.0,0.0,0.0,0.0,0.0,0.0,0.0,0.0,0.0,0.0,0.0,0.0,0.0,0.0,0.0,0.0,0.0,0.0,0.0,0.0,0.0,0.0,0.0,0.0,0.0,0.0,0.0,0.0,0.0,0.0,0.0,0.0,0.0,0.0,0.0,0.0,0.0,0.0,0.0,0.0,0.0,0.0,0.0,0.0,0.0,0.0,0.0,0.0,0.0,0.0,0.0,0.0,0.0,0.0,0.0,0.0,0.0,0.0,0.0,0.0,0.0,0.0,0.0,0.0,0.0,0.0,0.0,0.0,0.0,0.0,0.0,0.0,0.0,0.0,0.0,0.0,0.0,0.0,0.0,0.0,0.0,0.0,0.0,0.0,0.0,0.0,0.0,0.0,4.3504,4.3504,4.3504,0.0,4.3467,0.0,0.0,0.0,0.0,0.0,0.0,0.0,0.0,0.0,0.0,0.0,0.0,0.0,0.0,0.0,0.0,0.0,0.0,0.0,0.0,0.0,0.0,0.0,0.0,0.0,0.0,0.0,0.0,0.0,0.0,0.0,0.0,0.0,0.0,0.0,0.0,0.0,0.0,0.0,0.0,0.0,0.0,0.0,0.0,0.0,0.0,0.0,0.0,0.0,0.0,0.0,0.0,0.0,0.0,0.0,0.0,0.0,0.0,0.0,0.0,0.0,0.0,0.0,0.0,0.0,0.0,0.0,0.0,0.0,0.0,0.0,0.0,0.0,0.0,0.0,0.0,0.0,0.0,0.0,0.0,0.0,0.0,0.0,0.0,0.0,0.0,0.0,0.0,0.0,0.0,0.0,0.0,0.0,0.0,0.0,0.0,0.0,0.0,0.0,0.0,0.0,0.0,0.0,0.0,0.0,0.0,0.0,0.0,0.0,0.0,4.3979,4.3504,4.3504,4.3286,0.0,0.0,0.0,0.0,0.0,0.0,0.0,0.0,0.0,0.0,0.0,0.0,0.0,0.0,0.0,0.0,0.0,0.0,0.0,0.0,0.0,0.0,0.0,0.0,0.0,0.0,0.0,0.0,0.0,0.0,0.0,0.0,0.0,0.0,0.0,0.0,0.0,0.0,0.0,0.0,0.0,0.0,0.0,0.0,0.0,0.0,0.0,0.0,0.0,0.0,0.0,0.0,0.0,0.0,0.0,0.0,0.0,0.0,0.0,0.0,0.0,0.0,0.0,0.0,0.0,0.0,0.0,0.0,0.0,0.0,0.0,0.0,0.0,0.0,0.0,0.0,0.0,0.0,0.0,0.0,0.0,0.0,0.0,0.0,0.0,0.0,0.0,0.0,0.0,0.0,0.0,0.0,0.0,0.0,0.0,0.0,0.0,0.0,0.0,0.0,0.0,0.0,0.0,0.0,0.0,0.0,0.0,0.0,0.0,0.0,4.4085,4.4087,4.3538,4.3504,4.3137,4.2319,0.0,0.0,0.0,0.0,0.0,0.0,0.0,0.0,0.0,0.0,0.0,0.0,0.0,0.0,0.0,0.0,0.0,0.0,0.0,0.0,0.0,0.0,0.0,0.0,0.0,0.0,0.0,0.0,0.0,0.0,0.0,0.0,0.0,0.0,0.0,0.0,0.0,0.0,0.0,0.0,0.0,0.0,0.0,0.0,0.0,0.0,0.0,0.0,0.0,0.0,0.0,0.0,0.0,0.0,0.0,0.0,0.0,0.0,0.0,0.0,0.0,0.0,0.0,0.0,0.0,0.0,0.0,0.0,0.0,0.0,0.0,0.0,0.0,0.0,0.0,0.0,0.0,0.0,0.0,0.0,0.0,0.0,0.0,0.0,0.0,0.0,0.0,0.0,0.0,0.0,0.0,0.0,0.0,0.0,0.0,0.0,0.0,0.0,0.0,0.0,0.0,0.0,0.0,0.0,0.0,0.0,0.0,0.0,0.0,4.3541,4.3545,4.3543,4.3504,4.3102,0.0,0.0,0.0,0.0,0.0,0.0,0.0,0.0,0.0,0.0,0.0,0.0,0.0,0.0,0.0,0.0,0.0,0.0,0.0,0.0,0.0,0.0,0.0,0.0,0.0,0.0,0.0,0.0,0.0,0.0,0.0,0.0,0.0,0.0,0.0,0.0,0.0,0.0,0.0,0.0,0.0,0.0,0.0,0.0,0.0,0.0,0.0,0.0,0.0,0.0,0.0,0.0,0.0,0.0,0.0,0.0,0.0,0.0,0.0,0.0,0.0,0.0,0.0,0.0,0.0,0.0,0.0,0.0,0.0,0.0,0.0,0.0,0.0,0.0,0.0,0.0,0.0,0.0,0.0,0.0,0.0,0.0,0.0,0.0,0.0,0.0,0.0,0.0,0.0,0.0,0.0,0.0,0.0,0.0,0.0,0.0,0.0,0.0,0.0,0.0,0.0,0.0,0.0,0.0,0.0,0.0,0.0,0.0,0.0,4.3504,4.3504,4.3983,4.4931,4.3538,4.2359,0.0,0.0,0.0,0.0,0.0,0.0,0.0,0.0,0.0,0.0,0.0,0.0,0.0,0.0,0.0,0.0,0.0,0.0,0.0,0.0,0.0,0.0,0.0,0.0,0.0,0.0,0.0,0.0,0.0,0.0,0.0,0.0,0.0,0.0,0.0,0.0,0.0,0.0,0.0,0.0,0.0,0.0,0.0,0.0,0.0,0.0,0.0,0.0,0.0,0.0,0.0,0.0,0.0,0.0,0.0,0.0,0.0,0.0,0.0,0.0,0.0,0.0,0.0,0.0,0.0,0.0,0.0,0.0,0.0,0.0,0.0,0.0,0.0,0.0,0.0,0.0,0.0,0.0,0.0,0.0,0.0,0.0,0.0,0.0,0.0,0.0,0.0,0.0,0.0,0.0,0.0,0.0,0.0,0.0,0.0,0.0,0.0,0.0,0.0,0.0,0.0,0.0,0.0,0.0,0.0,0.0,0.0,0.0,0.0,4.3506,0.0,4.4277,0.0,4.3785,4.2463,0.0,0.0,0.0,0.0,0.0,0.0,0.0,0.0,0.0,0.0,0.0,0.0,0.0,0.0,0.0,0.0,0.0,0.0,0.0,0.0,0.0,0.0,0.0,0.0,0.0,0.0,0.0,0.0,0.0,0.0,0.0,0.0,0.0,0.0,0.0,0.0,0.0,0.0,0.0,0.0,0.0,0.0,0.0,0.0,0.0,0.0,0.0,0.0,0.0,0.0,0.0,0.0,0.0,0.0,0.0,0.0,0.0,0.0,0.0,0.0,0.0,0.0,0.0,0.0,0.0,0.0,0.0,0.0,0.0,0.0,0.0,0.0,0.0,0.0,0.0,0.0,0.0,0.0,0.0,0.0,0.0,0.0,0.0,0.0,0.0,0.0,0.0,0.0,0.0,0.0,0.0,0.0,0.0,0.0,0.0,0.0,0.0,0.0,0.0,0.0,0.0,0.0,0.0,0.0,0.0,0.0,0.0,0.0,4.3504,4.3582,4.4335,4.4376,4.362,4.4229,4.3521,0.0,0.0,0.0,0.0,0.0,0.0,0.0,0.0,0.0,0.0,0.0,0.0,0.0,0.0,0.0,0.0,0.0,0.0,0.0,0.0,0.0,0.0,0.0,0.0,0.0,0.0,0.0,0.0,0.0,0.0,0.0,0.0,0.0,0.0,0.0,0.0,0.0,0.0,0.0,0.0,0.0,0.0,0.0,0.0,0.0,0.0,0.0,0.0,0.0,0.0,0.0,0.0,0.0,0.0,0.0,0.0,0.0,0.0,0.0,0.0,0.0,0.0,0.0,0.0,0.0,0.0,0.0,0.0,0.0,0.0,0.0,0.0,0.0,0.0,0.0,0.0,0.0,0.0,0.0,0.0,0.0,0.0,0.0,0.0,0.0,0.0,0.0,0.0,0.0,0.0,0.0,0.0,0.0,0.0,0.0,0.0,0.0,0.0,0.0,0.0,0.0,0.0,0.0,0.0,0.0,0.0,0.0,0.0,0.0,4.5117,4.5408,4.5411,4.5115,4.4309,4.3018,0.0,0.0,0.0,0.0,0.0,0.0,0.0,0.0,0.0,0.0,0.0,0.0,0.0,0.0,0.0,0.0,0.0,0.0,0.0,0.0,0.0,0.0,0.0,0.0,0.0,0.0,0.0,0.0,0.0,0.0,0.0,0.0,0.0,0.0,0.0,0.0,0.0,0.0,0.0,0.0,0.0,0.0,0.0,0.0,0.0,0.0,0.0,0.0,0.0,0.0,0.0,0.0,0.0,0.0,0.0,0.0,0.0,0.0,0.0,0.0,0.0,0.0,0.0,0.0,0.0,0.0,0.0,0.0,0.0,0.0,0.0,0.0,0.0,0.0,0.0,0.0,0.0,0.0,0.0,0.0,0.0,0.0,0.0,0.0,0.0,0.0,0.0,0.0,0.0,0.0,0.0,0.0,0.0,0.0,0.0,0.0,0.0,0.0,0.0,0.0,0.0,0.0,0.0,0.0,0.0,0.0,0.0,0.0,0.0,4.628,4.6654,4.6652,4.6361,4.5367,4.3938,4.2066,0.0,0.0,0.0,0.0,0.0,0.0,0.0,0.0,0.0,0.0,0.0,0.0,0.0,0.0,0.0,0.0,0.0,0.0,0.0,0.0,0.0,0.0,0.0,0.0,0.0,0.0,0.0,0.0,0.0,0.0,0.0,0.0,0.0,0.0,0.0,0.0,0.0,0.0,0.0,0.0,0.0,0.0,0.0,0.0,0.0,0.0,0.0,0.0,0.0,0.0,0.0,0.0,0.0,0.0,0.0,0.0,0.0,0.0,0.0,0.0,0.0,0.0,0.0,0.0,0.0,0.0,0.0,0.0,0.0,0.0,0.0,0.0,0.0,0.0,0.0,0.0,0.0,0.0,0.0,0.0,0.0,0.0,0.0,0.0,0.0,0.0,0.0,0.0,0.0,0.0,0.0,0.0,0.0,0.0,0.0,0.0,0.0,0.0,0.0,0.0,0.0,0.0,0.0,0.0,0.0,0.0,0.0,0.0,4.7225,4.8076,4.8076,4.7223,4.7076,4.5948,0.0,0.0,0.0,0.0,0.0,0.0,0.0,0.0,0.0,0.0,0.0,0.0,0.0,0.0,0.0,0.0,0.0,0.0,0.0,0.0,0.0,0.0,0.0,0.0,0.0,0.0,0.0,0.0,0.0,0.0,0.0,0.0,0.0,0.0,0.0,0.0,0.0,0.0,0.0,0.0,0.0,0.0,0.0,0.0,0.0,0.0,0.0,0.0,0.0,0.0,0.0,0.0,0.0,0.0,0.0,0.0,0.0,0.0,0.0,0.0,0.0,0.0,0.0,0.0,0.0,0.0,0.0,0.0,0.0,0.0,0.0,0.0,0.0,0.0,0.0,0.0,0.0,0.0,0.0,0.0,0.0,0.0,0.0,0.0,0.0,0.0,0.0,0.0,0.0,0.0,0.0,0.0,0.0,0.0,0.0,0.0,0.0,0.0,0.0,0.0,0.0,0.0,0.0,0.0,0.0,0.0,0.0,0.0,0.0,4.8898,5.0296,5.0068,4.8076,4.7411,4.5982,0.0,0.0,0.0,0.0,0.0,0.0,0.0,0.0,0.0,0.0,0.0,0.0,0.0,0.0,0.0,0.0,0.0,0.0,0.0,0.0,0.0,0.0,0.0,0.0,0.0,0.0,0.0,0.0,0.0,0.0,0.0,0.0,0.0,0.0,0.0,0.0,0.0,0.0,0.0,0.0,0.0,0.0,0.0,0.0,0.0,0.0,0.0,0.0,0.0,0.0,0.0,0.0,0.0,0.0,0.0,0.0,0.0,0.0,0.0,0.0,0.0,0.0,0.0,0.0,0.0,0.0,0.0,0.0,0.0,0.0,0.0,0.0,0.0,0.0,0.0,0.0,0.0,0.0,0.0,0.0,0.0,0.0,0.0,0.0,0.0,0.0,0.0,0.0,0.0,0.0,0.0,0.0,0.0,0.0,0.0,0.0,0.0,0.0,0.0,0.0,0.0,0.0,0.0,0.0,0.0,0.0,0.0,0.0,4.813,4.9608,5.151,5.1644,4.9921,4.8746,4.7021,0.0,0.0,0.0,0.0,0.0,0.0,0.0,0.0,0.0,0.0,0.0,0.0,0.0,0.0,0.0,0.0,0.0,0.0,0.0,0.0,0.0,0.0,0.0,0.0,0.0,0.0,0.0,0.0,0.0,0.0,0.0,0.0,0.0,0.0,0.0,0.0,0.0,0.0,0.0,0.0,0.0,0.0,0.0,0.0,0.0,0.0,0.0,0.0,0.0,0.0,0.0,0.0,0.0,0.0,0.0,0.0,0.0,0.0,0.0,0.0,0.0,0.0,0.0,0.0,0.0,0.0,0.0,0.0,0.0,0.0,0.0,0.0,0.0,0.0,0.0,0.0,0.0,0.0,0.0,0.0,0.0,0.0,0.0,0.0,0.0,0.0,0.0,0.0,0.0,0.0,0.0,0.0,0.0,0.0,0.0,0.0,0.0,0.0,0.0,0.0,0.0,0.0,0.0,0.0,0.0,0.0,0.0,0.0,4.9598,4.9899,5.205,5.2816,5.1984,5.045,4.8462,0.0,0.0,0.0,0.0,0.0,0.0,0.0,0.0,0.0,0.0,0.0,0.0,0.0,0.0,0.0,0.0,0.0,0.0,0.0,0.0,0.0,0.0,0.0,0.0,0.0,0.0,0.0,0.0,0.0,0.0,0.0,0.0,0.0,0.0,0.0,0.0,0.0,0.0,0.0,0.0,0.0,0.0,0.0,0.0,0.0,0.0,0.0,0.0,0.0,0.0,0.0,0.0,0.0,0.0,0.0,0.0,0.0,0.0,0.0,0.0,0.0,0.0,0.0,0.0,0.0,0.0,0.0,0.0,0.0,0.0,0.0,0.0,0.0,0.0,0.0,0.0,0.0,0.0,0.0,0.0,0.0,0.0,0.0,0.0,0.0,0.0,0.0,0.0,0.0,0.0,0.0,0.0,0.0,0.0,0.0,0.0,0.0,0.0,0.0,0.0,0.0,0.0,0.0,0.0,0.0,0.0,0.0,0.0,5.0193,5.1475,5.2598,5.2816,5.2026,5.0447,4.8756,0.0,0.0,0.0,0.0,0.0,0.0,0.0,0.0,0.0,0.0,0.0,0.0,0.0,0.0,0.0,0.0,0.0,0.0,0.0,0.0,0.0,0.0,0.0,0.0,0.0,0.0,0.0,0.0,0.0,0.0,0.0,0.0,0.0,0.0,0.0,0.0,0.0,0.0,0.0,0.0,0.0,0.0,0.0,0.0,0.0,0.0,0.0,0.0,5.0045,0.0,0.0,0.0,0.0,0.0,0.0,0.0,0.0,0.0,0.0,0.0,0.0,0.0,0.0,0.0,0.0,0.0,0.0,0.0,0.0,0.0,0.0,0.0,0.0,0.0,0.0,0.0,0.0,0.0,0.0,0.0,0.0,0.0,0.0,0.0,0.0,0.0,0.0,0.0,0.0,0.0,0.0,0.0,0.0,0.0,0.0,0.0,0.0,0.0,0.0,0.0,0.0,0.0,0.0,0.0,0.0,0.0,0.0,0.0,5.0739,5.1982,5.2782,5.2816,5.1984,5.081,4.9184,0.0,0.0,0.0,0.0,0.0,0.0,0.0,0.0,0.0,0.0,0.0,0.0,0.0,0.0,0.0,0.0,0.0,0.0,0.0,0.0,0.0,0.0,0.0,0.0,0.0,0.0,0.0,0.0,0.0,0.0,0.0,0.0,0.0,0.0,0.0,0.0,0.0,0.0,0.0,0.0,0.0,0.0,0.0,0.0,0.0,0.0,0.0,0.0,0.0,0.0,0.0,0.0,0.0,0.0,0.0,0.0,0.0,0.0,0.0,0.0,0.0,0.0,0.0,0.0,0.0,0.0,0.0,0.0,0.0,0.0,0.0,0.0,0.0,0.0,0.0,0.0,0.0,0.0,0.0,0.0,0.0,0.0,0.0,0.0,0.0,0.0,0.0,0.0,0.0,0.0,0.0,0.0,0.0,0.0,0.0,0.0,0.0,0.0,0.0,0.0,0.0,0.0,0.0,0.0,0.0,0.0,0.0,4.9618,5.1245,5.2165,5.285,5.2816,5.2024,5.1096,4.9507,4.7191,0.0,0.0,0.0,0.0,0.0,0.0,0.0,0.0,0.0,0.0,0.0,0.0,0.0,0.0,0.0,0.0,0.0,0.0,0.0,0.0,0.0,0.0,0.0,0.0,0.0,0.0,0.0,0.0,0.0,0.0,0.0,0.0,0.0,0.0,0.0,0.0,0.0,0.0,4.6399,4.827,0.0,0.0,0.0,0.0,0.0,0.0,0.0,0.0,5.2555,0.0,0.0,0.0,0.0,0.0,0.0,0.0,0.0,0.0,0.0,0.0,0.0,0.0,0.0,0.0,0.0,0.0,0.0,0.0,0.0,0.0,0.0,0.0,0.0,0.0,0.0,0.0,0.0,0.0,0.0,0.0,0.0,0.0,0.0,0.0,0.0,0.0,0.0,0.0,0.0,0.0,0.0,0.0,0.0,0.0,0.0,0.0,0.0,0.0,0.0,0.0,0.0,0.0,0.0,0.0,0.0,4.8118,4.9877,5.1497,5.2957,5.3143,5.2816,5.1982,5.0592,4.8937,4.7152,0.0,0.0,0.0,0.0,0.0,0.0,0.0,0.0,0.0,0.0,0.0,0.0,0.0,0.0,0.0,0.0,0.0,0.0,0.0,0.0,0.0,0.0,0.0,0.0,0.0,0.0,0.0,0.0,0.0,0.0,0.0,0.0,0.0,0.0,0.0,0.0,0.0,0.0,0.0,4.9339,4.9647,0.0,0.0,0.0,0.0,0.0,0.0,0.0,0.0,5.318,0.0,0.0,0.0,0.0,0.0,0.0,0.0,0.0,0.0,0.0,0.0,0.0,0.0,0.0,0.0,0.0,0.0,0.0,0.0,0.0,0.0,0.0,0.0,0.0,0.0,0.0,0.0,0.0,0.0,0.0,0.0,0.0,0.0,0.0,0.0,0.0,0.0,0.0,0.0,0.0,0.0,0.0,0.0,0.0,0.0,0.0,0.0,0.0,0.0,0.0,0.0,0.0,0.0,0.0,0.0,4.8338,5.0359,5.2016,5.3135,5.3209,5.2593,5.1426,5.0227,4.8612,0.0,0.0,0.0,0.0,0.0,0.0,0.0,0.0,0.0,0.0,0.0,0.0,0.0,0.0,0.0,0.0,0.0,0.0,0.0,0.0,0.0,0.0,0.0,0.0,0.0,0.0,0.0,0.0,0.0,0.0,0.0,0.0,0.0,0.0,0.0,0.0,0.0,0.0,0.0,0.0,5.0594,5.0851,5.0849,0.0,0.0,0.0,0.0,0.0,0.0,5.3111,5.3445,0.0,0.0,0.0,0.0,0.0,0.0,0.0,0.0,0.0,0.0,0.0,0.0,0.0,0.0,0.0,0.0,0.0,0.0,0.0,0.0,0.0,0.0,0.0,0.0,0.0,0.0,0.0,0.0,0.0,0.0,0.0,0.0,0.0,0.0,0.0,0.0,0.0,0.0,0.0,0.0,0.0,0.0,0.0,0.0,0.0,0.0,0.0,0.0,0.0,0.0,0.0,0.0,0.0,0.0,0.0,4.8561,5.0805,5.2383,5.3175,5.3209,5.2407,5.0834,4.9853,4.8242,0.0,0.0,0.0,0.0,0.0,0.0,0.0,0.0,0.0,0.0,0.0,0.0,0.0,0.0,0.0,0.0,0.0,0.0,0.0,0.0,0.0,0.0,0.0,0.0,0.0,0.0,0.0,0.0,0.0,0.0,0.0,0.0,0.0,0.0,0.0,0.0,0.0,0.0,0.0,0.0,0.0,5.2058,5.2239,5.2782,0.0,0.0,0.0,0.0,5.344,5.3804,0.0,0.0,0.0,0.0,0.0,0.0,0.0,0.0,0.0,0.0,0.0,0.0,0.0,0.0,0.0,0.0,0.0,0.0,0.0,0.0,0.0,0.0,0.0,0.0,0.0,0.0,0.0,0.0,0.0,0.0,0.0,0.0,0.0,0.0,0.0,0.0,0.0,0.0,0.0,0.0,0.0,0.0,0.0,0.0,0.0,0.0,0.0,0.0,0.0,0.0,0.0,0.0,0.0,0.0,0.0,0.0,4.9373,5.1098,5.238,5.3138,5.3209,5.2443,5.0836,4.9292,4.7638,0.0,0.0,0.0,0.0,0.0,0.0,0.0,0.0,0.0,0.0,0.0,0.0,0.0,0.0,0.0,0.0,0.0,0.0,0.0,0.0,0.0,0.0,0.0,0.0,0.0,0.0,0.0,0.0,0.0,0.0,0.0,0.0,0.0,0.0,0.0,0.0,0.0,0.0,0.0,0.0,0.0,5.2273,5.296,5.3143,5.3138,0.0,0.0,5.425,5.425,5.5186,0.0,0.0,0.0,0.0,0.0,0.0,0.0,0.0,0.0,0.0,0.0,0.0,0.0,0.0,0.0,0.0,0.0,0.0,0.0,0.0,0.0,0.0,0.0,0.0,0.0,0.0,0.0,0.0,0.0,0.0,0.0,0.0,0.0,0.0,0.0,0.0,0.0,0.0,0.0,0.0,0.0,0.0,0.0,0.0,0.0,0.0,0.0,0.0,0.0,0.0,0.0,0.0,0.0,0.0,0.0,4.8338,4.9525,5.1573,5.2852,5.3177,5.3209,5.2443,5.0834,4.918,4.7342,0.0,0.0,0.0,0.0,0.0,0.0,0.0,0.0,0.0,0.0,0.0,0.0,0.0,0.0,0.0,0.0,0.0,0.0,0.0,0.0,0.0,0.0,0.0,0.0,0.0,0.0,0.0,0.0,0.0,0.0,0.0,0.0,0.0,0.0,0.0,0.0,0.0,0.0,0.0,0.0,0.0,0.0,5.3767,5.4651,0.0,0.0,0.0,5.6105,5.5121,0.0,0.0,0.0,0.0,0.0,0.0,0.0,0.0,0.0,0.0,0.0,0.0,0.0,0.0,0.0,0.0,0.0,0.0,0.0,0.0,0.0,0.0,0.0,0.0,0.0,0.0,0.0,0.0,0.0,0.0,0.0,0.0,0.0,0.0,0.0,0.0,0.0,0.0,0.0,0.0,0.0,0.0,0.0,0.0,0.0,0.0,0.0,0.0,0.0,0.0,0.0,0.0,0.0,0.0,0.0,0.0,0.0,4.9853,5.2042,5.3209,5.3209,5.3209,5.2441,5.0836,4.9184,0.0,0.0,0.0,0.0,0.0,0.0,0.0,0.0,0.0,0.0,0.0,0.0,0.0,0.0,0.0,0.0,0.0,0.0,0.0,0.0,0.0,0.0,0.0,0.0,0.0,0.0,0.0,3.9557,0.0,0.0,0.0,0.0,0.0,0.0,0.0,0.0,0.0,0.0,0.0,0.0,0.0,0.0,5.3845,5.4868,5.6046,5.674,0.0,0.0,5.7567,5.6232,5.6521,5.5801,0.0,0.0,0.0,0.0,0.0,0.0,0.0,0.0,0.0,0.0,0.0,0.0,0.0,0.0,0.0,0.0,0.0,0.0,0.0,0.0,0.0,0.0,0.0,0.0,0.0,0.0,0.0,0.0,0.0,0.0,0.0,0.0,0.0,0.0,0.0,0.0,0.0,0.0,0.0,0.0,0.0,0.0,0.0,0.0,0.0,0.0,0.0,0.0,0.0,0.0,0.0,0.0,0.0,0.0,0.0,5.0687,5.2336,5.3209,5.3209,5.3209,5.2446,5.0834,4.9177,4.7198,0.0,0.0,0.0,0.0,0.0,0.0,0.0,0.0,0.0,0.0,0.0,0.0,0.0,0.0,0.0,0.0,0.0,0.0,0.0,0.0,0.0,0.0,0.0,0.0,0.0,0.0,0.0,0.0,0.0,0.0,0.0,0.0,0.0,0.0,0.0,0.0,0.0,0.0,0.0,0.0,0.0,5.4742,5.6432,5.6743,5.7327,0.0,0.0,5.796,5.7841,5.8238,5.7112,5.2702,0.0,0.0,0.0,0.0,0.0,0.0,0.0,0.0,0.0,0.0,0.0,0.0,0.0,0.0,0.0,0.0,0.0,0.0,0.0,0.0,0.0,0.0,0.0,0.0,0.0,0.0,0.0,0.0,0.0,0.0,0.0,0.0,0.0,0.0,0.0,0.0,0.0,0.0,0.0,0.0,0.0,0.0,0.0,0.0,0.0,0.0,0.0,0.0,0.0,0.0,0.0,0.0,0.0,4.9669,5.0799,5.2852,5.3694,5.3211,5.3209,5.2664,5.1575,4.996,4.7941,0.0,0.0,0.0,0.0,0.0,0.0,0.0,0.0,0.0,0.0,0.0,0.0,0.0,0.0,0.0,0.0,0.0,0.0,0.0,0.0,0.0,0.0,0.0,0.0,0.0,0.0,0.0,0.0,4.1854,4.2359,4.2691,0.0,0.0,0.0,0.0,0.0,0.0,0.0,0.0,0.0,0.0,5.555,5.7285,5.7951,0.0,0.0,5.8939,5.8459,5.7722,5.7716,5.6743,5.3602,5.2539,0.0,0.0,0.0,0.0,0.0,0.0,0.0,0.0,0.0,0.0,0.0,0.0,0.0,0.0,0.0,0.0,0.0,0.0,0.0,0.0,0.0,0.0,0.0,0.0,0.0,0.0,0.0,0.0,0.0,0.0,0.0,0.0,0.0,0.0,0.0,0.0,0.0,0.0,0.0,0.0,0.0,0.0,0.0,0.0,0.0,0.0,0.0,0.0,0.0,0.0,0.0,0.0,4.9745,5.0797,5.2928,5.3775,5.3211,5.3209,5.2818,5.2024,5.0408,4.8536,0.0,0.0,0.0,0.0,0.0,0.0,0.0,0.0,0.0,0.0,0.0,0.0,0.0,0.0,0.0,0.0,0.0,0.0,0.0,0.0,0.0,0.0,0.0,0.0,0.0,0.0,0.0,0.0,4.2279,4.2833,4.2737,0.0,0.0,0.0,0.0,0.0,0.0,0.0,0.0,0.0,0.0,5.6704,5.8401,5.9143,5.948,5.9405,5.9533,5.9173,5.7778,5.7778,5.7133,5.4588,0.0,0.0,0.0,0.0,0.0,0.0,0.0,0.0,0.0,0.0,0.0,0.0,0.0,0.0,0.0,0.0,0.0,0.0,0.0,0.0,0.0,0.0,0.0,0.0,0.0,0.0,0.0,0.0,0.0,0.0,0.0,0.0,0.0,0.0,0.0,0.0,0.0,0.0,0.0,0.0,0.0,0.0,0.0,0.0,0.0,0.0,0.0,0.0,0.0,0.0,0.0,0.0,0.0,4.9182,5.0765,5.2449,5.3248,5.3209,5.3209,5.2813,5.2024,5.0403,4.8744,4.7117,0.0,0.0,0.0,0.0,0.0,0.0,0.0,0.0,0.0,0.0,0.0,0.0,0.0,0.0,0.0,0.0,0.0,0.0,0.0,0.0,0.0,0.0,0.0,0.0,0.0,0.0,4.1889,4.278,4.3249,0.0,0.0,0.0,0.0,0.0,0.0,0.0,0.0,0.0,0.0,5.6582,5.8187,5.9883,6.0158,6.0072,5.9833,6.027,5.9993,5.8158,5.8914,5.8667,0.0,0.0,0.0,0.0,0.0,0.0,0.0,0.0,0.0,0.0,0.0,0.0,0.0,0.0,0.0,0.0,0.0,0.0,0.0,0.0,0.0,0.0,0.0,0.0,0.0,0.0,0.0,4.1316,4.1021,0.0,0.0,0.0,0.0,0.0,0.0,0.0,0.0,0.0,0.0,0.0,4.8357,4.8636,0.0,0.0,0.0,0.0,0.0,0.0,0.0,0.0,0.0,0.0,0.0,0.0,5.0244,5.087,5.2886,5.3733,5.3211,5.3209,5.3065,5.2776,5.1722,4.9882,4.7191,0.0,0.0,0.0,0.0,0.0,0.0,0.0,0.0,0.0,0.0,0.0,0.0,0.0,0.0,0.0,0.0,0.0,0.0,0.0,0.0,0.0,0.0,0.0,0.0,0.0,4.185,0.0,0.0,0.0,0.0,0.0,0.0,0.0,0.0,0.0,0.0,0.0,5.4432,5.6427,5.805,5.948,6.07,6.077,6.0781,0.0,0.0,0.0,0.0,0.0,0.0,0.0,0.0,0.0,0.0,0.0,0.0,0.0,0.0,6.1771,5.922,5.8656,5.8396,5.7976,0.0,0.0,0.0,0.0,0.0,0.0,0.0,0.0,0.0,0.0,0.0,0.0,0.0,0.0,0.0,0.0,4.2729,0.0,0.0,0.0,0.0,0.0,0.0,0.0,0.0,4.8915,5.021,5.1289,5.1798,5.2199,0.0,5.2197,5.1237,0.0,0.0,0.0,0.0,0.0,0.0,0.0,0.0,5.066,5.1277,5.3041,5.3731,5.3211,5.3209,5.3209,5.3177,5.2417,5.0582,4.7636,4.6794,4.5361,0.0,0.0,0.0,0.0,0.0,0.0,0.0,0.0,0.0,0.0,0.0,0.0,0.0,0.0,0.0,0.0,0.0,0.0,0.0,0.0,0.0,0.0,0.0,4.2448,0.0,0.0,0.0,0.0,0.0,0.0,0.0,0.0,0.0,5.189,5.4216,5.6393,5.7559,5.8871,6.0067,6.109,0.0,0.0,0.0,0.0,0.0,0.0,0.0,5.9929,5.9164,6.0275,6.1531,6.2391,6.3617,6.5084,6.6776,0.0,0.0,6.3129,6.244,6.2188,6.1738,6.2313,6.2825,6.2825,6.3396,6.4133,0.0,0.0,0.0,0.0,0.0,0.0,0.0,0.0,4.5351,4.5475,0.0,4.462,0.0,0.0,0.0,0.0,0.0,0.0,0.0,0.0,5.3166,5.4439,5.4433,5.4467,5.4913,5.5582,5.4882,5.4473,5.425,5.1329,0.0,0.0,0.0,0.0,0.0,0.0,5.0445,5.1948,5.2779,5.3209,5.3209,5.3209,5.3209,5.3177,5.242,5.088,4.8597,4.9158,4.8096,4.4922,4.4532,0.0,0.0,0.0,0.0,0.0,0.0,0.0,0.0,0.0,0.0,0.0,0.0,0.0,0.0,0.0,0.0,0.0,0.0,0.0,0.0,4.3604,0.0,0.0,0.0,0.0,0.0,0.0,0.0,0.0,0.0,0.0,5.3432,5.6103,5.8172,5.8415,0.0,0.0,0.0,0.0,6.1816,6.0996,6.1966,6.2043,5.9917,6.1172,6.1941,6.0674,0.0,0.0,6.6792,6.7285,6.7679,6.8477,6.902,6.8752,6.6566,6.6047,6.5748,6.4959,6.5329,6.5818,6.5881,6.644,6.7034,4.7455,0.0,0.0,0.0,0.0,4.7407,4.8162,4.8735,4.9593,4.952,4.8834,4.823,0.0,0.0,0.0,0.0,0.0,0.0,5.0879,5.2498,5.4377,5.554,5.6116,5.6712,5.7082,5.7305,5.7082,5.6675,5.6082,5.5167,5.3038,4.9801,0.0,0.0,0.0,0.0,5.1546,5.2018,5.2776,5.3209,5.3209,5.3209,5.3209,5.3209,5.2417,5.1657,5.0954,5.0618,4.97,4.8104,4.683,0.0,0.0,0.0,0.0,0.0,0.0,0.0,0.0,0.0,0.0,0.0,0.0,0.0,0.0,0.0,0.0,0.0,0.0,0.0,4.281,4.4678,4.563,0.0,0.0,0.0,0.0,0.0,0.0,0.0,0.0,0.0,5.7526,5.8688,5.9868,0.0,0.0,6.1777,6.1617,6.197,6.2219,6.2155,0.0,0.0,0.0,6.1956,6.2674,6.2138,6.4083,6.6011,6.6939,6.7491,6.8222,6.9483,6.9864,6.9893,6.9798,6.8923,6.8162,6.7906,6.8402,6.8887,6.896,6.9479,6.9992,5.0962,5.0303,4.9417,4.9031,4.9134,4.982,5.0441,5.0902,5.1556,5.1563,5.109,5.0683,4.9765,4.8567,4.8135,0.0,0.0,0.0,5.2543,5.4325,5.5591,5.656,5.7288,5.7773,5.8002,5.8002,5.8002,5.774,5.726,5.6963,5.56,5.3222,0.0,0.0,5.1549,5.2129,5.264,5.2936,5.3107,5.3209,5.3209,5.3209,5.3209,5.3175,5.2745,5.2346,5.2024,5.1864,5.1212,5.002,4.8735,4.6998,0.0,0.0,0.0,0.0,0.0,0.0,0.0,0.0,0.0,0.0,0.0,4.4112,4.3288,0.0,0.0,0.0,4.298,4.3389,4.4603,4.6893,0.0,0.0,0.0,0.0,0.0,0.0,0.0,5.6323,5.8037,5.9396,6.0101,6.0532,6.0905,6.1256,6.1696,6.1842,6.1526,0.0,6.2304,6.2551,6.2543,6.254,6.2504,6.3441,6.4205,6.4312,6.5367,6.6555,6.7272,6.7709,6.8447,6.9766,7.0206,7.0443,7.1165,7.0562,6.9953,6.9987,7.0331,7.0607,7.0641,7.1007,7.1295,5.3693,5.4253,5.2138,5.1306,5.141,5.2103,5.2375,5.2348,5.2133,5.2228,5.2523,5.2135,5.1775,5.1428,5.0625,0.0,0.0,5.2934,5.4218,5.5964,5.6762,5.7407,5.793,5.7939,5.7939,5.7939,5.7936,5.7962,5.796,5.7257,5.6892,5.6847,5.5424,5.462,5.4475,5.3697,5.3657,5.436,5.3626,5.3209,5.3209,5.3209,5.3209,5.3209,5.3209,5.2855,5.216,5.2816,5.2498,5.0988,5.0272,4.8798,4.633,0.0,0.0,0.0,0.0,0.0,0.0,0.0,0.0,0.0,0.0,0.0,0.0,0.0,0.0,0.0,4.6182,0.0,4.7756,4.9893,0.0,0.0,0.0,5.4389,5.5796,5.6625,5.7602,5.9022,0.0,0.0,0.0,0.0,6.1628,6.1096,6.0947,6.0978,6.1201,6.1766,6.2222,6.2527,6.3631,6.438,6.4049,6.4992,6.5951,6.6448,6.6797,6.7015,6.7601,6.7765,6.8402,6.9626,7.0032,7.0336,7.1058,7.1165,7.1295,7.1227,7.1261,7.1261,7.1261,7.1267,7.1295,5.2413,5.3594,5.3073,5.3176,5.3693,5.3866,5.3931,5.3939,5.3898,5.3598,5.318,5.3072,5.2984,5.2888,5.2685,5.3057,5.3898,5.4557,5.5338,5.6216,5.6814,5.7175,5.7297,5.73,5.7297,5.73,5.7297,5.7549,5.7988,5.781,5.7703,5.7703,5.7336,5.6531,5.5325,5.4509,5.4179,5.4397,5.3618,5.3209,5.3209,5.3209,5.3209,5.3209,5.3209,5.3101,5.2923,5.3104,5.2834,5.2042,5.1271,5.0022,4.8161,4.6353,0.0,0.0,0.0,0.0,0.0,0.0,0.0,0.0,0.0,4.7018,4.7086,0.0,4.8423,0.0,4.8965,4.995,5.0316,5.2857,0.0,0.0,5.6296,5.7205,5.8105,5.8858,5.9665,6.0651,6.1719,6.2584,6.2976,6.3533,6.3824,6.3671,6.2959,6.2242,6.177,6.2167,6.2779,6.3329,6.367,6.3954,6.4501,6.5205,6.6039,6.6706,6.6797,6.6864,6.7039,6.7067,6.7348,6.8267,6.8983,6.962,7.037,7.09,7.1261,7.1295,7.1295,7.1295,7.1295,7.1295,7.1295,5.2831,5.3904,5.39,5.4107,5.4482,5.4142,5.4214,5.4452,5.4138,5.3965,5.39,5.3873,5.3904,5.3862,5.3896,5.4103,5.4518,5.4838,5.5332,5.5901,5.6228,5.647,5.675,5.675,5.6757,5.6763,5.6992,5.7259,5.7591,5.7892,5.8002,5.8002,5.8002,5.7562,5.6684,5.5865,5.5458,5.5458,5.4656,5.41,5.3736,5.3733,5.3547,5.3211,5.3209,5.3209,5.3209,5.3082,5.2844,5.2499,5.1676,5.0608,4.927,4.7735,4.6145,0.0,0.0,0.0,0.0,0.0,0.0,0.0,0.0,0.0,0.0,0.0,5.0948,0.0,5.2125,5.318,5.364,5.5805,5.7462,5.822,5.9239,6.0187,6.0946,6.167,6.2274,6.2714,6.3487,6.3994,6.3994,6.4343,6.4619,6.4619,6.4069,6.3577,6.3178,6.3357,6.37,6.4063,6.4317,6.4744,6.5449,6.5928,6.6339,6.67,6.6797,6.6903,6.7208,6.7275,6.7619,6.8673,6.9287,6.9829,7.0534,7.1007,7.1295,7.1295,7.1295,7.1295,7.13,7.1537,7.178,5.3659,5.4348,5.4348,5.4417,5.4456,5.3697,5.3831,5.4452,5.3835,5.3904,5.449,5.449,5.449,5.449,5.449,5.449,5.449,5.449,5.4819,5.5391,5.5406,5.5673,5.6183,5.619,5.619,5.6211,5.6675,5.6934,5.7122,5.7725,5.8045,5.8048,5.8224,5.8222,5.8017,5.7443,5.6963,5.6633,5.5949,5.5252,5.4586,5.4478,5.4069,5.3398,5.3251,5.3209,5.3151,5.2896,5.2717,5.2584,5.1762,5.0965,5.02,4.8882,4.7768,0.0,4.622,0.0,0.0,0.0,0.0,0.0,0.0,0.0,0.0,5.29,5.3315,5.4021,5.5471,5.6684,5.7336,5.8786,5.9965,6.0612,6.1883,6.2966,6.3579,6.4197,6.4619,6.4619,6.4681,6.4749,6.4749,6.4816,6.4884,6.4952,6.4967,6.4891,6.486,6.4663,6.4527,6.471,6.5363,6.5967,6.6531,6.6729,6.6763,6.6797,6.6797,6.7039,6.776,6.7866,6.834,6.9626,7.0037,7.0404,7.1069,7.1193,7.1295,7.1295,7.1503,7.1605,7.143,7.1847,7.2326,5.2889,5.3598,5.3594,5.3939,5.4417,5.3697,5.3835,5.4486,5.4348,5.4383,5.449,5.449,5.449,5.449,5.449,5.449,5.449,5.449,5.4819,5.5406,5.5406,5.5472,5.555,5.5553,5.5592,5.5596,5.5665,5.6182,5.7106,5.7875,5.824,5.8293,5.939,5.935,5.8325,0.0,0.0,0.0,5.5698,5.5511,5.5365,5.4735,5.4326,5.4179,5.355,0.0,5.3013,5.2789,5.2618,5.2492,5.2146,0.0,0.0,0.0,0.0,0.0,0.0,0.0,0.0,0.0,0.0,0.0,5.4722,5.4761,5.5061,5.6156,5.6909,5.7112,5.8993,6.0312,6.0443,6.2342,6.3594,6.3729,6.4,6.4241,6.4372,6.4541,6.4619,6.4613,6.5126,6.5503,6.5537,6.5995,6.6362,6.63,6.6357,6.6357,6.6357,6.5353,6.4884,6.5407,6.6073,6.6604,6.6763,6.6797,6.6797,6.6797,6.6797,6.7106,6.776,6.7934,6.8199,6.9253,6.9789,7.0246,7.0443,7.0872,7.1295,7.1295,7.2219,7.2738,7.1605,7.1881,7.2214,5.3789,0.0,5.4073,5.4379,0.0,5.4245,5.4142,5.4482,5.4107,5.4142,5.449,5.449,5.449,5.449,5.449,5.449,5.449,5.449,5.4667,5.4957,5.4961,5.4961,5.4968,5.5344,5.5514,5.5518,5.6108,5.6725,5.7383,5.7966,5.8308,5.8402,5.9104,5.9104,5.8415,5.8694,5.8179,5.6791,5.6794,5.6607,5.6198,5.5789,5.539,5.4989,0.0,0.0,0.0,0.0,0.0,0.0,0.0,0.0,0.0,0.0,0.0,5.2527,5.281,5.3203,5.3666,5.4283,5.544,5.7196,5.8389,5.8693,5.794,5.9273,6.0288,6.0651,6.2071,6.2922,6.2951,6.3971,6.4619,6.4613,6.4913,6.5165,6.5194,6.5493,6.5686,6.5725,6.5995,6.6232,6.6242,6.6536,6.6797,6.6797,6.6797,6.6797,6.6763,6.6159,6.5855,6.617,6.6536,6.6797,6.6797,6.6797,6.6797,6.6797,6.6797,6.7275,6.8295,6.8509,6.8842,6.9914,7.0494,7.0737,7.077,7.1064,7.1295,7.1329,7.1881,7.2219,7.147,7.2152,7.284,5.5241,5.5758,5.5168,5.5276,5.5758,5.5142,5.4827,5.462,0.0,0.0,0.0,5.449,5.449,5.449,5.449,5.449,5.449,5.449,5.4586,5.4689,5.4689,5.4762,5.4939,5.5517,5.5827,5.5847,5.6838,5.7444,5.7708,5.8127,5.8397,5.8553,5.8776,5.8869,5.8723,5.8574,5.8354,5.8102,5.7977,5.7572,5.6906,5.6887,5.6539,5.5883,5.5846,5.5564,5.4882,5.4626,5.4288,5.3859,5.4038,5.4159,5.4195,5.4772,5.5043,5.4886,5.554,5.615,5.6531,5.7111,5.8044,5.9496,6.1569,6.2216,6.082,6.1985,6.3028,6.3617,6.4372,6.4783,6.4783,6.4923,6.4986,6.4986,6.5532,6.5909,6.5938,6.6396,6.6729,6.6797,6.6763,6.6797,6.6763,6.6797,6.6797,6.6797,6.6797,6.6909,6.6937,6.6836,6.6729,6.6966,6.6932,6.6797,6.6797,6.6797,6.6797,6.6797,6.6903,6.7512,6.8668,6.9209,6.9823,7.0962,7.1295,7.1261,7.1261,7.1261,7.1295,7.1295,7.1396,7.1498,7.1599,7.2535,7.3353,5.6529,5.6633,5.6533,5.6521,5.6629,5.6529,5.6111,5.5417,5.4659,5.4421,5.449,5.449,5.449,5.449,5.449,5.449,5.449,5.449,5.4827,0.0,5.5452,5.5797,5.6456,5.6568,5.6629,5.6637,5.681,5.7158,5.772,5.8433,5.8796,5.8924,5.9948,6.02,5.9544,5.8834,5.8478,5.8436,5.7783,5.7432,5.7332,5.7138,5.7025,5.6898,5.6862,5.6442,5.5608,5.5438,5.5517,5.5863,5.5715,5.5841,5.6337,5.7024,5.7401,5.7445,5.8531,5.9209,5.9115,5.9586,6.0492,6.183,6.3401,6.3932,6.3149,6.3797,6.4338,6.4468,6.5126,6.5542,6.5576,6.6102,6.6396,6.643,6.6565,6.6638,6.6599,6.67,6.6797,6.6797,6.6797,6.6797,6.6797,6.6797,6.6836,6.683,6.7005,6.7067,6.7517,6.7208,6.7106,6.7484,6.7208,6.6864,6.6797,6.6797,6.683,6.6797,6.7354,6.7996,6.9011,6.9597,7.0263,7.1165,7.1295,7.1295,7.1295,7.1295,7.1295,7.1334,7.1706,7.2157,7.2191,7.2907,7.3353,5.7047,5.7314,5.6973,5.7012,5.7353,5.6982,5.6598,5.6245,5.5904,5.5249,5.4525,5.449,5.449,5.4521,5.4935,5.5099,5.5103,5.5555,5.5935,5.6249,5.6241,5.646,5.684,5.7211,5.7391,5.7409,5.7642,5.7902,5.8326,5.8947,5.9116,5.8878,5.9532,5.9691,5.9313,5.8938,5.8549,5.8188,5.803,5.819,5.8535,5.8079,5.8059,5.8404,5.8079,5.7524,5.6823,5.6727,5.6842,5.7147,5.7435,5.7923,5.8611,5.9353,5.9637,5.9495,6.0798,6.1439,6.1144,6.2087,6.3118,6.4131,6.4798,6.5256,6.5308,6.5222,6.5363,6.5758,6.6131,6.6305,6.6305,6.6599,6.6797,6.6797,6.6797,6.6797,6.6797,6.6797,6.6797,6.6797,6.6797,6.6797,6.6797,6.6797,6.7005,6.7309,6.772,6.816,6.8498,6.789,6.7517,6.7793,6.7624,6.7236,6.6898,6.6797,6.6971,6.7309,6.7658,6.8408,6.9383,7.0037,7.0466,7.1131,7.1295,7.1295,7.1329,7.1295,7.1295,7.1368,7.1915,7.2326,7.249,7.3274,7.3911,5.7633,5.8112,5.7521,5.7629,5.8107,5.7521,5.7219,5.7038,5.7051,5.628,5.5103,5.4835,5.4827,5.5073,5.5452,5.5689,5.5931,5.6491,5.6882,5.7042,5.7047,5.7219,5.7594,5.8146,5.85,5.8608,5.8967,5.9189,5.9328,5.9767,5.9768,5.9395,5.9452,5.9448,5.925,5.9276,5.89,5.8209,5.8441,5.8805,5.9111,5.8915,5.908,5.9498,5.9455,5.907,5.8523,5.8487,5.855,5.868,5.9215,5.9801,6.0422,6.1323,6.1649,6.1452,6.2653,6.3305,6.301,6.4106,6.5092,6.5639,6.5842,6.6203,6.6667,6.6271,6.6175,6.67,6.6763,6.6763,6.6763,6.6802,6.6797,6.6797,6.6797,6.6797,6.6797,6.6797,6.6797,6.6797,6.6937,6.7072,6.7072,6.7213,6.7585,6.816,6.8842,6.9316,6.9282,6.8881,6.8668,6.8335,6.803,6.7517,6.7067,6.6859,6.7106,6.7765,6.8098,6.8774,6.9795,7.0274,7.0742,7.1407,7.1571,7.174,7.1774,7.1842,7.1875,7.1983,7.2394,7.2732,7.3025,7.3978,7.4796,5.8827,5.8892,5.8754,5.8827,5.8866,5.8793,5.8383,5.7831,5.7801,5.7357,5.6564,5.5831,5.59,5.643,5.59,5.6034,5.6667,5.6771,5.7185,5.7771,5.7805,5.853,5.9698,5.9909,6.0222,6.0631,6.0819,6.0783,6.0662,6.0952,6.1098,6.1085,6.1073,6.0703,6.0155,6.0086,5.9702,5.8935,5.8946,5.8663,5.8147,5.9229,5.9874,5.9855,6.1202,6.1589,6.0687,6.0911,6.0945,6.0978,6.1047,6.1146,6.1358,6.2595,6.3291,6.3123,6.4273,6.4808,6.4495,6.517,6.5634,6.574,6.6334,6.6706,6.6802,6.6734,6.6695,6.6797,6.6797,6.6797,6.6797,6.6797,6.6797,6.6797,6.6869,6.6797,6.683,6.6797,6.6797,6.6797,6.7416,6.7793,6.7861,6.8368,6.8808,6.8837,6.9586,7.0037,7.0003,7.0297,7.0393,6.9688,6.8397,6.7444,6.7546,6.7213,6.7411,6.7923,6.8538,6.9355,7.0206,7.0906,7.143,7.2095,7.2293,7.2496,7.2947,7.3285,7.3184,7.3015,7.3218,7.3584,7.4249,7.4959,7.5439,5.8995,5.8995,5.8995,5.8995,5.8995,5.8995,5.8827,5.8586,5.8556,5.8379,5.8004,5.7314,5.6904,5.6801,5.6909,5.7146,5.7456,5.7905,5.8245,5.8586,5.9047,5.9538,6.0023,6.0611,6.0936,6.0975,6.0948,6.0923,6.0868,6.0889,6.1297,6.1892,6.1535,6.1151,6.0884,6.084,6.0659,6.0388,6.0349,6.0211,5.9965,6.002,6.0261,6.0636,6.1319,6.158,6.1276,6.1292,6.1698,6.2535,6.2634,6.3091,6.3984,6.4487,6.4626,6.4478,6.5086,6.5605,6.5899,6.6198,6.6367,6.6367,6.6633,6.6797,6.6797,6.6797,6.6797,6.6797,6.6797,6.6797,6.6797,6.6797,6.6797,6.6864,6.7179,6.7275,6.683,6.7614,6.8025,6.7624,6.8132,6.86,6.8707,6.9282,6.9524,6.9378,7.006,7.0674,7.0342,7.0471,7.0669,7.0629,6.9305,6.8436,6.8504,6.8402,6.8498,6.9051,6.953,7.0071,7.1182,7.1689,7.2191,7.2913,7.3009,7.311,7.3359,7.3494,7.3494,7.3596,7.3996,7.4356,7.51,7.5473,7.567,5.9314,5.9314,5.9353,5.9452,5.962,5.962,5.962,5.9586,5.9422,5.9314,5.9245,5.8525,5.79,5.7491,5.7767,5.8008,5.8276,5.8969,5.9319,5.9418,6.0146,6.0515,6.0675,6.1215,6.1571,6.1636,6.1738,6.1765,6.1734,6.1482,6.1922,6.2593,6.2166,6.1778,6.1629,6.1634,6.1526,6.1323,6.1328,6.1328,6.1259,6.0983,6.1025,6.1476,6.1774,6.2013,6.222,6.222,6.2841,6.4156,6.4225,6.4713,6.5782,6.5851,6.5813,6.577,6.5902,6.6242,6.6763,6.6797,6.6797,6.6797,6.6797,6.6797,6.6797,6.6797,6.6797,6.6797,6.6797,6.6797,6.6797,6.6971,6.7033,6.6898,6.7619,6.789,6.7314,6.8335,6.8837,6.8402,6.8921,6.949,6.9716,7.0167,7.0331,7.0021,7.0624,7.1171,7.0669,7.0573,7.0737,7.1165,7.0319,6.9682,6.9456,6.9113,6.949,6.9936,7.0139,7.0646,7.2028,7.2332,7.2868,7.3477,7.3646,7.399,7.4368,7.4266,7.4063,7.4199,7.4531,7.4993,7.5473,7.5676,7.5811,6.0151,6.0151,6.0151,6.0491,6.1185,6.1112,6.1151,6.1013,6.0422,6.0155,6.0047,5.9353,5.8931,5.8866,5.8379,5.8349,5.8995,5.9767,6.0151,6.0215,6.0896,6.1664,6.234,6.2231,6.2513,6.3116,6.3623,6.4076,6.4285,6.3599,6.3318,6.3517,6.3291,6.2937,6.2512,6.2441,6.2091,6.1526,6.1496,6.1397,6.1466,6.2057,6.236,6.2535,6.311,6.3742,6.4329,6.4501,6.491,6.5762,6.5757,6.5856,6.5965,6.6362,6.6727,6.696,6.6837,6.6734,6.6802,6.6797,6.6797,6.6797,6.6797,6.6797,6.6797,6.6797,6.6797,6.6797,6.6797,6.6797,6.6864,6.7275,6.7416,6.7072,6.816,6.8504,6.7957,6.8701,6.9045,6.9147,6.9688,7.0331,7.0996,7.1199,7.1131,7.1058,7.1227,7.1233,7.1199,7.1193,7.1233,7.1267,7.1131,7.0934,7.0274,6.9857,6.9722,7.0235,7.081,7.0883,7.1684,7.2558,7.3364,7.404,7.4384,7.4796,7.5371,7.554,7.5371,7.5337,7.527,7.5642,7.5676,7.5715,7.5952,6.0879,6.0909,6.0905,6.1082,6.1289,6.1328,6.1328,6.1284,6.1008,6.0914,6.0836,6.0599,6.0457,6.0461,6.0181,5.9978,5.987,6.0565,6.0905,6.0965,6.1568,6.203,6.23,6.2703,6.3293,6.3956,6.4145,6.4492,6.4966,6.4664,6.4431,6.4307,6.4249,6.388,6.3319,6.32,6.3057,6.2816,6.2776,6.2776,6.2742,6.3057,6.3407,6.388,6.4161,6.4427,6.4674,6.5191,6.5817,6.658,6.661,6.6754,6.7045,6.7035,6.6977,6.6925,6.6844,6.6797,6.6797,6.6797,6.6797,6.6797,6.6797,6.6797,6.6797,6.6797,6.6797,6.6797,6.6797,6.6797,6.683,6.7072,6.7309,6.7619,6.8431,6.904,6.9006,6.9716,7.0325,7.006,7.0432,7.1035,7.1199,7.1295,7.1295,7.1295,7.1295,7.1295,7.1295,7.1295,7.1295,7.1295,7.1295,7.1227,7.1002,7.0759,7.0759,7.1306,7.1819,7.2428,7.3166,7.3533,7.4243,7.479,7.5128,7.5236,7.5642,7.5642,7.5676,7.5709,7.5709,7.5845,7.5676,7.6048,7.6454,6.1703,6.1664,6.1668,6.1841,6.2013,6.2048,6.2052,6.2009,6.1811,6.1703,6.1634,6.1427,6.1328,6.1358,6.1556,6.1427,6.1004,6.1399,6.1606,6.1754,6.2286,6.2604,6.2749,6.329,6.3844,6.4358,6.4526,6.4962,6.5627,6.5402,6.5123,6.4955,6.4864,6.4624,6.4266,6.4221,6.4254,6.4315,6.4338,6.426,6.4018,6.3954,6.4191,6.4669,6.4945,6.5225,6.5432,6.595,6.661,6.7231,6.7329,6.7448,6.7635,6.7392,6.7087,6.6839,6.6797,6.6797,6.6797,6.6797,6.6797,6.6797,6.6797,6.6797,6.6797,6.6797,6.6797,6.6825,6.7072,6.7179,6.7208,6.7411,6.7653,6.8064,6.9011,6.9654,6.9558,7.0522,7.0934,7.0731,7.0928,7.1227,7.1295,7.1295,7.1295,7.1295,7.1295,7.1295,7.1295,7.1295,7.1295,7.1295,7.1295,7.1295,7.1199,7.1058,7.1024,7.1503,7.2191,7.3133,7.4012,7.4418,7.4852,7.5433,7.5676,7.5676,7.5676,7.5676,7.5709,7.5715,7.6014,7.6251,7.6352,7.6617,7.7029,6.2505,6.2505,6.251,6.285,6.3363,6.3397,6.3501,6.3328,6.2786,6.2475,6.2402,6.1776,6.1565,6.156,6.2225,6.2471,6.24,6.2261,6.2305,6.2542,6.2978,6.3332,6.3583,6.3894,6.4277,6.4623,6.5225,6.6014,6.6814,6.5935,6.5495,6.5436,6.5245,6.5206,6.5445,6.5351,6.5531,6.564,6.5654,6.5403,6.4816,6.4703,6.4772,6.4949,6.5545,6.624,6.6881,6.6985,6.7329,6.7916,6.8005,6.788,6.7526,6.7284,6.7077,6.6844,6.6797,6.6797,6.6797,6.6864,6.6932,6.6971,6.6898,6.7067,6.7135,6.7067,6.7067,6.7174,6.7551,6.79,6.803,6.8532,6.8769,6.8301,6.9784,7.0601,7.0471,7.0832,7.1295,7.1227,7.1295,7.1295,7.1295,7.1295,7.1329,7.1436,7.143,7.1503,7.1605,7.1571,7.1362,7.1362,7.1329,7.1295,7.1295,7.1295,7.1295,7.147,7.2185,7.3037,7.4018,7.4627,7.5061,7.5574,7.5676,7.5676,7.5676,7.5676,7.5676,7.5777,7.6217,7.6521,7.6657,7.6893,7.761,6.3259,6.3264,6.3264,6.3402,6.36,6.36,6.36,6.36,6.3328,6.3264,6.3195,6.2983,6.288,6.2914,6.316,6.3264,6.3232,6.2931,6.2936,6.325,6.3313,6.371,6.424,6.4307,6.4795,6.5685,6.6506,6.7031,6.7218,6.6931,6.6723,6.6539,6.6411,6.6146,6.5825,6.5795,6.5833,6.5876,6.5886,6.5752,6.5545,6.5511,6.5752,6.6265,6.6536,6.6985,6.7714,6.7743,6.7881,6.8088,6.7945,6.7709,6.7351,6.7071,6.6914,6.6812,6.6797,6.6797,6.6864,6.7281,6.7551,6.7653,6.8025,6.8324,6.8392,6.8324,6.8329,6.8335,6.86,6.8735,6.8842,6.9383,6.9659,6.949,7.0128,7.077,7.0934,7.1165,7.1261,7.1295,7.1295,7.1295,7.1295,7.1329,7.1537,7.1988,7.205,7.2157,7.2569,7.2298,7.209,7.2056,7.1746,7.143,7.147,7.1672,7.1847,7.205,7.2597,7.324,7.4153,7.4903,7.5303,7.554,7.5642,7.5676,7.5676,7.5676,7.5676,7.5743,7.6014,7.6318,7.6555,7.7272,7.8219,6.3535,6.36,6.36,6.36,6.3634,6.3885,6.3984,6.4018,6.4018,6.4018,6.3988,6.3708,6.36,6.36,6.36,6.3772,6.396,6.3747,6.3917,6.4249,6.3787,6.4169,6.5042,6.5122,6.5647,6.6636,6.7236,6.7572,6.7714,6.7653,6.7504,6.731,6.7207,6.7025,6.6617,6.6607,6.6631,6.6704,6.6713,6.6571,6.6368,6.63,6.6511,6.6916,6.698,6.7398,6.8019,6.8088,6.8088,6.8034,6.7815,6.7516,6.7206,6.6977,6.6797,6.6864,6.7067,6.7208,6.7275,6.7929,6.8363,6.8436,6.8808,6.9079,6.9079,6.9079,6.9079,6.9079,6.935,6.9519,6.9592,7.0161,7.0573,7.0596,7.0635,7.0799,7.1267,7.1565,7.1537,7.147,7.1577,7.1678,7.1706,7.1746,7.2016,7.2603,7.2806,7.2879,7.3291,7.3088,7.2913,7.2778,7.2597,7.2253,7.1847,7.2022,7.2366,7.2704,7.3144,7.3781,7.4559,7.5134,7.5608,7.5608,7.5676,7.5676,7.5676,7.5676,7.5709,7.5811,7.6048,7.6629,7.7238,7.8287,7.9099,6.3497,6.3669,6.3678,6.3708,6.3807,6.4462,6.4777,6.4777,6.4772,6.4782,6.4644,6.4195,6.388,6.3816,6.3984,6.426,6.4655,6.4706,6.5057,6.5354,6.4946,6.499,6.5868,6.6195,6.6741,6.7355,6.7496,6.7673,6.788,6.7754,6.7779,6.769,6.753,6.7558,6.7519,6.776,6.7713,6.7807,6.7931,6.7635,6.7088,6.7063,6.7093,6.7123,6.7157,6.7467,6.798,6.8054,6.8044,6.8029,6.7688,6.7457,6.7243,6.699,6.6932,6.7106,6.7614,6.7895,6.8137,6.8707,6.9141,6.9147,6.9316,6.9209,6.9417,6.9519,6.9519,6.9513,7.0037,7.0375,7.0438,7.1041,7.1407,7.1362,7.1233,7.1261,7.1402,7.1977,7.205,7.1813,7.205,7.2456,7.2462,7.2468,7.2806,7.3313,7.355,7.3657,7.3799,7.3832,7.3629,7.3454,7.3313,7.2941,7.2496,7.2603,7.2981,7.3443,7.3787,7.4255,7.4824,7.5365,7.5676,7.5676,7.5676,7.5676,7.5676,7.5709,7.5845,7.6082,7.6521,7.7238,7.805,7.8963,7.9471,6.4342,6.4427,6.4398,6.4398,6.4531,6.5269,6.5575,6.558,6.5575,6.5575,6.5506,6.5407,6.52,6.5269,6.5235,6.5407,6.5507,6.5427,6.5753,6.6357,6.621,6.6225,6.6725,6.7162,6.7469,6.7683,6.7566,6.7542,6.7623,6.7515,6.7484,6.7562,6.7552,6.7555,6.7606,6.7744,6.7824,6.7904,6.8019,6.8019,6.7847,6.7778,6.7817,6.7812,6.7778,6.7881,6.8069,6.7969,6.7809,6.7658,6.7557,6.7598,6.7671,6.7622,6.7822,6.8329,6.86,6.8769,6.891,6.9524,6.9891,6.9964,7.0466,7.0725,7.072,7.0731,7.0725,7.0827,7.1374,7.1582,7.134,7.2124,7.2563,7.2118,7.174,7.1599,7.1983,7.2259,7.2496,7.2873,7.3082,7.3178,7.3218,7.3251,7.3522,7.4086,7.4356,7.4464,7.4633,7.4525,7.4322,7.4125,7.3916,7.355,7.3285,7.3359,7.3624,7.4147,7.4452,7.4695,7.5162,7.5574,7.5676,7.5676,7.5676,7.5676,7.5709,7.5715,7.598,7.6352,7.6893,7.7542,7.8342,7.9181,7.9566,6.4972,6.5058,6.5158,6.52,6.5294,6.6028,6.6373,6.6368,6.6334,6.6373,6.6309,6.6028,6.589,6.5886,6.589,6.6045,6.6204,6.6214,6.6559,6.7068,6.7052,6.7132,6.7334,6.7637,6.7673,6.7648,6.7455,6.7465,6.7596,6.7433,6.7475,6.7704,6.7663,6.7663,6.7794,6.7864,6.7934,6.7964,6.8029,6.8088,6.8088,6.8088,6.8088,6.8088,6.8088,6.8088,6.8093,6.8184,6.8076,6.7687,6.7696,6.7863,6.7914,6.8262,6.8639,6.9102,6.9383,6.9558,6.9755,7.0505,7.108,7.125,7.1825,7.2157,7.2219,7.2219,7.2219,7.2293,7.2665,7.2597,7.2496,7.3043,7.3212,7.2907,7.2462,7.2293,7.2434,7.2992,7.3308,7.3556,7.3759,7.395,7.3984,7.3984,7.4322,7.4824,7.5061,7.527,7.5439,7.5196,7.4987,7.479,7.4661,7.4396,7.4227,7.4261,7.4165,7.4621,7.5128,7.5337,7.5473,7.5777,7.5743,7.5743,7.5709,7.5743,7.5879,7.6054,7.6386,7.6826,7.7299,7.797,7.8775,7.9384,7.9735,6.548,6.567,6.5888,6.5975,6.6122,6.6763,6.7088,6.7093,6.7127,6.7127,6.6989,6.6437,6.6334,6.6132,6.6398,6.6454,6.6873,6.704,6.7305,6.7559,6.7535,6.751,6.7626,6.7544,6.7591,6.7571,6.7346,6.7424,6.7552,6.748,6.7577,6.7683,6.7668,6.7769,6.7769,6.7895,6.8044,6.7965,6.8039,6.8083,6.8088,6.8088,6.8088,6.8123,6.833,6.8295,6.8388,6.859,6.8621,6.7747,6.8146,6.8354,6.8265,6.891,6.9276,6.9581,7.0161,7.0505,7.0641,7.1718,7.2462,7.2535,7.3048,7.3494,7.3319,7.3251,7.3251,7.3218,7.3556,7.3618,7.3725,7.3691,7.3556,7.3556,7.355,7.3246,7.3076,7.3809,7.435,7.39,7.439,7.4655,7.4717,7.475,7.4965,7.523,7.5439,7.554,7.5642,7.55,7.5433,7.5433,7.5371,7.5337,7.5236,7.5168,7.4999,7.5061,7.5642,7.5912,7.5851,7.598,7.5879,7.5873,7.6115,7.6284,7.6386,7.6629,7.6961,7.7468,7.8105,7.868,7.9289,7.9695,8.008,6.6636,6.6666,6.6554,6.6627,6.6847,6.7369,6.7699,6.7847,6.7852,6.7812,6.7817,6.7645,6.7571,6.7576,6.7502,6.7719,6.767,6.7743,6.7866,6.776,6.7577,6.7545,6.7552,6.7491,6.7567,6.7632,6.7535,6.7499,6.746,6.7208,6.7001,6.7121,6.7214,6.7058,6.7193,6.7557,6.7623,6.7678,6.7905,6.8074,6.8088,6.8088,6.8123,6.8226,6.8685,6.889,6.8865,6.9242,6.9336,6.9128,6.9158,6.9431,6.9636,6.9862,7.0297,7.0866,7.1475,7.1887,7.209,7.267,7.3251,7.3319,7.3522,7.3494,7.3494,7.3596,7.3562,7.3624,7.4018,7.4553,7.4999,7.4131,7.4097,7.439,7.4458,7.435,7.4215,7.4446,7.4756,7.51,7.527,7.5467,7.5433,7.5365,7.5506,7.5676,7.5676,7.5676,7.5676,7.5676,7.5676,7.5676,7.5642,7.554,7.5506,7.5473,7.5405,7.5439,7.598,7.6386,7.6324,7.6426,7.6392,7.6487,7.6657,7.6832,7.7001,7.7435,7.7807,7.8382,7.8849,7.9289,7.9701,8.0073,8.0215,6.724,6.724,6.7221,6.7345,6.7532,6.7832,6.8014,6.8074,6.8088,6.8088,6.8088,6.8088,6.8088,6.8088,6.8074,6.7994,6.7854,6.7824,6.7824,6.7739,6.7592,6.753,6.7484,6.7417,6.7433,6.7499,6.7265,6.7224,6.7232,6.7032,6.6954,6.7095,6.7017,6.7105,6.711,6.7363,6.7542,6.7663,6.7839,6.8019,6.8069,6.8088,6.8369,6.8611,6.9099,6.9334,6.9635,6.998,7.0116,7.0189,7.052,7.0734,7.0804,7.1041,7.1582,7.2259,7.2631,7.2913,7.3088,7.3556,7.403,7.4024,7.4294,7.4503,7.4537,7.4537,7.4537,7.4605,7.4931,7.5399,7.6109,7.6161,7.5783,7.5568,7.5664,7.5676,7.5608,7.5365,7.523,7.5608,7.5608,7.5642,7.5676,7.5879,7.5777,7.5783,7.5743,7.5743,7.5676,7.5676,7.5676,7.5676,7.5676,7.5676,7.5676,7.5642,7.5642,7.5811,7.6251,7.6555,7.669,7.6866,7.7041,7.7204,7.7407,7.7481,7.7684,7.8185,7.8585,7.8849,7.9255,7.9701,8.0006,8.0209,8.0242,6.7581,6.7597,6.7744,6.789,6.8064,6.8039,6.8078,6.8088,6.8088,6.8088,6.8088,6.8088,6.8064,6.8044,6.8078,6.7894,6.7683,6.7516,6.7602,6.7678,6.7496,6.7368,6.7351,6.731,6.7232,6.7134,6.705,6.7082,6.7165,6.697,6.6954,6.7255,6.7217,6.7129,6.7296,6.7465,6.7542,6.7683,6.7839,6.7974,6.8064,6.8118,6.8458,6.8974,6.9552,6.9845,7.0271,7.0675,7.1012,7.1235,7.2067,7.2327,7.2422,7.2259,7.28,7.3421,7.3556,7.3652,7.3855,7.4424,7.4987,7.4852,7.5602,7.5879,7.5879,7.5958,7.606,7.606,7.6223,7.6386,7.7029,7.7272,7.7379,7.717,7.7029,7.7063,7.6933,7.6426,7.6251,7.6183,7.6426,7.6487,7.6392,7.6426,7.6161,7.5924,7.5885,7.5845,7.5811,7.5743,7.5777,7.5906,7.5974,7.6454,7.6555,7.6521,7.642,7.6521,7.6832,7.713,7.7435,7.7976,7.8287,7.809,7.8191,7.8259,7.8496,7.8997,7.9261,7.939,7.9627,8.004,8.0242,8.0344,8.0445,6.7849,6.7974,6.7864,6.7924,6.8039,6.7939,6.7969,6.8069,6.8088,6.8088,6.8078,6.8078,6.7974,6.7915,6.8059,6.8049,6.7854,6.7638,6.7511,6.7526,6.7387,6.7232,6.7115,6.7289,6.7227,6.703,6.6998,6.7186,6.7248,6.7053,6.6896,6.6912,6.6907,6.6928,6.7053,6.7255,6.7508,6.7767,6.7985,6.821,6.8235,6.8285,6.8559,6.9213,6.9937,7.0475,7.0714,7.1227,7.1946,7.2915,7.323,7.4233,7.4864,7.4153,7.3719,7.3827,7.4193,7.4418,7.4553,7.5636,7.5974,7.6048,7.6663,7.7109,7.7001,7.7176,7.7278,7.7441,7.7475,7.765,7.7785,7.8124,7.7982,7.7853,7.7819,7.7813,7.7785,7.765,7.7576,7.7576,7.7576,7.7407,7.7204,7.7075,7.6939,7.677,7.6696,7.646,7.6223,7.6082,7.5946,7.6143,7.6346,7.6995,7.757,7.7576,7.7542,7.7576,7.7847,7.8274,7.868,7.939,7.96,7.9132,7.8997,7.9126,7.9431,7.9735,7.9837,7.9837,8.0107,8.0371,8.0479,8.0621,8.1196,6.7561,6.7628,6.7633,6.7764,6.7905,6.7969,6.8024,6.8078,6.8083,6.8024,6.7984,6.7954,6.7909,6.7854,6.7894,6.7899,6.7749,6.7613,6.7491,6.7484,6.7397,6.731,6.7139,6.732,6.7217,6.7061,6.704,6.7066,6.7105,6.6923,6.6802,6.6802,6.6797,6.6797,6.6828,6.6996,6.751,6.7883,6.8484,6.8819,6.8896,6.8912,6.9236,6.9896,7.0451,7.1095,7.1827,7.1939,7.2875,7.3978,7.4494,7.5226,7.5823,7.6127,7.5592,7.5315,7.5242,7.5196,7.5298,7.6251,7.6623,7.6515,7.7441,7.7785,7.765,7.7751,7.809,7.8117,7.8443,7.8545,7.8585,7.8868,7.8929,7.8619,7.8551,7.8585,7.8579,7.8557,7.8726,7.8828,7.832,7.7982,7.7847,7.7751,7.7751,7.765,7.7515,7.717,7.6764,7.6663,7.6555,7.6893,7.7198,7.757,7.8185,7.8287,7.8354,7.849,7.8653,7.9086,7.9357,7.9796,7.9938,7.9775,7.9803,7.9729,7.9864,8.004,8.0141,8.0249,8.0378,8.0513,8.0689,8.0993,8.1636,6.731,6.7402,6.7571,6.7709,6.7874,6.7965,6.8078,6.8074,6.8034,6.7994,6.7884,6.7874,6.7834,6.7744,6.7683,6.7613,6.7516,6.7491,6.7464,6.7445,6.7327,6.7312,6.7315,6.7279,6.7154,6.704,6.7311,6.7006,6.6972,6.6844,6.6802,6.6898,6.6898,6.7174,6.7364,6.7624,6.7979,6.8822,6.9347,6.9749,6.9895,6.9901,7.0118,7.0677,7.086,7.1527,7.2522,7.2558,7.3498,7.4645,7.5438,7.5851,7.629,7.7305,7.7678,7.7142,7.6493,7.6223,7.6392,7.6967,7.7468,7.7198,7.7988,7.8293,7.8327,7.8456,7.8563,7.8557,7.8917,7.9317,7.9397,7.9809,7.9803,7.9532,7.9323,7.9317,7.9317,7.9357,7.9532,7.9363,7.8828,7.8693,7.8693,7.8726,7.876,7.8382,7.8213,7.7921,7.7582,7.7576,7.761,7.7942,7.8185,7.832,7.8625,7.8828,7.8929,7.9065,7.9228,7.9526,7.9661,7.987,7.9972,8.0073,8.0073,8.004,8.0175,8.0378,8.0587,8.0695,8.0621,8.0959,8.167,8.1974,8.2414,6.7673,6.7999,6.8019,6.8068,6.8029,6.7899,6.7954,6.8049,6.7944,6.7944,6.797,6.8039,6.7834,6.7582,6.7407,6.748,6.7557,6.7458,6.74,6.752,6.7277,6.7171,6.7061,6.7139,6.7327,6.7384,6.787,6.7649,6.7385,6.7068,6.6976,6.7106,6.7585,6.8092,6.8616,6.8752,6.9812,7.0818,7.0795,7.0664,7.0693,7.0558,7.0488,7.0734,7.1099,7.1785,7.2666,7.2869,7.3659,7.5397,7.5705,7.6392,7.7447,7.7819,7.7954,7.7887,7.7785,7.7724,7.7718,7.8145,7.8382,7.8219,7.8997,7.939,7.9295,7.9431,7.9707,7.9938,8.0006,7.9972,7.9938,8.0113,8.0107,8.004,7.9904,7.9938,7.9972,7.9763,7.9966,8.0006,7.9504,7.9674,7.9775,7.9769,7.9735,7.9323,7.8917,7.8625,7.8462,7.8496,7.8523,7.8828,7.8991,7.9099,7.9166,7.9369,7.9437,7.9572,7.9701,7.9898,7.9938,8.0006,8.0135,8.0242,8.0276,8.0479,8.071,8.0919,8.1067,8.1209,8.123,8.2035,8.3084,8.3253,8.3124,6.8344,6.7984,6.7697,6.7582,6.7597,6.7724,6.7854,6.7934,6.7979,6.7894,6.7779,6.7764,6.7648,6.7486,6.7486,6.7557,6.7616,6.7467,6.7613,6.7909,6.7774,6.7872,6.8288,6.837,6.8306,6.8376,6.8793,6.8961,6.8335,6.7829,6.772,6.8504,6.8239,6.8543,6.9586,6.9786,7.0424,7.1169,7.1575,7.1941,7.1998,7.1518,7.1152,7.157,7.1836,7.2501,7.3336,7.3702,7.4519,7.6042,7.6386,7.6866,7.7819,7.8354,7.8613,7.8653,7.9065,7.8834,7.8219,7.8748,7.8815,7.8957,7.956,7.9972,7.983,7.9972,8.0215,8.0181,8.0181,8.0215,8.0215,8.0215,8.0215,8.0215,8.0215,8.0215,8.0215,8.0215,8.0175,8.0181,8.0215,8.0215,8.0215,8.0107,8.0006,7.9837,7.9593,7.9464,7.9403,7.9504,7.9572,7.9634,7.9735,7.9809,7.9843,7.9944,7.9843,7.9944,7.9944,8.0073,8.0141,8.0209,8.0412,8.0682,8.0892,8.1054,8.1251,8.1359,8.1473,8.1676,8.1907,8.2719,8.349,8.3558,8.3644,6.8988,6.844,6.7847,6.7592,6.7538,6.77,6.7724,6.7744,6.7809,6.7749,6.7637,6.7571,6.7506,6.746,6.7525,6.7522,6.7696,6.7649,6.8049,6.8391,6.8759,6.9045,6.942,6.9635,6.9802,6.9649,7.011,7.0121,6.9603,6.9045,6.9051,6.9902,6.9017,6.9321,7.0139,7.0556,7.0928,7.1639,7.209,7.2648,7.3009,7.2186,7.2304,7.2609,7.2935,7.3375,7.4587,7.4581,7.5292,7.6143,7.642,7.6764,7.7576,7.8213,7.8748,7.9018,7.96,7.9634,7.9126,7.9194,7.9323,7.9553,7.9763,8.0175,8.0175,8.0215,8.0215,8.0215,8.0215,8.0215,8.0215,8.0215,8.0215,8.0215,8.0215,8.0215,8.0215,8.0215,8.0215,8.0215,8.0215,8.0215,8.0215,8.0215,8.0181,8.0181,8.0215,8.0215,8.0181,8.0147,8.0141,8.0073,8.008,8.0113,8.0141,8.0209,8.0209,8.0242,8.0249,8.0215,8.0215,8.0486,8.0763,8.1067,8.1399,8.1663,8.186,8.1832,8.1879,8.238,8.2847,8.3186,8.3625,8.3795,8.4348,6.9507,6.9991,6.9129,6.8638,6.8414,6.7788,6.7569,6.7691,6.7445,6.7535,6.7678,6.7596,6.7532,6.7438,6.7342,6.7547,6.8208,6.7982,6.8577,6.9278,6.9812,7.0102,7.0487,7.0899,7.1103,7.1064,7.1306,7.1306,7.0962,7.0331,6.9755,6.9248,6.9592,7.0398,7.1007,7.1238,7.161,7.2152,7.2428,7.2772,7.3116,7.2907,7.3065,7.3944,7.3922,7.4097,7.5467,7.5055,7.5128,7.6048,7.6155,7.6623,7.7502,7.8105,7.868,7.9323,7.983,7.9938,7.9843,7.9809,8.0006,8.0107,8.0175,8.0215,8.0215,8.0215,8.0215,8.0215,8.0215,8.0215,8.0215,8.0215,8.0215,8.0215,8.0215,8.0215,8.0215,8.0215,8.0215,8.0215,8.0215,8.0215,8.0215,8.0215,8.0215,8.0215,8.0215,8.0215,8.0276,8.0283,8.031,8.031,8.0283,8.0283,8.0276,8.0276,8.0215,8.031,8.0378,8.0276,8.0215,8.0587,8.1304,8.1575,8.1907,8.2205,8.253,8.2807,8.3084,8.3422,8.3754,8.3991,8.4573,8.5053,8.5648,7.0596,7.0804,7.0146,6.9513,6.8913,6.874,6.8662,6.863,6.8372,6.7942,6.7651,6.7698,6.7594,6.746,6.774,6.7912,6.8289,6.8358,6.9274,7.006,7.0553,7.1135,7.1661,7.196,7.1988,7.2078,7.2326,7.2022,7.1267,7.1312,7.1103,7.0737,7.0404,7.0979,7.1548,7.1909,7.2388,7.2732,7.2732,7.2806,7.3251,7.3393,7.3793,7.5067,7.51,7.5377,7.6149,7.5636,7.5839,7.6183,7.6392,7.7063,7.7868,7.841,7.8957,7.96,8.004,8.0141,8.0215,8.0215,8.0215,8.0215,8.0215,8.0215,8.0215,8.0215,8.0215,8.0215,8.0215,8.0215,8.0215,8.0215,8.0215,8.0215,8.0215,8.0215,8.0215,8.0215,8.0215,8.0215,8.0215,8.0215,8.0215,8.0215,8.0215,8.0215,8.0215,8.0215,8.031,8.0519,8.0615,8.0784,8.079,8.0763,8.0756,8.0519,8.0249,8.0378,8.0581,8.0581,8.0648,8.142,8.2029,8.2238,8.2577,8.3044,8.3511,8.3917,8.4052,8.3883,8.4228,8.4735,8.5384,8.6244,8.6752,7.1345,7.135,7.0931,7.0253,6.9489,6.9419,6.9376,6.9269,6.9026,6.869,6.8069,6.827,6.8178,6.8096,6.8252,6.8735,6.8931,6.9165,7.0053,7.0722,7.1322,7.2056,7.279,7.311,7.2868,7.2997,7.2868,7.2496,7.2157,7.2298,7.1988,7.1509,7.1176,7.1582,7.1718,7.2355,7.2868,7.3449,7.3477,7.3646,7.4362,7.4639,7.5078,7.6189,7.6155,7.6183,7.6454,7.6115,7.6082,7.6555,7.6995,7.7671,7.8511,7.9188,7.9526,7.9938,8.0215,8.0215,8.0215,8.0215,8.0215,8.0215,8.0215,8.0215,8.0215,8.0215,8.0215,8.0215,8.0215,8.0215,8.0215,8.0215,8.0215,8.0215,8.0215,8.0215,8.0215,8.0215,8.0215,8.0215,8.0316,8.0621,8.0784,8.0824,8.0621,8.0486,8.0215,8.0242,8.031,8.0615,8.1067,8.127,8.1439,8.1372,8.1304,8.0999,8.0722,8.079,8.0959,8.1162,8.1426,8.2164,8.2672,8.2881,8.3287,8.3957,8.4221,8.4316,8.4181,8.3984,8.4728,8.5716,8.6501,8.73,8.7524,7.1401,7.1556,7.1339,7.0849,7.0161,6.9622,6.9381,6.937,6.9194,6.9183,6.9202,6.9326,6.9281,6.9213,6.9136,6.9494,6.9809,7.0001,7.06,7.1317,7.174,7.2654,7.3161,7.3347,7.3212,7.3905,7.3369,7.28,7.3116,7.2603,7.2326,7.2355,7.2124,7.205,7.1543,7.2084,7.3133,7.4356,7.448,7.5264,7.6076,7.6318,7.6792,7.7204,7.6967,7.6792,7.6893,7.6352,7.6454,7.7158,7.7293,7.8004,7.9052,7.9255,7.9627,8.0242,8.0209,8.0215,8.0215,8.0215,8.0215,8.0215,8.0215,8.0215,8.0215,8.0215,8.0215,8.0215,8.031,8.0283,8.0249,8.031,8.0412,8.035,8.0384,8.0418,8.0452,8.0215,8.0215,8.0283,8.0824,8.1304,8.1501,8.1562,8.123,8.0892,8.0384,8.031,8.0541,8.1122,8.1811,8.1981,8.2184,8.194,8.1805,8.1439,8.1202,8.127,8.1399,8.1596,8.2035,8.2678,8.3118,8.3395,8.3659,8.395,8.4289,8.4586,8.4695,8.4999,8.598,8.6934,8.7726,8.8159,8.8181,7.1345,7.1379,7.1334,7.1165,7.0906,7.073,7.0623,7.0466,7.0076,6.9684,6.9649,7.0207,6.9995,6.9691,7.0115,7.0398,7.0223,7.0427,7.0891,7.1938,7.2011,7.2576,7.31,7.3178,7.3043,7.2969,7.2524,7.2496,7.267,7.2569,7.2462,7.2456,7.3043,7.2975,7.2873,7.3178,7.3855,7.5073,7.5405,7.5811,7.6792,7.6995,7.7272,7.7954,7.7339,7.717,7.7475,7.6798,7.7096,7.797,7.8173,7.8714,7.9566,7.9769,8.0107,8.0553,8.0587,8.0215,8.0215,8.0215,8.0215,8.0215,8.0215,8.0215,8.0215,8.0215,8.0215,8.0316,8.0553,8.0486,8.0344,8.1251,8.1494,8.1067,8.0999,8.0999,8.0925,8.0452,8.0215,8.0412,8.079,8.1298,8.1636,8.2272,8.2137,8.19,8.1494,8.1454,8.165,8.2306,8.2955,8.2955,8.2989,8.2644,8.2306,8.1839,8.1507,8.1473,8.1765,8.213,8.2638,8.3253,8.3118,8.3152,8.3517,8.3883,8.4153,8.4593,8.554,8.6257,8.7001,8.7509,8.7996,8.8309,8.8371,7.1351,7.1373,7.1328,7.1351,7.1373,7.134,7.1295,7.1193,7.077,7.0351,7.0316,7.095,7.0832,7.0393,7.0725,7.1165,7.059,7.0734,7.1225,7.2276,7.209,7.2835,7.3308,7.3172,7.3313,7.2935,7.2665,7.2597,7.3302,7.2969,7.3206,7.3713,7.3996,7.4469,7.4531,7.4734,7.5045,7.6088,7.6527,7.686,7.7604,7.7841,7.7705,7.8016,7.7847,7.7508,7.7718,7.7779,7.7834,7.8748,7.9221,7.9458,7.9972,8.0283,8.0452,8.0587,8.083,8.0418,8.0276,8.0587,8.0519,8.0242,8.0209,8.0215,8.0215,8.0215,8.0215,8.035,8.079,8.0824,8.0885,8.1934,8.2002,8.1547,8.167,8.167,8.1596,8.1122,8.0987,8.1088,8.1433,8.1737,8.2002,8.2638,8.3105,8.2908,8.2678,8.2672,8.2598,8.3152,8.353,8.3429,8.3456,8.3179,8.2672,8.2137,8.1866,8.1704,8.2069,8.2496,8.3301,8.3883,8.3409,8.3071,8.3646,8.4052,8.4099,8.4606,8.5784,8.6765,8.7516,8.7989,8.8301,8.8478,8.8628,7.1401,7.1539,7.1362,7.1395,7.1523,7.1384,7.1295,7.1295,7.1267,7.1238,7.1267,7.1278,7.1233,7.1233,7.1329,7.13,7.1199,7.1227,7.1729,7.2191,7.227,7.3285,7.3725,7.3719,7.3584,7.3646,7.3477,7.3234,7.4311,7.4086,7.443,7.5309,7.5654,7.602,7.6217,7.6257,7.6533,7.7142,7.7272,7.7739,7.849,7.8247,7.8111,7.8219,7.8044,7.7887,7.8028,7.8151,7.8523,7.8985,7.9249,7.9621,7.9966,8.0181,8.0215,8.0384,8.0858,8.0722,8.0412,8.0722,8.0689,8.0283,8.031,8.0242,8.0242,8.031,8.0486,8.0621,8.0959,8.1128,8.1372,8.1811,8.2177,8.2205,8.2401,8.2428,8.2395,8.2225,8.2158,8.2333,8.278,8.3057,8.3118,8.3585,8.3714,8.3483,8.3247,8.3213,8.324,8.3416,8.3625,8.3355,8.3416,8.3578,8.3078,8.234,8.2272,8.2143,8.2441,8.2908,8.3781,8.4113,8.3375,8.3172,8.3883,8.4262,8.4262,8.5046,8.6257,8.7144,8.7786,8.8409,8.8748,8.8815,8.8973,7.1345,7.1396,7.1323,7.134,7.139,7.1328,7.1295,7.1295,7.1295,7.1295,7.1334,7.1847,7.1706,7.1357,7.1847,7.1672,7.1464,7.1396,7.1785,7.2191,7.2631,7.3105,7.3482,7.3793,7.3725,7.3725,7.3618,7.3708,7.4553,7.4728,7.5512,7.6426,7.7109,7.7508,7.7475,7.7447,7.7616,7.7616,7.7441,7.8084,7.8354,7.7847,7.7948,7.8145,7.7902,7.7982,7.8585,7.8754,7.916,7.9695,7.983,8.0073,8.0107,8.0215,8.0215,8.0283,8.0763,8.0999,8.0412,8.0418,8.0519,8.0519,8.0689,8.0587,8.0519,8.0682,8.0959,8.1162,8.1568,8.194,8.2211,8.2549,8.2847,8.3044,8.3172,8.3179,8.3105,8.2936,8.2868,8.2936,8.3416,8.3659,8.3788,8.4052,8.4147,8.3917,8.3788,8.3714,8.3646,8.3754,8.3686,8.3382,8.345,8.3619,8.3118,8.2421,8.2509,8.2611,8.2881,8.3213,8.3815,8.391,8.3206,8.324,8.3849,8.4221,8.439,8.5344,8.6433,8.7177,8.7854,8.8545,8.9134,8.9142,8.9198,7.1464,7.1672,7.1402,7.1295,7.1295,7.1295,7.1295,7.1295,7.1295,7.1295,7.1329,7.1706,7.1706,7.1402,7.1706,7.1701,7.1357,7.1706,7.2191,7.2806,7.3043,7.3849,7.4159,7.4368,7.4734,7.4571,7.443,7.4519,7.5298,7.6223,7.7041,7.7807,7.8523,7.836,7.8124,7.7813,7.7441,7.7204,7.7109,7.7616,7.7678,7.7475,7.7779,7.8354,7.801,7.8511,7.9289,7.9458,7.9796,8.0141,8.0209,8.0215,8.0215,8.0215,8.0215,8.035,8.0864,8.083,8.0452,8.0919,8.0851,8.0885,8.1264,8.1426,8.1426,8.1555,8.1663,8.1832,8.2482,8.2989,8.3253,8.3517,8.372,8.395,8.3957,8.393,8.3754,8.3551,8.3477,8.3437,8.3646,8.3917,8.4153,8.4451,8.4553,8.4323,8.412,8.395,8.3781,8.3653,8.3585,8.3348,8.3517,8.3686,8.3091,8.2725,8.2922,8.305,8.3186,8.3517,8.4018,8.4363,8.4336,8.3991,8.3748,8.412,8.4492,8.5418,8.6372,8.7083,8.7821,8.8553,8.909,8.9302,8.9372,7.1706,7.2321,7.1605,7.1295,7.1295,7.1295,7.1295,7.1295,7.1295,7.1295,7.13,7.1295,7.1368,7.1329,7.143,7.1672,7.1667,7.2011,7.2732,7.3562,7.3793,7.4464,7.5168,7.5676,7.5682,7.5912,7.5771,7.5196,7.6487,7.7238,7.7914,7.8978,7.9363,7.8997,7.8117,7.8016,7.7576,7.6939,7.6696,7.6854,7.7733,7.7801,7.7847,7.9335,7.9363,7.9357,7.9938,8.0181,8.0215,8.0215,8.0215,8.0215,8.0215,8.0215,8.0215,8.031,8.0756,8.0655,8.0587,8.0987,8.1372,8.1534,8.1934,8.2198,8.2266,8.2374,8.2475,8.2577,8.3118,8.3524,8.3788,8.3883,8.4052,8.4248,8.4289,8.4289,8.4221,8.4086,8.4079,8.4045,8.4113,8.4316,8.435,8.4586,8.4586,8.4553,8.4451,8.4214,8.3917,8.3659,8.3483,8.3382,8.372,8.3815,8.3314,8.3078,8.3389,8.3524,8.3592,8.3964,8.4539,8.5121,8.5702,8.5012,8.4289,8.4356,8.4762,8.5858,8.6684,8.6934,8.7693,8.8508,8.9012,8.9429,8.9669,7.174,7.2332,7.1605,7.1295,7.1295,7.1295,7.1295,7.1295,7.1295,7.1295,7.1295,7.1295,7.1295,7.1295,7.1295,7.1712,7.2563,7.2417,7.3206,7.399,7.4464,7.4971,7.5506,7.5771,7.6223,7.6352,7.6115,7.5743,7.6392,7.7238,7.7779,7.7632,7.8348,7.8456,7.8056,7.8022,7.7751,7.7142,7.6899,7.6589,7.6792,7.7232,7.7536,7.8517,7.8788,7.9492,8.0006,8.0215,8.0215,8.0215,8.0215,8.0215,8.0215,8.0215,8.0215,8.0242,8.0412,8.0378,8.0486,8.0784,8.1095,8.1602,8.2008,8.2644,8.3016,8.3158,8.3287,8.3416,8.3619,8.3991,8.4221,8.4255,8.4316,8.4485,8.4586,8.4586,8.4586,8.4586,8.4586,8.4586,8.4586,8.4586,8.4586,8.4586,8.4586,8.4586,8.4586,8.4384,8.3917,8.3619,8.345,8.345,8.4052,8.4045,8.3572,8.3477,8.3822,8.3957,8.3984,8.4464,8.5053,8.556,8.6007,8.5418,8.4931,8.5202,8.5818,8.6839,8.7428,8.7388,8.7817,8.8727,8.9376,8.9819,9.0024,7.174,7.2326,7.1954,7.1605,7.1329,7.1295,7.1295,7.1295,7.1295,7.1295,7.1295,7.1295,7.1295,7.1295,7.13,7.1915,7.2975,7.2963,7.3708,7.4525,7.5236,7.5703,7.5906,7.5906,7.6595,7.6899,7.6899,7.6764,7.6493,7.721,7.7751,7.7475,7.7982,7.8253,7.8124,7.8225,7.8293,7.7961,7.7582,7.7142,7.6669,7.7204,7.7773,7.8477,7.9188,7.9796,7.9972,8.0215,8.0215,8.0215,8.0215,8.0215,8.0215,8.0215,8.0215,8.0215,8.0242,8.0215,8.0283,8.0519,8.0919,8.1596,8.2414,8.3152,8.3815,8.3984,8.3984,8.4086,8.412,8.4424,8.4424,8.4485,8.4485,8.4553,8.4586,8.4586,8.4586,8.4586,8.4586,8.4586,8.4586,8.4586,8.4586,8.4586,8.4586,8.4586,8.4586,8.4586,8.4153,8.3822,8.3578,8.3545,8.4113,8.4384,8.4106,8.4079,8.4289,8.4356,8.4282,8.4999,8.5581,8.6027,8.6203,8.6156,8.6223,8.6494,8.7177,8.7617,8.7917,8.7892,8.8395,8.9069,8.9615,9.0118,9.0294,7.1847,7.236,7.2259,7.1949,7.147,7.1334,7.1368,7.143,7.1329,7.1295,7.1295,7.1295,7.1295,7.1295,7.1329,7.1983,7.2563,7.3099,7.4046,7.523,7.5873,7.6143,7.6177,7.6217,7.6696,7.7475,7.7948,7.7373,7.6826,7.7576,7.7988,7.8056,7.8253,7.8511,7.8348,7.8579,7.8775,7.8422,7.8157,7.8157,7.8117,7.8151,7.8511,7.912,7.9763,8.0141,8.0215,8.0215,8.0215,8.0215,8.0215,8.0215,8.0215,8.0215,8.0215,8.0215,8.0215,8.0215,8.0283,8.0621,8.1291,8.2069,8.2915,8.3524,8.4086,8.4417,8.4417,8.4546,8.4586,8.4586,8.4586,8.4553,8.4553,8.4586,8.4586,8.4586,8.4586,8.4586,8.4586,8.4586,8.4586,8.4586,8.4586,8.4586,8.4586,8.4586,8.4586,8.4586,8.4519,8.435,8.4153,8.3978,8.4181,8.4377,8.4444,8.4654,8.4762,8.439,8.4424,8.5337,8.6183,8.6805,8.7279,8.7583,8.7678,8.7726,8.7516,8.7617,8.7918,8.8368,8.8647,8.9144,8.9893,9.0347,9.0521,7.2253,7.236,7.178,7.174,7.205,7.1537,7.1639,7.2016,7.1503,7.1295,7.1295,7.1295,7.1295,7.1295,7.1295,7.2045,7.3477,7.3708,7.4858,7.6284,7.598,7.6211,7.6481,7.6454,7.6454,7.7299,7.8348,7.849,7.7305,7.7576,7.7644,7.7198,7.7238,7.7671,7.8219,7.8613,7.912,7.8889,7.8889,7.8889,7.8883,7.8911,7.8945,7.9384,7.9796,8.0073,8.0215,8.0215,8.0215,8.0215,8.0215,8.0215,8.0215,8.0215,8.0215,8.0215,8.0215,8.0215,8.035,8.0452,8.1021,8.1575,8.2218,8.2719,8.3314,8.3917,8.4086,8.4512,8.458,8.4546,8.4512,8.4485,8.4492,8.4553,8.4586,8.4586,8.4586,8.4586,8.4586,8.4586,8.4586,8.4586,8.4586,8.4586,8.4586,8.4586,8.4586,8.4586,8.4586,8.4586,8.4586,8.4519,8.4384,8.4451,8.4586,8.504,8.5107,8.4667,8.4559,8.5337,8.6359,8.7685,8.8192,8.8294,8.8538,8.8646,8.8409,8.7895,8.8325,8.8762,8.8769,8.9162,8.9971,9.0321,9.0254]},{"header":{"parameterUnit":"m.s-1","parameterCategory":1,"la1":31.0,"la2":29.5877,"lo1":-88.7671,"lo2":-86.6584,"dy":0.0162,"dx":0.0185,"nx":115,"ny":88,"refTime":"2024-10-07T18:00:00:Z","depth":0,"parameterNumber":3,"parameterNumberName":"V-component_of_WINDS"},"data":[0.0,0.0,0.0,0.0,0.0,0.0,0.0,0.0,0.0,0.0,0.0,0.0,0.0,0.0,0.0,0.0,0.0,0.0,0.0,0.0,0.0,0.0,0.0,0.0,0.0,0.0,0.0,0.0,0.0,0.0,0.0,0.0,0.0,0.0,0.0,0.0,0.0,0.0,0.0,0.0,0.0,0.0,0.0,0.0,0.0,0.0,0.0,0.0,0.0,0.0,0.0,0.0,0.0,0.0,0.0,0.0,0.0,0.0,0.0,0.0,0.0,0.0,0.0,0.0,0.0,0.0,0.0,0.0,0.0,0.0,0.0,0.0,0.0,0.0,0.0,0.0,0.0,0.0,0.0,0.0,0.0,0.0,0.0,0.0,0.0,0.0,0.0,0.0,0.0,0.0,0.0,0.0,0.0,0.0,0.0,0.0,0.0,0.0,0.0,0.0,0.0,0.0,0.0,0.0,0.0,0.0,0.0,0.0,0.0,0.0,0.0,0.0,0.0,0.0,0.0,0.0,0.0,0.0,0.0,0.0,0.0,0.0,0.0,0.0,0.0,0.0,0.0,0.0,0.0,0.0,0.0,0.0,0.0,0.0,0.0,0.0,0.0,0.0,0.0,0.0,0.0,0.0,0.0,0.0,0.0,0.0,0.0,0.0,0.0,0.0,0.0,0.0,0.0,0.0,0.0,0.0,0.0,0.0,0.0,0.0,0.0,0.0,0.0,0.0,0.0,0.0,0.0,0.0,0.0,0.0,0.0,0.0,0.0,0.0,0.0,0.0,0.0,0.0,0.0,0.0,0.0,0.0,0.0,0.0,0.0,0.0,0.0,0.0,0.0,0.0,0.0,0.0,0.0,0.0,0.0,0.0,0.0,0.0,0.0,0.0,0.0,0.0,0.0,0.0,0.0,0.0,0.0,0.0,0.0,0.0,0.0,0.0,0.0,0.0,0.0,0.0,0.0,0.0,0.0,0.0,0.0,0.0,0.0,0.0,0.0,0.0,0.0,0.0,0.0,0.0,0.0,0.0,0.0,0.0,0.0,0.0,0.0,0.0,0.0,0.0,0.0,0.0,0.0,0.0,0.0,0.0,0.0,0.0,0.0,0.0,0.0,0.0,0.0,0.0,0.0,0.0,0.0,0.0,0.0,0.0,0.0,0.0,0.0,0.0,0.0,0.0,0.0,0.0,0.0,0.0,0.0,0.0,0.0,0.0,0.0,0.0,0.0,0.0,0.0,0.0,0.0,0.0,0.0,0.0,0.0,0.0,0.0,0.0,0.0,0.0,0.0,0.0,0.0,0.0,0.0,0.0,0.0,0.0,0.0,0.0,0.0,0.0,0.0,0.0,0.0,0.0,0.0,0.0,0.0,0.0,0.0,0.0,0.0,0.0,0.0,0.0,0.0,0.0,0.0,0.0,0.0,0.0,0.0,0.0,0.0,0.0,0.0,0.0,0.0,0.0,0.0,0.0,0.0,0.0,0.0,0.0,0.0,0.0,0.0,0.0,0.0,0.0,0.0,0.0,0.0,0.0,0.0,0.0,0.0,0.0,0.0,0.0,0.0,0.0,0.0,0.0,0.0,0.0,0.0,0.0,0.0,0.0,0.0,0.0,0.0,0.0,0.0,0.0,0.0,0.0,0.0,0.0,0.0,0.0,0.0,0.0,0.0,0.0,0.0,0.0,0.0,0.0,0.0,0.0,0.0,0.0,0.0,0.0,0.0,0.0,0.0,0.0,0.0,0.0,0.0,0.0,0.0,0.0,0.0,0.0,0.0,0.0,0.0,0.0,0.0,0.0,0.0,0.0,0.0,0.0,0.0,0.0,0.0,0.0,0.0,0.0,0.0,0.0,0.0,0.0,0.0,0.0,0.0,0.0,0.0,0.0,0.0,0.0,0.0,0.0,0.0,0.0,0.0,0.0,0.0,0.0,0.0,0.0,0.0,0.0,0.0,0.0,0.0,0.0,0.0,0.0,0.0,0.0,0.0,0.0,0.0,0.0,0.0,0.0,0.0,0.0,0.0,0.0,0.0,0.0,0.0,0.0,0.0,0.0,0.0,0.0,0.0,0.0,0.0,0.0,0.0,0.0,0.0,0.0,0.0,0.0,0.0,0.0,0.0,0.0,0.0,0.0,0.0,0.0,0.0,0.0,0.0,0.0,0.0,0.0,0.0,0.0,0.0,0.0,0.0,0.0,0.0,0.0,0.0,0.0,0.0,0.0,0.0,0.0,0.0,0.0,0.0,0.0,0.0,0.0,0.0,0.0,0.0,0.0,0.0,0.0,0.0,0.0,0.0,0.0,0.0,0.0,0.0,0.0,0.0,0.0,0.0,0.0,0.0,0.0,0.0,0.0,0.0,0.0,0.0,0.0,0.0,0.0,0.0,0.0,0.0,0.0,0.0,0.0,0.0,0.0,0.0,0.0,0.0,0.0,0.0,0.0,0.0,0.0,0.0,0.0,0.0,0.0,0.0,0.0,0.0,0.0,0.0,0.0,0.0,0.0,0.0,0.0,0.0,0.0,0.0,0.0,0.0,0.0,0.0,0.0,0.0,0.0,0.0,0.0,0.0,0.0,0.0,0.0,0.0,0.0,0.0,0.0,0.0,0.0,0.0,0.0,0.0,0.0,0.0,0.0,0.0,0.0,0.0,0.0,0.0,0.0,0.0,0.0,0.0,0.0,0.0,0.0,0.0,0.0,0.0,0.0,0.0,0.0,0.0,0.0,0.0,0.0,0.0,0.0,0.0,0.0,0.0,0.0,0.0,0.0,0.0,0.0,0.0,0.0,0.0,0.0,0.0,0.0,0.0,0.0,0.0,0.0,0.0,0.0,0.0,0.0,0.0,0.0,0.0,0.0,0.0,0.0,0.0,0.0,0.0,0.0,0.0,0.0,0.0,0.0,0.0,0.0,0.0,0.0,0.0,0.0,0.0,0.0,0.0,0.0,0.0,0.0,0.0,0.0,0.0,0.0,0.0,0.0,0.0,0.0,0.0,0.0,0.0,0.0,0.0,0.0,0.0,0.0,0.0,0.0,0.0,0.0,0.0,0.0,0.0,0.0,0.0,0.0,0.0,0.0,0.0,0.0,0.0,0.0,0.0,0.0,0.0,0.0,0.0,0.0,0.0,0.0,0.0,0.0,0.0,0.0,0.0,0.0,0.0,0.0,0.0,0.0,0.0,0.0,0.0,0.0,0.0,0.0,0.0,0.0,0.0,0.0,0.0,0.0,0.0,0.0,0.0,0.0,0.0,0.0,0.0,0.0,0.0,0.0,0.0,0.0,0.0,0.0,0.0,0.0,0.0,0.0,0.0,0.0,0.0,0.0,0.0,0.0,0.0,0.0,0.0,0.0,0.0,0.0,0.0,0.0,0.0,0.0,0.0,0.0,0.0,0.0,0.0,0.0,0.0,0.0,0.0,0.0,0.0,0.0,0.0,0.0,0.0,0.0,0.0,0.0,0.0,0.0,0.0,0.0,0.0,0.0,0.0,0.0,0.0,0.0,0.0,0.0,0.0,0.0,0.0,0.0,0.0,0.0,0.0,0.0,0.0,0.0,0.0,0.0,0.0,0.0,0.0,0.0,0.0,0.0,0.0,0.0,0.0,0.0,0.0,0.0,0.0,0.0,0.0,0.0,0.0,0.0,0.0,0.0,0.0,0.0,0.0,0.0,0.0,0.0,0.0,0.0,0.0,0.0,0.0,0.0,0.0,0.0,0.0,0.0,0.0,0.0,0.0,0.0,0.0,0.0,0.0,0.0,0.0,0.0,0.0,0.0,0.0,0.0,0.0,0.0,0.0,0.0,0.0,0.0,0.0,0.0,0.0,0.0,0.0,0.0,0.0,0.0,0.0,0.0,0.0,0.0,0.0,0.0,0.0,0.0,0.0,0.0,0.0,0.0,0.0,0.0,0.0,0.0,0.0,0.0,0.0,0.0,0.0,0.0,0.0,0.0,0.0,0.0,0.0,0.0,0.0,0.0,0.0,0.0,0.0,0.0,0.0,0.0,0.0,0.0,0.0,0.0,0.0,0.0,0.0,0.0,0.0,0.0,0.0,0.0,0.0,0.0,0.0,0.0,0.0,0.0,0.0,0.0,0.0,0.0,0.0,0.0,0.0,0.0,0.0,0.0,0.0,0.0,0.0,0.0,0.0,0.0,0.0,0.0,0.0,0.0,0.0,0.0,0.0,0.0,0.0,0.0,0.0,0.0,0.0,0.0,0.0,0.0,0.0,0.0,0.0,0.0,0.0,0.0,0.0,0.0,0.0,0.0,1.5814,0.0,0.0,0.0,0.0,0.0,0.0,0.0,0.0,0.0,0.0,0.0,0.0,0.0,0.0,0.0,0.0,0.0,0.0,0.0,0.0,0.0,0.0,0.0,0.0,0.0,0.0,0.0,0.0,0.0,0.0,0.0,0.0,0.0,0.0,0.0,0.0,0.0,0.0,0.0,0.0,0.0,0.0,0.0,0.0,0.0,0.0,0.0,0.0,0.0,0.0,0.0,0.0,0.0,0.0,0.0,0.0,0.0,0.0,0.0,0.0,0.0,0.0,0.0,0.0,0.0,0.0,0.0,0.0,0.0,0.0,0.0,0.0,0.0,0.0,0.0,0.0,0.0,0.0,0.0,0.0,0.0,0.0,0.0,0.0,0.0,0.0,0.0,0.0,0.0,0.0,0.0,0.0,0.0,0.0,0.0,0.0,0.0,0.0,0.0,0.0,0.0,0.0,0.0,0.0,0.0,0.0,0.0,0.0,0.0,0.0,1.5814,1.5814,1.5814,1.5814,1.5814,0.0,0.0,0.0,0.0,0.0,0.0,0.0,0.0,0.0,0.0,0.0,0.0,0.0,0.0,0.0,0.0,0.0,0.0,0.0,0.0,0.0,0.0,0.0,0.0,0.0,0.0,0.0,0.0,0.0,0.0,0.0,0.0,0.0,0.0,0.0,0.0,0.0,0.0,0.0,0.0,0.0,0.0,0.0,0.0,0.0,0.0,0.0,0.0,0.0,0.0,0.0,0.0,0.0,0.0,0.0,0.0,0.0,0.0,0.0,0.0,0.0,0.0,0.0,0.0,0.0,0.0,0.0,0.0,0.0,0.0,0.0,0.0,0.0,0.0,0.0,0.0,0.0,0.0,0.0,0.0,0.0,0.0,0.0,0.0,0.0,0.0,0.0,0.0,0.0,0.0,0.0,0.0,0.0,0.0,0.0,0.0,0.0,0.0,0.0,0.0,0.0,0.0,0.0,0.0,0.0,0.0,0.0,0.0,0.0,0.0,0.0,0.0,1.5814,1.5814,1.5814,0.0,0.0,0.0,0.0,0.0,0.0,0.0,0.0,0.0,0.0,0.0,0.0,0.0,0.0,0.0,0.0,0.0,0.0,0.0,0.0,0.0,0.0,0.0,0.0,0.0,0.0,0.0,0.0,0.0,0.0,0.0,0.0,0.0,0.0,0.0,0.0,0.0,0.0,0.0,0.0,0.0,0.0,0.0,0.0,0.0,0.0,0.0,0.0,0.0,0.0,0.0,0.0,0.0,0.0,0.0,0.0,0.0,0.0,0.0,0.0,0.0,0.0,0.0,0.0,0.0,0.0,0.0,0.0,0.0,0.0,0.0,0.0,0.0,0.0,0.0,0.0,0.0,0.0,0.0,0.0,0.0,0.0,0.0,0.0,0.0,0.0,0.0,0.0,0.0,0.0,0.0,0.0,0.0,0.0,0.0,0.0,0.0,0.0,0.0,0.0,0.0,0.0,0.0,0.0,0.0,0.0,0.0,0.0,0.0,0.0,1.5814,1.5814,1.5814,0.0,1.5801,0.0,0.0,0.0,0.0,0.0,0.0,0.0,0.0,0.0,0.0,0.0,0.0,0.0,0.0,0.0,0.0,0.0,0.0,0.0,0.0,0.0,0.0,0.0,0.0,0.0,0.0,0.0,0.0,0.0,0.0,0.0,0.0,0.0,0.0,0.0,0.0,0.0,0.0,0.0,0.0,0.0,0.0,0.0,0.0,0.0,0.0,0.0,0.0,0.0,0.0,0.0,0.0,0.0,0.0,0.0,0.0,0.0,0.0,0.0,0.0,0.0,0.0,0.0,0.0,0.0,0.0,0.0,0.0,0.0,0.0,0.0,0.0,0.0,0.0,0.0,0.0,0.0,0.0,0.0,0.0,0.0,0.0,0.0,0.0,0.0,0.0,0.0,0.0,0.0,0.0,0.0,0.0,0.0,0.0,0.0,0.0,0.0,0.0,0.0,0.0,0.0,0.0,0.0,0.0,0.0,0.0,0.0,0.0,0.0,0.0,1.5993,1.5814,1.5814,1.5728,0.0,0.0,0.0,0.0,0.0,0.0,0.0,0.0,0.0,0.0,0.0,0.0,0.0,0.0,0.0,0.0,0.0,0.0,0.0,0.0,0.0,0.0,0.0,0.0,0.0,0.0,0.0,0.0,0.0,0.0,0.0,0.0,0.0,0.0,0.0,0.0,0.0,0.0,0.0,0.0,0.0,0.0,0.0,0.0,0.0,0.0,0.0,0.0,0.0,0.0,0.0,0.0,0.0,0.0,0.0,0.0,0.0,0.0,0.0,0.0,0.0,0.0,0.0,0.0,0.0,0.0,0.0,0.0,0.0,0.0,0.0,0.0,0.0,0.0,0.0,0.0,0.0,0.0,0.0,0.0,0.0,0.0,0.0,0.0,0.0,0.0,0.0,0.0,0.0,0.0,0.0,0.0,0.0,0.0,0.0,0.0,0.0,0.0,0.0,0.0,0.0,0.0,0.0,0.0,0.0,0.0,0.0,0.0,0.0,0.0,1.6046,1.604,1.5833,1.5814,1.5681,1.5416,0.0,0.0,0.0,0.0,0.0,0.0,0.0,0.0,0.0,0.0,0.0,0.0,0.0,0.0,0.0,0.0,0.0,0.0,0.0,0.0,0.0,0.0,0.0,0.0,0.0,0.0,0.0,0.0,0.0,0.0,0.0,0.0,0.0,0.0,0.0,0.0,0.0,0.0,0.0,0.0,0.0,0.0,0.0,0.0,0.0,0.0,0.0,0.0,0.0,0.0,0.0,0.0,0.0,0.0,0.0,0.0,0.0,0.0,0.0,0.0,0.0,0.0,0.0,0.0,0.0,0.0,0.0,0.0,0.0,0.0,0.0,0.0,0.0,0.0,0.0,0.0,0.0,0.0,0.0,0.0,0.0,0.0,0.0,0.0,0.0,0.0,0.0,0.0,0.0,0.0,0.0,0.0,0.0,0.0,0.0,0.0,0.0,0.0,0.0,0.0,0.0,0.0,0.0,0.0,0.0,0.0,0.0,0.0,0.0,1.5827,1.5815,1.5821,1.5814,1.5661,0.0,0.0,0.0,0.0,0.0,0.0,0.0,0.0,0.0,0.0,0.0,0.0,0.0,0.0,0.0,0.0,0.0,0.0,0.0,0.0,0.0,0.0,0.0,0.0,0.0,0.0,0.0,0.0,0.0,0.0,0.0,0.0,0.0,0.0,0.0,0.0,0.0,0.0,0.0,0.0,0.0,0.0,0.0,0.0,0.0,0.0,0.0,0.0,0.0,0.0,0.0,0.0,0.0,0.0,0.0,0.0,0.0,0.0,0.0,0.0,0.0,0.0,0.0,0.0,0.0,0.0,0.0,0.0,0.0,0.0,0.0,0.0,0.0,0.0,0.0,0.0,0.0,0.0,0.0,0.0,0.0,0.0,0.0,0.0,0.0,0.0,0.0,0.0,0.0,0.0,0.0,0.0,0.0,0.0,0.0,0.0,0.0,0.0,0.0,0.0,0.0,0.0,0.0,0.0,0.0,0.0,0.0,0.0,0.0,1.5814,1.5814,1.5981,1.6347,1.5833,1.5418,0.0,0.0,0.0,0.0,0.0,0.0,0.0,0.0,0.0,0.0,0.0,0.0,0.0,0.0,0.0,0.0,0.0,0.0,0.0,0.0,0.0,0.0,0.0,0.0,0.0,0.0,0.0,0.0,0.0,0.0,0.0,0.0,0.0,0.0,0.0,0.0,0.0,0.0,0.0,0.0,0.0,0.0,0.0,0.0,0.0,0.0,0.0,0.0,0.0,0.0,0.0,0.0,0.0,0.0,0.0,0.0,0.0,0.0,0.0,0.0,0.0,0.0,0.0,0.0,0.0,0.0,0.0,0.0,0.0,0.0,0.0,0.0,0.0,0.0,0.0,0.0,0.0,0.0,0.0,0.0,0.0,0.0,0.0,0.0,0.0,0.0,0.0,0.0,0.0,0.0,0.0,0.0,0.0,0.0,0.0,0.0,0.0,0.0,0.0,0.0,0.0,0.0,0.0,0.0,0.0,0.0,0.0,0.0,0.0,1.5808,0.0,1.6088,0.0,1.5957,1.5475,0.0,0.0,0.0,0.0,0.0,0.0,0.0,0.0,0.0,0.0,0.0,0.0,0.0,0.0,0.0,0.0,0.0,0.0,0.0,0.0,0.0,0.0,0.0,0.0,0.0,0.0,0.0,0.0,0.0,0.0,0.0,0.0,0.0,0.0,0.0,0.0,0.0,0.0,0.0,0.0,0.0,0.0,0.0,0.0,0.0,0.0,0.0,0.0,0.0,0.0,0.0,0.0,0.0,0.0,0.0,0.0,0.0,0.0,0.0,0.0,0.0,0.0,0.0,0.0,0.0,0.0,0.0,0.0,0.0,0.0,0.0,0.0,0.0,0.0,0.0,0.0,0.0,0.0,0.0,0.0,0.0,0.0,0.0,0.0,0.0,0.0,0.0,0.0,0.0,0.0,0.0,0.0,0.0,0.0,0.0,0.0,0.0,0.0,0.0,0.0,0.0,0.0,0.0,0.0,0.0,0.0,0.0,0.0,1.5814,1.5829,1.6157,1.6158,1.5836,1.6105,1.5881,0.0,0.0,0.0,0.0,0.0,0.0,0.0,0.0,0.0,0.0,0.0,0.0,0.0,0.0,0.0,0.0,0.0,0.0,0.0,0.0,0.0,0.0,0.0,0.0,0.0,0.0,0.0,0.0,0.0,0.0,0.0,0.0,0.0,0.0,0.0,0.0,0.0,0.0,0.0,0.0,0.0,0.0,0.0,0.0,0.0,0.0,0.0,0.0,0.0,0.0,0.0,0.0,0.0,0.0,0.0,0.0,0.0,0.0,0.0,0.0,0.0,0.0,0.0,0.0,0.0,0.0,0.0,0.0,0.0,0.0,0.0,0.0,0.0,0.0,0.0,0.0,0.0,0.0,0.0,0.0,0.0,0.0,0.0,0.0,0.0,0.0,0.0,0.0,0.0,0.0,0.0,0.0,0.0,0.0,0.0,0.0,0.0,0.0,0.0,0.0,0.0,0.0,0.0,0.0,0.0,0.0,0.0,0.0,0.0,1.6407,1.652,1.6514,1.6413,1.6114,1.5664,0.0,0.0,0.0,0.0,0.0,0.0,0.0,0.0,0.0,0.0,0.0,0.0,0.0,0.0,0.0,0.0,0.0,0.0,0.0,0.0,0.0,0.0,0.0,0.0,0.0,0.0,0.0,0.0,0.0,0.0,0.0,0.0,0.0,0.0,0.0,0.0,0.0,0.0,0.0,0.0,0.0,0.0,0.0,0.0,0.0,0.0,0.0,0.0,0.0,0.0,0.0,0.0,0.0,0.0,0.0,0.0,0.0,0.0,0.0,0.0,0.0,0.0,0.0,0.0,0.0,0.0,0.0,0.0,0.0,0.0,0.0,0.0,0.0,0.0,0.0,0.0,0.0,0.0,0.0,0.0,0.0,0.0,0.0,0.0,0.0,0.0,0.0,0.0,0.0,0.0,0.0,0.0,0.0,0.0,0.0,0.0,0.0,0.0,0.0,0.0,0.0,0.0,0.0,0.0,0.0,0.0,0.0,0.0,0.0,1.6866,1.6981,1.6987,1.6874,1.6519,1.5992,1.5311,0.0,0.0,0.0,0.0,0.0,0.0,0.0,0.0,0.0,0.0,0.0,0.0,0.0,0.0,0.0,0.0,0.0,0.0,0.0,0.0,0.0,0.0,0.0,0.0,0.0,0.0,0.0,0.0,0.0,0.0,0.0,0.0,0.0,0.0,0.0,0.0,0.0,0.0,0.0,0.0,0.0,0.0,0.0,0.0,0.0,0.0,0.0,0.0,0.0,0.0,0.0,0.0,0.0,0.0,0.0,0.0,0.0,0.0,0.0,0.0,0.0,0.0,0.0,0.0,0.0,0.0,0.0,0.0,0.0,0.0,0.0,0.0,0.0,0.0,0.0,0.0,0.0,0.0,0.0,0.0,0.0,0.0,0.0,0.0,0.0,0.0,0.0,0.0,0.0,0.0,0.0,0.0,0.0,0.0,0.0,0.0,0.0,0.0,0.0,0.0,0.0,0.0,0.0,0.0,0.0,0.0,0.0,0.0,1.724,1.7528,1.7528,1.7246,1.7192,1.6752,0.0,0.0,0.0,0.0,0.0,0.0,0.0,0.0,0.0,0.0,0.0,0.0,0.0,0.0,0.0,0.0,0.0,0.0,0.0,0.0,0.0,0.0,0.0,0.0,0.0,0.0,0.0,0.0,0.0,0.0,0.0,0.0,0.0,0.0,0.0,0.0,0.0,0.0,0.0,0.0,0.0,0.0,0.0,0.0,0.0,0.0,0.0,0.0,0.0,0.0,0.0,0.0,0.0,0.0,0.0,0.0,0.0,0.0,0.0,0.0,0.0,0.0,0.0,0.0,0.0,0.0,0.0,0.0,0.0,0.0,0.0,0.0,0.0,0.0,0.0,0.0,0.0,0.0,0.0,0.0,0.0,0.0,0.0,0.0,0.0,0.0,0.0,0.0,0.0,0.0,0.0,0.0,0.0,0.0,0.0,0.0,0.0,0.0,0.0,0.0,0.0,0.0,0.0,0.0,0.0,0.0,0.0,0.0,0.0,1.7782,1.8283,1.8223,1.7528,1.73,1.6772,0.0,0.0,0.0,0.0,0.0,0.0,0.0,0.0,0.0,0.0,0.0,0.0,0.0,0.0,0.0,0.0,0.0,0.0,0.0,0.0,0.0,0.0,0.0,0.0,0.0,0.0,0.0,0.0,0.0,0.0,0.0,0.0,0.0,0.0,0.0,0.0,0.0,0.0,0.0,0.0,0.0,0.0,0.0,0.0,0.0,0.0,0.0,0.0,0.0,0.0,0.0,0.0,0.0,0.0,0.0,0.0,0.0,0.0,0.0,0.0,0.0,0.0,0.0,0.0,0.0,0.0,0.0,0.0,0.0,0.0,0.0,0.0,0.0,0.0,0.0,0.0,0.0,0.0,0.0,0.0,0.0,0.0,0.0,0.0,0.0,0.0,0.0,0.0,0.0,0.0,0.0,0.0,0.0,0.0,0.0,0.0,0.0,0.0,0.0,0.0,0.0,0.0,0.0,0.0,0.0,0.0,0.0,0.0,1.7495,1.8002,1.8716,1.8805,1.817,1.7742,1.7114,0.0,0.0,0.0,0.0,0.0,0.0,0.0,0.0,0.0,0.0,0.0,0.0,0.0,0.0,0.0,0.0,0.0,0.0,0.0,0.0,0.0,0.0,0.0,0.0,0.0,0.0,0.0,0.0,0.0,0.0,0.0,0.0,0.0,0.0,0.0,0.0,0.0,0.0,0.0,0.0,0.0,0.0,0.0,0.0,0.0,0.0,0.0,0.0,0.0,0.0,0.0,0.0,0.0,0.0,0.0,0.0,0.0,0.0,0.0,0.0,0.0,0.0,0.0,0.0,0.0,0.0,0.0,0.0,0.0,0.0,0.0,0.0,0.0,0.0,0.0,0.0,0.0,0.0,0.0,0.0,0.0,0.0,0.0,0.0,0.0,0.0,0.0,0.0,0.0,0.0,0.0,0.0,0.0,0.0,0.0,0.0,0.0,0.0,0.0,0.0,0.0,0.0,0.0,0.0,0.0,0.0,0.0,0.0,1.8029,1.8116,1.8945,1.924,1.8897,1.8316,1.7609,0.0,0.0,0.0,0.0,0.0,0.0,0.0,0.0,0.0,0.0,0.0,0.0,0.0,0.0,0.0,0.0,0.0,0.0,0.0,0.0,0.0,0.0,0.0,0.0,0.0,0.0,0.0,0.0,0.0,0.0,0.0,0.0,0.0,0.0,0.0,0.0,0.0,0.0,0.0,0.0,0.0,0.0,0.0,0.0,0.0,0.0,0.0,0.0,0.0,0.0,0.0,0.0,0.0,0.0,0.0,0.0,0.0,0.0,0.0,0.0,0.0,0.0,0.0,0.0,0.0,0.0,0.0,0.0,0.0,0.0,0.0,0.0,0.0,0.0,0.0,0.0,0.0,0.0,0.0,0.0,0.0,0.0,0.0,0.0,0.0,0.0,0.0,0.0,0.0,0.0,0.0,0.0,0.0,0.0,0.0,0.0,0.0,0.0,0.0,0.0,0.0,0.0,0.0,0.0,0.0,0.0,0.0,0.0,1.8222,1.8696,1.9152,1.924,1.8896,1.8322,1.7716,0.0,0.0,0.0,0.0,0.0,0.0,0.0,0.0,0.0,0.0,0.0,0.0,0.0,0.0,0.0,0.0,0.0,0.0,0.0,0.0,0.0,0.0,0.0,0.0,0.0,0.0,0.0,0.0,0.0,0.0,0.0,0.0,0.0,0.0,0.0,0.0,0.0,0.0,0.0,0.0,0.0,0.0,0.0,0.0,0.0,0.0,0.0,0.0,2.0347,0.0,0.0,0.0,0.0,0.0,0.0,0.0,0.0,0.0,0.0,0.0,0.0,0.0,0.0,0.0,0.0,0.0,0.0,0.0,0.0,0.0,0.0,0.0,0.0,0.0,0.0,0.0,0.0,0.0,0.0,0.0,0.0,0.0,0.0,0.0,0.0,0.0,0.0,0.0,0.0,0.0,0.0,0.0,0.0,0.0,0.0,0.0,0.0,0.0,0.0,0.0,0.0,0.0,0.0,0.0,0.0,0.0,0.0,0.0,1.8436,1.8904,1.9219,1.924,1.8897,1.847,1.7909,0.0,0.0,0.0,0.0,0.0,0.0,0.0,0.0,0.0,0.0,0.0,0.0,0.0,0.0,0.0,0.0,0.0,0.0,0.0,0.0,0.0,0.0,0.0,0.0,0.0,0.0,0.0,0.0,0.0,0.0,0.0,0.0,0.0,0.0,0.0,0.0,0.0,0.0,0.0,0.0,0.0,0.0,0.0,0.0,0.0,0.0,0.0,0.0,0.0,0.0,0.0,0.0,0.0,0.0,0.0,0.0,0.0,0.0,0.0,0.0,0.0,0.0,0.0,0.0,0.0,0.0,0.0,0.0,0.0,0.0,0.0,0.0,0.0,0.0,0.0,0.0,0.0,0.0,0.0,0.0,0.0,0.0,0.0,0.0,0.0,0.0,0.0,0.0,0.0,0.0,0.0,0.0,0.0,0.0,0.0,0.0,0.0,0.0,0.0,0.0,0.0,0.0,0.0,0.0,0.0,0.0,0.0,1.809,1.8644,1.8971,1.926,1.924,1.8903,1.8597,1.805,1.722,0.0,0.0,0.0,0.0,0.0,0.0,0.0,0.0,0.0,0.0,0.0,0.0,0.0,0.0,0.0,0.0,0.0,0.0,0.0,0.0,0.0,0.0,0.0,0.0,0.0,0.0,0.0,0.0,0.0,0.0,0.0,0.0,0.0,0.0,0.0,0.0,0.0,0.0,1.7334,1.7681,0.0,0.0,0.0,0.0,0.0,0.0,0.0,0.0,2.1017,0.0,0.0,0.0,0.0,0.0,0.0,0.0,0.0,0.0,0.0,0.0,0.0,0.0,0.0,0.0,0.0,0.0,0.0,0.0,0.0,0.0,0.0,0.0,0.0,0.0,0.0,0.0,0.0,0.0,0.0,0.0,0.0,0.0,0.0,0.0,0.0,0.0,0.0,0.0,0.0,0.0,0.0,0.0,0.0,0.0,0.0,0.0,0.0,0.0,0.0,0.0,0.0,0.0,0.0,0.0,0.0,1.7528,1.8177,1.8751,1.9308,1.9367,1.924,1.8904,1.8383,1.7789,1.7213,0.0,0.0,0.0,0.0,0.0,0.0,0.0,0.0,0.0,0.0,0.0,0.0,0.0,0.0,0.0,0.0,0.0,0.0,0.0,0.0,0.0,0.0,0.0,0.0,0.0,0.0,0.0,0.0,0.0,0.0,0.0,0.0,0.0,0.0,0.0,0.0,0.0,0.0,0.0,1.7943,1.8009,0.0,0.0,0.0,0.0,0.0,0.0,0.0,0.0,2.2275,0.0,0.0,0.0,0.0,0.0,0.0,0.0,0.0,0.0,0.0,0.0,0.0,0.0,0.0,0.0,0.0,0.0,0.0,0.0,0.0,0.0,0.0,0.0,0.0,0.0,0.0,0.0,0.0,0.0,0.0,0.0,0.0,0.0,0.0,0.0,0.0,0.0,0.0,0.0,0.0,0.0,0.0,0.0,0.0,0.0,0.0,0.0,0.0,0.0,0.0,0.0,0.0,0.0,0.0,0.0,1.7608,1.8337,1.8924,1.9389,1.9416,1.9167,1.8718,1.8242,1.7656,0.0,0.0,0.0,0.0,0.0,0.0,0.0,0.0,0.0,0.0,0.0,0.0,0.0,0.0,0.0,0.0,0.0,0.0,0.0,0.0,0.0,0.0,0.0,0.0,0.0,0.0,0.0,0.0,0.0,0.0,0.0,0.0,0.0,0.0,0.0,0.0,0.0,0.0,0.0,0.0,1.8376,1.8469,1.8476,0.0,0.0,0.0,0.0,0.0,0.0,2.0779,2.2044,0.0,0.0,0.0,0.0,0.0,0.0,0.0,0.0,0.0,0.0,0.0,0.0,0.0,0.0,0.0,0.0,0.0,0.0,0.0,0.0,0.0,0.0,0.0,0.0,0.0,0.0,0.0,0.0,0.0,0.0,0.0,0.0,0.0,0.0,0.0,0.0,0.0,0.0,0.0,0.0,0.0,0.0,0.0,0.0,0.0,0.0,0.0,0.0,0.0,0.0,0.0,0.0,0.0,0.0,0.0,1.7682,1.8483,1.9058,1.9395,1.9416,1.9107,1.8518,1.8129,1.7529,0.0,0.0,0.0,0.0,0.0,0.0,0.0,0.0,0.0,0.0,0.0,0.0,0.0,0.0,0.0,0.0,0.0,0.0,0.0,0.0,0.0,0.0,0.0,0.0,0.0,0.0,0.0,0.0,0.0,0.0,0.0,0.0,0.0,0.0,0.0,0.0,0.0,0.0,0.0,0.0,0.0,1.8923,1.8997,1.9219,0.0,0.0,0.0,0.0,1.9467,2.0721,0.0,0.0,0.0,0.0,0.0,0.0,0.0,0.0,0.0,0.0,0.0,0.0,0.0,0.0,0.0,0.0,0.0,0.0,0.0,0.0,0.0,0.0,0.0,0.0,0.0,0.0,0.0,0.0,0.0,0.0,0.0,0.0,0.0,0.0,0.0,0.0,0.0,0.0,0.0,0.0,0.0,0.0,0.0,0.0,0.0,0.0,0.0,0.0,0.0,0.0,0.0,0.0,0.0,0.0,0.0,0.0,1.7963,1.859,1.9065,1.9382,1.9416,1.912,1.8511,1.7956,1.7361,0.0,0.0,0.0,0.0,0.0,0.0,0.0,0.0,0.0,0.0,0.0,0.0,0.0,0.0,0.0,0.0,0.0,0.0,0.0,0.0,0.0,0.0,0.0,0.0,0.0,0.0,0.0,0.0,0.0,0.0,0.0,0.0,0.0,0.0,0.0,0.0,0.0,0.0,0.0,0.0,0.0,1.9018,1.93,1.9367,1.9382,0.0,0.0,1.9754,1.9754,2.1046,0.0,0.0,0.0,0.0,0.0,0.0,0.0,0.0,0.0,0.0,0.0,0.0,0.0,0.0,0.0,0.0,0.0,0.0,0.0,0.0,0.0,0.0,0.0,0.0,0.0,0.0,0.0,0.0,0.0,0.0,0.0,0.0,0.0,0.0,0.0,0.0,0.0,0.0,0.0,0.0,0.0,0.0,0.0,0.0,0.0,0.0,0.0,0.0,0.0,0.0,0.0,0.0,0.0,0.0,0.0,1.7608,1.8003,1.8771,1.9253,1.9388,1.9416,1.912,1.8518,1.7923,1.726,0.0,0.0,0.0,0.0,0.0,0.0,0.0,0.0,0.0,0.0,0.0,0.0,0.0,0.0,0.0,0.0,0.0,0.0,0.0,0.0,0.0,0.0,0.0,0.0,0.0,0.0,0.0,0.0,0.0,0.0,0.0,0.0,0.0,0.0,0.0,0.0,0.0,0.0,0.0,0.0,0.0,0.0,1.9595,1.9908,0.0,0.0,0.0,2.0481,2.0327,0.0,0.0,0.0,0.0,0.0,0.0,0.0,0.0,0.0,0.0,0.0,0.0,0.0,0.0,0.0,0.0,0.0,0.0,0.0,0.0,0.0,0.0,0.0,0.0,0.0,0.0,0.0,0.0,0.0,0.0,0.0,0.0,0.0,0.0,0.0,0.0,0.0,0.0,0.0,0.0,0.0,0.0,0.0,0.0,0.0,0.0,0.0,0.0,0.0,0.0,0.0,0.0,0.0,0.0,0.0,0.0,0.0,1.8129,1.8966,1.9416,1.9416,1.9416,1.9127,1.8511,1.7909,0.0,0.0,0.0,0.0,0.0,0.0,0.0,0.0,0.0,0.0,0.0,0.0,0.0,0.0,0.0,0.0,0.0,0.0,0.0,0.0,0.0,0.0,0.0,0.0,0.0,0.0,0.0,1.7078,0.0,0.0,0.0,0.0,0.0,0.0,0.0,0.0,0.0,0.0,0.0,0.0,0.0,0.0,1.9723,1.9996,2.0416,2.0678,0.0,0.0,2.1033,2.0815,2.1599,2.2262,0.0,0.0,0.0,0.0,0.0,0.0,0.0,0.0,0.0,0.0,0.0,0.0,0.0,0.0,0.0,0.0,0.0,0.0,0.0,0.0,0.0,0.0,0.0,0.0,0.0,0.0,0.0,0.0,0.0,0.0,0.0,0.0,0.0,0.0,0.0,0.0,0.0,0.0,0.0,0.0,0.0,0.0,0.0,0.0,0.0,0.0,0.0,0.0,0.0,0.0,0.0,0.0,0.0,0.0,0.0,1.8464,1.9073,1.9416,1.9416,1.9416,1.9113,1.8518,1.7929,1.72,0.0,0.0,0.0,0.0,0.0,0.0,0.0,0.0,0.0,0.0,0.0,0.0,0.0,0.0,0.0,0.0,0.0,0.0,0.0,0.0,0.0,0.0,0.0,0.0,0.0,0.0,0.0,0.0,0.0,0.0,0.0,0.0,0.0,0.0,0.0,0.0,0.0,0.0,0.0,0.0,0.0,2.034,2.0609,2.067,2.0892,0.0,0.0,2.1096,2.1079,2.1919,2.2452,2.21,0.0,0.0,0.0,0.0,0.0,0.0,0.0,0.0,0.0,0.0,0.0,0.0,0.0,0.0,0.0,0.0,0.0,0.0,0.0,0.0,0.0,0.0,0.0,0.0,0.0,0.0,0.0,0.0,0.0,0.0,0.0,0.0,0.0,0.0,0.0,0.0,0.0,0.0,0.0,0.0,0.0,0.0,0.0,0.0,0.0,0.0,0.0,0.0,0.0,0.0,0.0,0.0,0.0,1.8063,1.8497,1.9253,1.9568,1.9408,1.9416,1.9201,1.8764,1.8176,1.7442,0.0,0.0,0.0,0.0,0.0,0.0,0.0,0.0,0.0,0.0,0.0,0.0,0.0,0.0,0.0,0.0,0.0,0.0,0.0,0.0,0.0,0.0,0.0,0.0,0.0,0.0,0.0,0.0,1.7766,1.7776,1.7792,0.0,0.0,0.0,0.0,0.0,0.0,0.0,0.0,0.0,0.0,2.0631,2.0894,2.1119,0.0,0.0,2.1489,2.1549,2.1959,2.2517,2.3061,2.3472,2.4403,0.0,0.0,0.0,0.0,0.0,0.0,0.0,0.0,0.0,0.0,0.0,0.0,0.0,0.0,0.0,0.0,0.0,0.0,0.0,0.0,0.0,0.0,0.0,0.0,0.0,0.0,0.0,0.0,0.0,0.0,0.0,0.0,0.0,0.0,0.0,0.0,0.0,0.0,0.0,0.0,0.0,0.0,0.0,0.0,0.0,0.0,0.0,0.0,0.0,0.0,0.0,0.0,1.8083,1.8504,1.9273,1.9573,1.9408,1.9416,1.9232,1.8903,1.8316,1.7636,0.0,0.0,0.0,0.0,0.0,0.0,0.0,0.0,0.0,0.0,0.0,0.0,0.0,0.0,0.0,0.0,0.0,0.0,0.0,0.0,0.0,0.0,0.0,0.0,0.0,0.0,0.0,0.0,1.8459,1.8555,1.8679,0.0,0.0,0.0,0.0,0.0,0.0,0.0,0.0,0.0,0.0,2.1227,2.1482,2.1727,2.1943,2.2146,2.236,2.2649,2.3106,2.3729,2.4261,2.4429,0.0,0.0,0.0,0.0,0.0,0.0,0.0,0.0,0.0,0.0,0.0,0.0,0.0,0.0,0.0,0.0,0.0,0.0,0.0,0.0,0.0,0.0,0.0,0.0,0.0,0.0,0.0,0.0,0.0,0.0,0.0,0.0,0.0,0.0,0.0,0.0,0.0,0.0,0.0,0.0,0.0,0.0,0.0,0.0,0.0,0.0,0.0,0.0,0.0,0.0,0.0,0.0,0.0,1.7916,1.8477,1.9106,1.9422,1.9416,1.9416,1.9247,1.8903,1.833,1.7749,1.7193,0.0,0.0,0.0,0.0,0.0,0.0,0.0,0.0,0.0,0.0,0.0,0.0,0.0,0.0,0.0,0.0,0.0,0.0,0.0,0.0,0.0,0.0,0.0,0.0,0.0,0.0,1.9512,1.9446,1.9546,0.0,0.0,0.0,0.0,0.0,0.0,0.0,0.0,0.0,0.0,2.1658,2.2163,2.2427,2.2473,2.2703,2.3324,2.4026,2.4505,2.4444,2.5655,2.612,0.0,0.0,0.0,0.0,0.0,0.0,0.0,0.0,0.0,0.0,0.0,0.0,0.0,0.0,0.0,0.0,0.0,0.0,0.0,0.0,0.0,0.0,0.0,0.0,0.0,0.0,0.0,2.0698,2.1106,0.0,0.0,0.0,0.0,0.0,0.0,0.0,0.0,0.0,0.0,0.0,1.7556,1.7702,0.0,0.0,0.0,0.0,0.0,0.0,0.0,0.0,0.0,0.0,0.0,0.0,1.8311,1.8531,1.9274,1.9574,1.9408,1.9416,1.9355,1.9233,1.8817,1.8163,1.722,0.0,0.0,0.0,0.0,0.0,0.0,0.0,0.0,0.0,0.0,0.0,0.0,0.0,0.0,0.0,0.0,0.0,0.0,0.0,0.0,0.0,0.0,0.0,0.0,0.0,1.978,0.0,0.0,0.0,0.0,0.0,0.0,0.0,0.0,0.0,0.0,0.0,2.1794,2.2059,2.2629,2.3047,2.3139,2.3394,2.3474,0.0,0.0,0.0,0.0,0.0,0.0,0.0,0.0,0.0,0.0,0.0,0.0,0.0,0.0,3.4318,3.3038,3.3006,3.3228,3.341,0.0,0.0,0.0,0.0,0.0,0.0,0.0,0.0,0.0,0.0,0.0,0.0,0.0,0.0,0.0,0.0,2.1014,0.0,0.0,0.0,0.0,0.0,0.0,0.0,0.0,1.8076,1.829,1.8636,1.8837,1.8991,0.0,1.8998,1.8665,0.0,0.0,0.0,0.0,0.0,0.0,0.0,0.0,1.8423,1.8671,1.9305,1.9581,1.9408,1.9416,1.9416,1.9388,1.9078,1.841,1.7367,1.7053,1.665,0.0,0.0,0.0,0.0,0.0,0.0,0.0,0.0,0.0,0.0,0.0,0.0,0.0,0.0,0.0,0.0,0.0,0.0,0.0,0.0,0.0,0.0,0.0,2.061,0.0,0.0,0.0,0.0,0.0,0.0,0.0,0.0,0.0,2.29,2.2935,2.3296,2.3952,2.446,2.4737,2.4605,0.0,0.0,0.0,0.0,0.0,0.0,0.0,3.0115,3.0329,3.1242,3.2213,3.301,3.4609,3.6158,3.7133,0.0,0.0,3.5331,3.5203,3.5409,3.5566,3.5976,3.6261,3.6261,3.6601,3.6887,0.0,0.0,0.0,0.0,0.0,0.0,0.0,0.0,2.2673,2.2688,0.0,2.2125,0.0,0.0,0.0,0.0,0.0,0.0,0.0,0.0,1.9532,1.9806,1.982,1.9841,1.9987,2.0205,1.9958,1.9826,1.9754,1.8642,0.0,0.0,0.0,0.0,0.0,0.0,1.8329,1.8883,1.9226,1.9416,1.9416,1.9416,1.9416,1.9388,1.9071,1.8503,1.7695,1.7869,1.7587,1.6712,1.708,0.0,0.0,0.0,0.0,0.0,0.0,0.0,0.0,0.0,0.0,0.0,0.0,0.0,0.0,0.0,0.0,0.0,0.0,0.0,0.0,2.1091,0.0,0.0,0.0,0.0,0.0,0.0,0.0,0.0,0.0,0.0,2.616,2.5346,2.5304,2.6583,0.0,0.0,0.0,0.0,2.7785,2.7797,2.8772,2.9707,3.0313,3.2056,3.2859,3.1575,0.0,0.0,3.5048,3.645,3.7599,3.8092,3.8802,3.896,3.7745,3.7474,3.7447,3.741,3.7706,3.7952,3.8,3.8359,3.858,2.5241,0.0,0.0,0.0,0.0,2.5248,2.5659,2.5828,2.4845,2.4816,2.5388,2.3989,0.0,0.0,0.0,0.0,0.0,0.0,2.1597,2.1469,2.0534,2.0206,2.0451,2.0641,2.0767,2.084,2.0767,2.0628,2.043,2.0088,1.9313,1.8157,0.0,0.0,0.0,0.0,1.873,1.8917,1.9233,1.9416,1.9416,1.9416,1.9416,1.9416,1.9078,1.877,1.853,1.8424,1.8205,1.7903,1.7742,0.0,0.0,0.0,0.0,0.0,0.0,0.0,0.0,0.0,0.0,0.0,0.0,0.0,0.0,0.0,0.0,0.0,0.0,0.0,2.2493,2.3134,2.3928,0.0,0.0,0.0,0.0,0.0,0.0,0.0,0.0,0.0,3.1173,2.9191,2.7818,0.0,0.0,2.8623,2.8223,2.9041,2.9521,2.9014,0.0,0.0,0.0,3.3246,3.4462,3.43,3.5465,3.6579,3.7081,3.8015,3.8943,3.965,4.0006,4.0112,4.0121,3.9605,3.9205,3.9181,3.9492,3.9747,3.9776,4.0127,4.041,2.7132,2.679,2.6293,2.6104,2.6159,2.6533,2.6864,2.6994,2.5898,2.5884,2.6552,2.5287,2.4939,2.5308,2.5459,0.0,0.0,0.0,2.3162,2.2572,2.1732,2.1165,2.0886,2.1037,2.1093,2.1093,2.1093,2.1015,2.085,2.075,2.0271,1.9379,0.0,0.0,1.8722,1.8957,1.9151,1.9251,1.9354,1.9416,1.9416,1.9416,1.9416,1.9395,1.9206,1.9044,1.8903,1.8885,1.8735,1.8469,1.8776,1.9026,0.0,0.0,0.0,0.0,0.0,0.0,0.0,0.0,0.0,0.0,0.0,2.4358,2.4866,0.0,0.0,0.0,2.3253,2.3482,2.4194,2.5049,0.0,0.0,0.0,0.0,0.0,0.0,0.0,3.213,3.2191,3.2639,3.3863,3.2429,3.1127,3.0781,3.095,3.0918,3.0414,0.0,3.1564,3.0985,3.2298,3.3396,3.3464,3.485,3.6129,3.6653,3.7325,3.8003,3.8401,3.8895,3.9493,4.0254,4.0508,4.0645,4.1113,4.0752,4.04,4.042,4.0605,4.0752,4.0772,4.0996,4.1201,2.8568,2.8847,2.7749,2.7316,2.7371,2.7731,2.7885,2.777,2.6402,2.6388,2.7269,2.6225,2.6159,2.6834,2.6767,0.0,0.0,2.5844,2.4771,2.2798,2.3014,2.245,2.1291,2.1267,2.1267,2.1267,2.1275,2.1204,2.1096,2.0857,2.0716,2.0726,2.0181,1.988,1.9819,1.9561,1.9554,1.9794,1.9526,1.9416,1.9416,1.9416,1.9416,1.9416,1.9416,1.9246,1.8985,1.924,1.9197,1.8779,1.9993,2.0502,2.0115,0.0,0.0,0.0,0.0,0.0,0.0,0.0,0.0,0.0,0.0,0.0,0.0,0.0,0.0,0.0,2.4969,0.0,2.5837,2.6975,0.0,0.0,0.0,3.1421,3.2265,3.2703,3.3277,3.4098,0.0,0.0,0.0,0.0,3.4734,3.4084,3.3871,3.3573,3.2917,3.3351,3.374,3.3421,3.409,3.4842,3.5446,3.6561,3.7563,3.8267,3.8601,3.8691,3.9005,3.9112,3.9492,4.0186,4.042,4.0596,4.1064,4.1113,4.1201,4.1162,4.1181,4.1181,4.1181,4.1172,4.1201,2.7896,2.8506,2.8238,2.8293,2.8568,2.866,2.8704,2.8689,2.8348,2.8162,2.8118,2.7821,2.7821,2.8001,2.7967,2.8016,2.8095,2.7145,2.5887,2.4416,2.3506,2.2928,2.2624,2.2616,2.2624,2.2616,2.2624,2.2082,2.1133,2.105,2.1002,2.1002,2.0869,2.0567,2.0111,1.984,1.972,1.9807,1.9548,1.9416,1.9416,1.9416,1.9416,1.9416,1.9416,1.9368,1.9287,1.9361,1.9754,2.0508,2.065,2.1217,2.233,2.2226,0.0,0.0,0.0,0.0,0.0,0.0,0.0,0.0,0.0,2.5803,2.7117,0.0,2.6163,0.0,2.6474,2.728,2.8549,3.0086,0.0,0.0,3.2492,3.3027,3.3578,3.3992,3.4469,3.5028,3.5678,3.6133,3.6234,3.6519,3.664,3.6437,3.5394,3.4435,3.3998,3.4571,3.5158,3.5375,3.5805,3.6333,3.6795,3.7374,3.796,3.8525,3.8601,3.8641,3.8729,3.8758,3.8896,3.9414,3.9815,4.0195,4.0615,4.0947,4.1181,4.1201,4.1201,4.1201,4.1201,4.1201,4.1201,2.8109,2.8671,2.8678,2.8788,2.8997,2.8807,2.8836,2.8972,2.8814,2.8722,2.8678,2.8645,2.8671,2.8667,2.8685,2.8796,2.8931,2.8234,2.7165,2.5882,2.5163,2.4517,2.3961,2.3961,2.3946,2.393,2.338,2.2718,2.1972,2.1393,2.1093,2.1093,2.1093,2.0933,2.0605,2.0342,2.0202,2.0202,1.9893,1.9708,1.9567,1.9574,1.9514,1.9408,1.9416,1.9416,1.9416,1.9649,2.0169,2.0945,2.1719,2.2516,2.3369,2.367,2.387,0.0,0.0,0.0,0.0,0.0,0.0,0.0,0.0,0.0,0.0,0.0,2.8141,0.0,2.9079,2.9992,3.092,3.2249,3.3207,3.3613,3.4191,3.4738,3.522,3.5605,3.5965,3.6219,3.6677,3.697,3.697,3.7148,3.7296,3.7296,3.6526,3.589,3.5722,3.604,3.6385,3.6615,3.6958,3.7392,3.7811,3.8075,3.8301,3.8534,3.8601,3.8651,3.8827,3.8866,3.9052,3.9648,3.999,4.0303,4.0723,4.0996,4.1201,4.1201,4.1201,4.1201,4.1191,4.1328,4.1455,2.855,2.8917,2.8917,2.8953,2.8964,2.8561,2.8641,2.8972,2.8634,2.8671,2.8983,2.8983,2.8983,2.8983,2.8983,2.8983,2.8983,2.8983,2.8271,2.7044,2.7014,2.6368,2.5263,2.5247,2.5247,2.5201,2.4139,2.3419,2.3061,2.1951,2.1432,2.1424,2.1282,2.129,2.1395,2.1032,2.075,2.063,2.0338,2.0084,1.9859,1.9812,1.9679,1.9468,1.9415,1.9416,1.946,2.0032,2.0608,2.1154,2.2995,2.4079,2.4231,2.5125,2.5566,0.0,2.5308,0.0,0.0,0.0,0.0,0.0,0.0,0.0,0.0,3.0561,3.0781,3.1199,3.2046,3.2757,3.3113,3.3961,3.4653,3.5016,3.5706,3.633,3.6753,3.7088,3.7296,3.7296,3.7344,3.7383,3.7383,3.7422,3.7461,3.75,3.7473,3.7371,3.7424,3.7298,3.722,3.7372,3.7725,3.8086,3.8436,3.8562,3.8582,3.8601,3.8601,3.8729,3.9121,3.917,3.9444,4.0186,4.041,4.0635,4.1045,4.1142,4.1201,4.1201,4.1308,4.1367,4.1279,4.1494,4.1758,2.8168,2.8498,2.8506,2.8689,2.8953,2.8561,2.8634,2.899,2.8917,2.8935,2.8983,2.8983,2.8983,2.8983,2.8983,2.8983,2.8983,2.8983,2.8271,2.7014,2.7014,2.6878,2.6626,2.6619,2.6628,2.662,2.6384,2.517,2.31,2.3072,2.3107,2.3183,2.2297,2.2292,2.3104,0.0,0.0,0.0,2.0229,2.017,2.0117,1.9905,1.9773,1.972,1.9507,0.0,1.9722,2.0313,2.1485,2.3277,2.4229,0.0,0.0,0.0,0.0,0.0,0.0,0.0,0.0,0.0,0.0,0.0,3.1624,3.1636,3.1819,3.2422,3.2836,3.2953,3.407,3.4832,3.4919,3.6005,3.6727,3.6805,3.6962,3.709,3.7177,3.7274,3.7296,3.7305,3.7589,3.7795,3.7814,3.8114,3.8338,3.829,3.8347,3.8347,3.8347,3.7743,3.7461,3.7727,3.8135,3.8466,3.8582,3.8601,3.8601,3.8601,3.8601,3.8768,3.9121,3.9209,3.9375,3.9971,4.0293,4.0518,4.0645,4.0918,4.1201,4.1201,4.1709,4.1982,4.1367,4.1514,4.1719,2.8638,0.0,2.877,2.8942,0.0,2.8862,2.8807,2.8997,2.8788,2.8807,2.8983,2.8983,2.8983,2.8983,2.8983,2.8983,2.8983,2.8983,2.8648,2.8002,2.7994,2.7994,2.7979,2.8189,2.8286,2.8278,2.7974,2.7066,2.5642,2.5289,2.5089,2.4969,2.4406,2.4406,2.4937,2.4274,2.2835,2.0653,2.0645,2.0586,2.0454,2.0323,2.016,2.0006,0.0,0.0,0.0,0.0,0.0,0.0,0.0,0.0,0.0,0.0,0.0,2.851,2.8888,2.9472,3.0324,3.0898,3.1787,3.3043,3.3711,3.3887,3.3473,3.4211,3.4796,3.5028,3.5848,3.6328,3.6356,3.6934,3.7296,3.7305,3.7489,3.7599,3.7628,3.7812,3.7948,3.7958,3.8114,3.8251,3.8233,3.8427,3.8601,3.8601,3.8601,3.8601,3.8582,3.8221,3.8045,3.8203,3.8427,3.8601,3.8601,3.8601,3.8601,3.8601,3.8601,3.8866,3.9443,3.9541,3.9746,4.039,4.0713,4.084,4.0859,4.1054,4.1201,4.122,4.1514,4.1709,4.1289,4.167,4.2041,2.9401,2.9676,2.9372,2.942,2.9676,2.9339,2.9181,2.9071,0.0,0.0,0.0,2.8983,2.8983,2.8983,2.8983,2.8983,2.8983,2.8983,2.9052,2.9108,2.9108,2.9137,2.9221,2.9548,2.9713,2.9675,2.9214,2.8709,2.8175,2.7482,2.6999,2.6752,2.6544,2.6432,2.6376,2.6328,2.4882,2.2167,2.1947,2.1803,2.1577,2.1296,2.0999,2.0746,2.0733,2.1259,2.2348,2.3267,2.4428,2.5906,2.7136,2.7931,2.8287,2.8951,2.944,2.9733,3.049,3.1245,3.1923,3.2642,3.3449,3.4372,3.5547,3.5909,3.5125,3.5764,3.6378,3.6764,3.7177,3.7402,3.7402,3.7472,3.7519,3.7519,3.7823,3.8029,3.8057,3.8358,3.8562,3.8601,3.8582,3.8601,3.8582,3.8601,3.8601,3.8601,3.8601,3.8642,3.8671,3.8612,3.8562,3.8699,3.868,3.8601,3.8601,3.8601,3.8601,3.8601,3.8651,3.9003,3.9658,3.997,4.0312,4.0996,4.1201,4.1181,4.1181,4.1181,4.1201,4.1201,4.126,4.1318,4.1377,4.1865,4.2324,3.0057,3.0112,3.0049,3.0073,3.012,3.0057,2.9845,2.9485,2.9082,2.8946,2.8983,2.8983,2.8983,2.8983,2.8983,2.8983,2.8983,2.8983,2.9181,0.0,2.9504,2.9687,3.0028,3.0068,3.012,3.0104,3.0028,2.936,2.8328,2.8381,2.8439,2.8352,2.7458,2.6901,2.6647,2.6416,2.6065,2.5579,2.5219,2.5047,2.4984,2.354,2.2778,2.2781,2.2766,2.2867,2.3149,2.5109,2.6694,2.7766,2.8493,2.9185,2.9837,3.0291,3.0581,3.0665,3.1697,3.2494,3.2905,3.3583,3.4519,3.5641,3.6593,3.6923,3.6482,3.6845,3.7157,3.7244,3.7589,3.7805,3.7825,3.8164,3.8358,3.8377,3.8456,3.8486,3.8475,3.8534,3.8601,3.8601,3.8601,3.8601,3.8601,3.8601,3.8612,3.8621,3.871,3.8758,3.8993,3.8827,3.8768,3.8974,3.8827,3.8641,3.8601,3.8601,3.8621,3.8601,3.8887,3.9258,3.9844,4.0157,4.0566,4.1113,4.1201,4.1201,4.1201,4.1201,4.1201,4.1211,4.1426,4.166,4.168,4.208,4.2324,3.0332,3.0495,3.0303,3.0314,3.0505,3.0288,3.0094,2.9926,2.9735,2.9386,2.9001,2.8983,2.8983,2.9008,2.9229,2.9335,2.9328,2.9559,2.9761,2.9918,2.9933,3.002,3.0222,3.0439,3.0516,3.0565,3.1124,3.097,3.0332,3.0747,3.0846,3.0456,2.9773,2.9366,2.925,2.9125,2.8943,2.8705,2.6954,2.5652,2.4856,2.4831,2.4477,2.3745,2.4429,2.5227,2.5933,2.6972,2.8166,2.9551,3.0098,3.0596,3.1133,3.1569,3.195,3.2377,3.3333,3.4111,3.4638,3.5429,3.6223,3.6968,3.7376,3.7676,3.7741,3.7656,3.7725,3.7978,3.8193,3.8281,3.8281,3.8475,3.8601,3.8601,3.8601,3.8601,3.8601,3.8601,3.8601,3.8601,3.8601,3.8601,3.8601,3.8601,3.871,3.8885,3.9111,3.9365,3.956,3.9208,3.8993,3.9141,3.9043,3.8856,3.866,3.8601,3.869,3.8885,3.9062,3.9483,4.0059,4.041,4.0684,4.1094,4.1201,4.1201,4.122,4.1201,4.1201,4.123,4.1533,4.1758,4.1865,4.2305,4.2686,3.0644,3.0909,3.0605,3.0652,3.0917,3.0605,3.0424,3.0348,3.0324,2.9944,2.9328,2.9166,2.9181,2.9302,2.9504,2.964,2.9768,3.0046,3.0225,3.034,3.0332,3.0424,3.0633,3.0927,3.1177,3.1388,3.2121,3.2367,3.2275,3.2694,3.261,3.2071,3.1799,3.164,3.1514,3.1548,3.1339,3.0808,2.8632,2.6857,2.5693,2.652,2.6439,2.5485,2.6558,2.7682,2.8553,2.8981,2.9813,3.1088,3.1496,3.1807,3.2138,3.2606,3.3158,3.3845,3.4741,3.5577,3.6253,3.7012,3.7569,3.7873,3.799,3.8223,3.8514,3.8262,3.8194,3.8534,3.8582,3.8582,3.8582,3.8592,3.8601,3.8601,3.8601,3.8601,3.8601,3.8601,3.8601,3.8601,3.8671,3.8749,3.8749,3.8818,3.9033,3.9365,3.9746,4.0019,4.0,3.9756,3.9658,3.9453,3.9277,3.8993,3.8758,3.865,3.8768,3.9112,3.9316,3.9707,4.0283,4.0547,4.083,4.124,4.1348,4.1445,4.1465,4.1504,4.1523,4.1572,4.1797,4.1992,4.2188,4.2725,4.3183,3.131,3.1355,3.1281,3.131,3.132,3.1292,3.1063,3.077,3.0744,3.0497,3.0075,2.9706,2.9742,2.9994,2.9742,2.9823,3.013,3.0185,3.0406,3.0717,3.0736,3.1121,3.1752,3.1854,3.2263,3.2823,3.2722,3.2788,3.3012,3.2804,3.2615,3.2554,3.2494,3.2276,3.1974,3.1938,3.1744,3.1357,3.1085,3.0701,3.0169,2.9419,2.8991,2.8941,2.9654,3.0018,2.9907,3.1371,3.2235,3.2423,3.2459,3.2523,3.2625,3.3293,3.3897,3.4373,3.5444,3.641,3.7119,3.759,3.7882,3.7931,3.831,3.8525,3.8592,3.8553,3.8543,3.8601,3.8601,3.8601,3.8601,3.8601,3.8601,3.8601,3.8631,3.8601,3.8621,3.8601,3.8601,3.8601,3.8935,3.9141,3.918,3.9473,3.9726,3.9755,4.0176,4.041,4.0391,4.0586,4.0654,4.0234,3.9501,3.8964,3.9022,3.8818,3.8944,3.9228,3.957,4.003,4.0508,4.0937,4.1279,4.1611,4.1738,4.1855,4.2089,4.2285,4.2226,4.2128,4.2246,4.247,4.2881,4.3291,4.3555,3.141,3.141,3.141,3.141,3.141,3.141,3.131,3.1181,3.1155,3.1071,3.0861,3.0495,3.0267,3.0212,3.0259,3.0395,3.056,3.0799,3.099,3.1181,3.1396,3.1803,3.2304,3.2365,3.2667,3.3171,3.3221,3.3348,3.3448,3.3329,3.3152,3.2952,3.2708,3.2514,3.2351,3.2349,3.2274,3.2119,3.2109,3.2036,3.1832,3.1224,3.0498,2.9923,3.1002,3.1694,3.1602,3.2247,3.2816,3.324,3.3303,3.3524,3.401,3.456,3.5043,3.5477,3.6555,3.7461,3.8047,3.8232,3.8329,3.8329,3.8495,3.8601,3.8601,3.8601,3.8601,3.8601,3.8601,3.8601,3.8601,3.8601,3.8601,3.8641,3.8798,3.8866,3.8621,3.9061,3.9287,3.9043,3.9336,3.9619,3.9668,4.0,4.0127,4.0068,4.0449,4.0791,4.0586,4.0674,4.0801,4.0791,4.0038,3.9512,3.9551,3.9492,3.956,3.9854,4.0118,4.043,4.1084,4.1377,4.168,4.207,4.2138,4.2197,4.2314,4.2392,4.2392,4.245,4.2695,4.293,4.3359,4.3574,4.3702,3.1559,3.1559,3.1569,3.1632,3.1732,3.1732,3.1732,3.1714,3.1606,3.1559,3.1522,3.1129,3.0806,3.0578,3.0725,3.0854,3.1016,3.1375,3.1551,3.1614,3.1991,3.2378,3.2741,3.2892,3.3137,3.3509,3.3893,3.4006,3.3901,3.3872,3.3719,3.338,3.3185,3.2999,3.278,3.2771,3.2725,3.2606,3.2598,3.2598,3.2561,3.2414,3.1831,3.1039,3.2168,3.2973,3.3083,3.3083,3.3413,3.4101,3.4138,3.4386,3.4954,3.5487,3.6048,3.6692,3.7571,3.8233,3.8582,3.8601,3.8601,3.8601,3.8601,3.8601,3.8601,3.8601,3.8601,3.8601,3.8601,3.8601,3.8601,3.869,3.8738,3.866,3.9052,3.9208,3.8876,3.9453,3.9755,3.9492,3.9766,4.0108,4.0263,4.0498,4.0605,4.0439,4.08,4.1103,4.0801,4.0732,4.084,4.1113,4.0625,4.0244,4.0088,3.9902,4.0108,4.0352,4.0469,4.0762,4.1572,4.1748,4.207,4.2422,4.2519,4.2705,4.2909,4.2851,4.2734,4.2812,4.3017,4.3311,4.3574,4.3691,4.3769,3.1983,3.1983,3.1983,3.2174,3.2533,3.2504,3.2514,3.2441,3.2138,3.1974,3.1928,3.1569,3.1365,3.132,3.1071,3.1045,3.141,3.1789,3.1983,3.2028,3.2411,3.2798,3.319,3.3558,3.3942,3.4303,3.4679,3.4745,3.444,3.4397,3.4178,3.3806,3.4063,3.3895,3.3282,3.3167,3.2993,3.2725,3.2698,3.2634,3.2671,3.2974,3.307,3.2989,3.349,3.3881,3.4193,3.4285,3.4513,3.4909,3.4918,3.4982,3.5109,3.5774,3.6738,3.7764,3.8297,3.8553,3.8592,3.8601,3.8601,3.8601,3.8601,3.8601,3.8601,3.8601,3.8601,3.8601,3.8601,3.8601,3.8641,3.8866,3.8935,3.8749,3.9365,3.9551,3.9247,3.9677,3.9863,3.9922,4.0234,4.0605,4.1015,4.1133,4.1094,4.1064,4.1162,4.1152,4.1133,4.1142,4.1152,4.1172,4.1094,4.0967,4.0547,4.0332,4.0254,4.0537,4.0869,4.0899,4.1387,4.1904,4.2383,4.2774,4.2959,4.3183,4.3516,4.3613,4.3516,4.3496,4.3457,4.3672,4.3691,4.3701,4.3837,3.2359,3.2386,3.2394,3.2478,3.2588,3.2598,3.2598,3.2596,3.2449,3.2378,3.2358,3.2221,3.2156,3.2148,3.2009,3.1891,3.1844,3.2203,3.2394,3.2448,3.306,3.3439,3.3596,3.4001,3.4388,3.4804,3.5191,3.545,3.5561,3.5545,3.5074,3.4316,3.4342,3.4122,3.3678,3.3571,3.3506,3.3378,3.3368,3.3368,3.335,3.3506,3.3681,3.3955,3.4092,3.4257,3.4376,3.4651,3.4972,3.5366,3.5394,3.5622,3.6154,3.6907,3.7653,3.8299,3.8519,3.8601,3.8601,3.8601,3.8601,3.8601,3.8601,3.8601,3.8601,3.8601,3.8601,3.8601,3.8601,3.8601,3.8621,3.8749,3.8885,3.9052,3.9521,3.9873,3.9853,4.0263,4.0615,4.0449,4.0664,4.1025,4.1133,4.1201,4.1201,4.1201,4.1201,4.1201,4.1201,4.1201,4.1201,4.1201,4.1201,4.1162,4.1006,4.0879,4.0879,4.1182,4.1465,4.1816,4.2256,4.2481,4.2891,4.3194,4.3389,4.3437,4.3672,4.3672,4.3691,4.3711,4.3711,4.3789,4.3691,4.3906,4.4141,3.2808,3.2798,3.279,3.2881,3.2973,3.2991,3.2983,3.2981,3.2855,3.2808,3.2771,3.2661,3.2598,3.2625,3.2751,3.2661,3.2458,3.2797,3.2907,3.2878,3.3621,3.3936,3.3915,3.4475,3.4845,3.5046,3.5389,3.5732,3.5981,3.6148,3.5682,3.4844,3.5013,3.4883,3.4475,3.4394,3.4333,3.4219,3.4175,3.4156,3.4028,3.3982,3.412,3.4385,3.4532,3.467,3.478,3.5055,3.5394,3.5724,3.5788,3.6146,3.695,3.7633,3.8174,3.8529,3.8601,3.8601,3.8601,3.8601,3.8601,3.8601,3.8601,3.8601,3.8601,3.8601,3.8601,3.863,3.8749,3.8798,3.8827,3.8944,3.9072,3.9297,3.9844,4.0215,4.0147,4.0742,4.0967,4.0849,4.0976,4.1162,4.1201,4.1201,4.1201,4.1201,4.1201,4.1201,4.1201,4.1201,4.1201,4.1201,4.1201,4.1201,4.1133,4.1064,4.1045,4.1308,4.168,4.2236,4.2744,4.2979,4.3243,4.3565,4.3691,4.3691,4.3691,4.3691,4.3711,4.3701,4.3887,4.4023,4.4082,4.4249,4.4473,3.3213,3.3213,3.3204,3.3396,3.368,3.3698,3.3753,3.3661,3.3351,3.3186,3.3158,3.2836,3.2735,3.2743,3.3075,3.3194,3.3244,3.3586,3.3587,3.3309,3.3984,3.4152,3.393,3.4917,3.5355,3.5213,3.5495,3.568,3.5842,3.615,3.606,3.576,3.6108,3.5936,3.5499,3.5344,3.5257,3.4971,3.4863,3.4752,3.4441,3.4403,3.444,3.4523,3.4817,3.5174,3.555,3.5605,3.5788,3.61,3.6182,3.6581,3.731,3.7826,3.8192,3.8519,3.8601,3.8601,3.8601,3.8641,3.868,3.869,3.866,3.8758,3.8797,3.8758,3.8758,3.8807,3.9013,3.919,3.9277,3.958,3.9716,3.9434,4.0302,4.0762,4.0674,4.0908,4.1201,4.1162,4.1201,4.1201,4.1201,4.1201,4.122,4.1269,4.1279,4.1308,4.1367,4.1348,4.124,4.124,4.122,4.1201,4.1201,4.1201,4.1201,4.1289,4.1689,4.2168,4.2734,4.3086,4.335,4.3633,4.3691,4.3691,4.3691,4.3691,4.3691,4.375,4.4004,4.418,4.4258,4.4394,4.4794,3.3625,3.3616,3.3616,3.3689,3.3817,3.3817,3.3817,3.3817,3.3661,3.3616,3.3579,3.3478,3.3423,3.3441,3.3561,3.3616,3.3676,3.4235,3.4227,3.3808,3.4186,3.4356,3.4359,3.4893,3.5548,3.62,3.6652,3.6834,3.6817,3.6934,3.6582,3.5858,3.5848,3.5681,3.5288,3.518,3.5108,3.5027,3.5009,3.4927,3.4817,3.4798,3.4927,3.5211,3.5366,3.5605,3.598,3.6008,3.6081,3.6191,3.646,3.6978,3.7706,3.8201,3.8475,3.8574,3.8601,3.8601,3.8641,3.8857,3.9013,3.9072,3.9287,3.9472,3.9511,3.9472,3.9462,3.9453,3.9619,3.9697,3.9746,4.0059,4.0205,4.0108,4.0488,4.0859,4.0967,4.1113,4.1181,4.1201,4.1201,4.1201,4.1201,4.122,4.1328,4.1562,4.1611,4.166,4.1885,4.1728,4.1621,4.1601,4.1435,4.1279,4.1289,4.1406,4.1494,4.1611,4.1914,4.2285,4.2812,4.3232,4.3476,4.3613,4.3672,4.3691,4.3691,4.3691,4.3691,4.373,4.3887,4.4062,4.4199,4.4599,4.5145,3.3938,3.3817,3.3817,3.3817,3.3835,3.3946,3.401,3.4028,3.4028,3.4028,3.4001,3.3863,3.3817,3.3817,3.3817,3.3908,3.4053,3.4533,3.4547,3.4342,3.4623,3.4739,3.4765,3.5358,3.6108,3.6902,3.727,3.7227,3.6969,3.708,3.6783,3.6155,3.6183,3.6108,3.5713,3.5649,3.5603,3.5467,3.5449,3.5385,3.5266,3.5229,3.533,3.5568,3.5614,3.5825,3.6155,3.6191,3.6191,3.6293,3.6701,3.7329,3.7963,3.8366,3.8601,3.8641,3.8758,3.8827,3.8866,3.9219,3.9482,3.9512,3.9726,3.9883,3.9883,3.9883,3.9883,3.9883,4.0039,4.0137,4.0166,4.0508,4.0732,4.0771,4.0781,4.0888,4.1172,4.1357,4.1328,4.1289,4.1338,4.1396,4.1426,4.1435,4.1592,4.1904,4.2021,4.205,4.2275,4.2158,4.207,4.1992,4.1914,4.1729,4.1494,4.1582,4.1767,4.1963,4.2216,4.2598,4.3047,4.3379,4.3652,4.3652,4.3691,4.3691,4.3691,4.3691,4.3711,4.3769,4.3906,4.4228,4.4579,4.5185,4.5653,3.4174,3.3853,3.3836,3.3863,3.3927,3.4275,3.4431,3.4431,3.444,3.4422,3.4349,3.4111,3.3955,3.3909,3.401,3.4156,3.4411,3.4564,3.4819,3.5093,3.5354,3.5355,3.5207,3.6082,3.6793,3.7216,3.7365,3.7043,3.6581,3.6895,3.6849,3.6849,3.706,3.7172,3.6755,3.6803,3.6479,3.622,3.6155,3.5962,3.566,3.5623,3.565,3.5678,3.5696,3.5861,3.6146,3.6256,3.6275,3.6386,3.7015,3.7597,3.8056,3.8422,3.868,3.8768,3.9061,3.9199,3.9327,3.9668,3.9931,3.9922,4.0019,3.997,4.0078,4.0137,4.0137,4.0146,4.041,4.0606,4.0654,4.1016,4.124,4.124,4.1152,4.1181,4.125,4.1582,4.1611,4.1475,4.1611,4.1846,4.1836,4.1826,4.2021,4.2314,4.2451,4.2499,4.2567,4.2587,4.247,4.2382,4.2314,4.2099,4.1855,4.1904,4.2109,4.2402,4.2588,4.2871,4.3213,4.3526,4.3691,4.3691,4.3691,4.3691,4.3691,4.3711,4.3789,4.3926,4.418,4.4579,4.5048,4.5575,4.5868,3.4335,3.4257,3.423,3.423,3.4312,3.467,3.4844,3.4835,3.4844,3.4844,3.4807,3.4743,3.4633,3.467,3.4652,3.4743,3.4888,3.5121,3.5504,3.5865,3.5973,3.5782,3.5677,3.6348,3.6847,3.7024,3.732,3.7283,3.7135,3.7412,3.7467,3.7246,3.7264,3.7338,3.7246,3.6914,3.6766,3.6618,3.6321,3.6155,3.6063,3.6026,3.6035,3.6045,3.6026,3.6081,3.6228,3.6497,3.6793,3.7071,3.7255,3.7905,3.8726,3.8968,3.9169,3.9462,3.9619,3.9716,3.9785,4.0127,4.0351,4.0381,4.0684,4.0859,4.0869,4.0849,4.0859,4.0918,4.1221,4.1328,4.1201,4.1641,4.1894,4.165,4.1445,4.1377,4.1572,4.1719,4.1855,4.206,4.2167,4.2236,4.2246,4.2265,4.2421,4.2773,4.293,4.2978,4.3076,4.3027,4.291,4.2783,4.2676,4.2451,4.2285,4.2314,4.248,4.2823,4.2998,4.3125,4.3409,4.3633,4.3691,4.3691,4.3691,4.3691,4.3711,4.3701,4.3867,4.4082,4.4394,4.4755,4.5245,4.5744,4.5937,3.5059,3.49,3.4713,3.4633,3.4706,3.5073,3.5256,3.5266,3.5247,3.5256,3.5211,3.5073,3.5,3.5009,3.5,3.5209,3.5491,3.5555,3.5904,3.6439,3.6632,3.6485,3.6358,3.6784,3.7043,3.7089,3.7439,3.7421,3.7265,3.7559,3.7402,3.6987,3.7061,3.7061,3.6821,3.6692,3.6562,3.6507,3.6303,3.6191,3.6191,3.6191,3.6191,3.6191,3.6191,3.6191,3.6265,3.6757,3.7203,3.7423,3.773,3.831,3.9087,3.9423,3.9629,3.9921,4.0059,4.0147,4.0273,4.0693,4.1025,4.1123,4.1455,4.166,4.1709,4.1709,4.1709,4.1738,4.1953,4.1914,4.1855,4.2158,4.2256,4.208,4.1836,4.1738,4.1806,4.2168,4.2324,4.2441,4.2558,4.2695,4.2715,4.2715,4.291,4.3213,4.335,4.3457,4.3555,4.3428,4.3321,4.3194,4.3105,4.2939,4.2841,4.2861,4.2792,4.3096,4.3389,4.3496,4.3574,4.375,4.373,4.373,4.3711,4.373,4.3808,4.3896,4.4101,4.4355,4.4629,4.503,4.551,4.5861,4.6035,3.5924,3.5575,3.5253,3.5091,3.5146,3.5522,3.5742,3.565,3.5669,3.5669,3.5595,3.5302,3.5247,3.5128,3.5293,3.552,3.6144,3.5833,3.6164,3.6681,3.7051,3.7097,3.6885,3.7116,3.7274,3.7311,3.7715,3.7494,3.7264,3.7393,3.7218,3.7024,3.7052,3.6867,3.6867,3.6553,3.6358,3.6423,3.6284,3.6201,3.6191,3.6191,3.6191,3.621,3.632,3.6385,3.6626,3.7157,3.7671,3.7637,3.8285,3.887,3.9339,3.9785,4.0009,4.0185,4.0508,4.0693,4.0772,4.1406,4.1836,4.1865,4.2148,4.2392,4.2304,4.2265,4.2265,4.2246,4.2441,4.249,4.2538,4.2519,4.2441,4.2441,4.2451,4.2275,4.2177,4.2627,4.294,4.2626,4.2949,4.3116,4.3165,4.3184,4.3281,4.3448,4.3555,4.3613,4.3672,4.3604,4.3565,4.3565,4.3516,4.3496,4.3437,4.3398,4.3301,4.335,4.3672,4.3828,4.3779,4.3867,4.3808,4.3819,4.3945,4.4043,4.4101,4.4228,4.4433,4.4726,4.5108,4.544,4.5792,4.6026,4.6219,3.5676,3.5622,3.5831,3.5777,3.5613,3.6211,3.634,3.6063,3.6054,3.6045,3.6035,3.5944,3.5916,3.5907,3.588,3.6054,3.6229,3.6174,3.6359,3.6803,3.7218,3.7357,3.7264,3.7375,3.7236,3.72,3.7375,3.744,3.743,3.788,3.8246,3.8035,3.7871,3.8145,3.7907,3.7255,3.7135,3.7034,3.6534,3.6219,3.6191,3.6191,3.621,3.6265,3.6484,3.6847,3.7305,3.8,3.8557,3.885,3.9115,3.9583,4.009,4.0322,4.0586,4.0928,4.1279,4.1504,4.1621,4.1943,4.2265,4.2304,4.2421,4.2392,4.2392,4.245,4.2431,4.248,4.2734,4.3057,4.3301,4.2773,4.2753,4.2949,4.2988,4.294,4.2862,4.3008,4.3174,4.3359,4.3457,4.3584,4.3565,4.3526,4.3594,4.3691,4.3691,4.3691,4.3691,4.3691,4.3691,4.3691,4.3672,4.3613,4.3594,4.3574,4.3535,4.3555,4.3867,4.4101,4.4052,4.4111,4.4091,4.416,4.4258,4.4345,4.4443,4.4707,4.4922,4.5254,4.5538,4.5792,4.6016,4.623,4.6298,3.6449,3.6449,3.6486,3.6257,3.599,3.634,3.6414,3.6219,3.6191,3.6191,3.6191,3.6191,3.6191,3.6191,3.6219,3.6368,3.671,3.6766,3.6766,3.6923,3.719,3.7384,3.7467,3.7587,3.7559,3.744,3.7779,3.7852,3.7917,3.8191,3.8328,3.8081,3.8218,3.8063,3.8054,3.7604,3.7283,3.7061,3.6738,3.6405,3.6228,3.6191,3.6329,3.6457,3.6704,3.7011,3.7441,3.8442,3.9004,3.9433,4.0038,4.053,4.0801,4.1016,4.1328,4.1719,4.1933,4.207,4.2158,4.2441,4.2714,4.2724,4.288,4.2987,4.3007,4.3007,4.3007,4.3046,4.3262,4.3545,4.3956,4.3944,4.374,4.3643,4.3712,4.3691,4.3652,4.3526,4.3448,4.3652,4.3652,4.3672,4.3691,4.3808,4.375,4.374,4.373,4.373,4.3691,4.3691,4.3691,4.3691,4.3691,4.3691,4.3691,4.3672,4.3672,4.3769,4.4023,4.4199,4.4277,4.4364,4.4452,4.456,4.4677,4.4705,4.4822,4.5126,4.5371,4.5538,4.5772,4.6016,4.6191,4.6308,4.6328,3.7292,3.7181,3.6914,3.6562,3.6238,3.6284,3.6293,3.6191,3.6191,3.6191,3.6191,3.6191,3.6238,3.6275,3.621,3.6636,3.7024,3.7329,3.7172,3.7034,3.7365,3.7595,3.7706,3.778,3.7917,3.8091,3.8238,3.8183,3.8036,3.8301,3.8328,3.7797,3.7945,3.81,3.7724,3.7421,3.7283,3.7024,3.6738,3.6488,3.6238,3.6219,3.6412,3.6855,3.7347,3.7627,3.8154,3.8962,3.9642,3.9804,4.1111,4.1679,4.1826,4.1719,4.2031,4.2363,4.2441,4.2509,4.2627,4.2969,4.3321,4.3243,4.3663,4.3808,4.3808,4.3827,4.3885,4.3885,4.3993,4.4101,4.4473,4.4599,4.4647,4.454,4.4473,4.4492,4.4403,4.4111,4.4023,4.3984,4.4111,4.416,4.4091,4.4111,4.3944,4.3807,4.3798,4.3789,4.3769,4.373,4.375,4.3838,4.3877,4.4141,4.4199,4.418,4.4121,4.418,4.4345,4.4531,4.4707,4.5019,4.5185,4.5057,4.5115,4.5154,4.5291,4.5595,4.5762,4.5851,4.5987,4.6211,4.6328,4.6387,4.6445,3.6719,3.6405,3.6692,3.6581,3.6284,3.6553,3.6497,3.6228,3.6191,3.6191,3.621,3.621,3.6405,3.6516,3.633,3.6349,3.671,3.7107,3.7338,3.731,3.7642,3.7917,3.8045,3.7816,3.7926,3.8274,3.8329,3.8,3.789,3.8154,3.8428,3.8401,3.841,3.8374,3.8154,3.7797,3.7505,3.7359,3.6961,3.6627,3.6497,3.6487,3.6802,3.7482,3.8195,3.8839,3.9374,3.9978,4.077,4.1753,4.2146,4.2831,4.3223,4.2812,4.2548,4.2597,4.2822,4.2979,4.3057,4.3682,4.3877,4.3906,4.4247,4.4491,4.4443,4.453,4.4588,4.4696,4.4716,4.4803,4.4881,4.5076,4.5009,4.492,4.4901,4.4911,4.4881,4.4803,4.4774,4.4774,4.4774,4.4677,4.456,4.4471,4.4393,4.4295,4.4267,4.413,4.3993,4.3926,4.3848,4.3975,4.4092,4.4453,4.4785,4.4774,4.4755,4.4774,4.4931,4.5206,4.544,4.5851,4.5957,4.5673,4.5595,4.5683,4.5859,4.6035,4.6094,4.6094,4.625,4.6417,4.6465,4.6532,4.6864,3.7329,3.7126,3.7117,3.6877,3.6534,3.6497,3.6395,3.621,3.6201,3.6312,3.6469,3.6525,3.6608,3.671,3.6636,3.6627,3.6904,3.7154,3.7375,3.7467,3.7624,3.778,3.8082,3.7761,3.7945,3.8219,3.8256,3.821,3.8063,3.8383,3.8592,3.8592,3.8601,3.8601,3.8547,3.8255,3.8062,3.7955,3.7839,3.7634,3.7493,3.7465,3.7849,3.8433,3.8964,3.9574,4.0186,4.0624,4.1349,4.2255,4.2847,4.3377,4.3749,4.3924,4.3602,4.3456,4.3427,4.3428,4.3487,4.4023,4.4238,4.419,4.4696,4.4881,4.4803,4.4862,4.5057,4.5087,4.5304,4.5362,4.5371,4.5506,4.5556,4.5391,4.5351,4.5371,4.5382,4.5341,4.5438,4.5497,4.5204,4.5009,4.4931,4.4862,4.4862,4.4803,4.4725,4.454,4.4306,4.4247,4.4199,4.4394,4.457,4.4785,4.5126,4.5185,4.5224,4.5302,4.541,4.5675,4.5831,4.6085,4.6152,4.6044,4.6074,4.6046,4.6124,4.6211,4.6269,4.6317,4.6406,4.6484,4.6571,4.6747,4.7118,3.778,3.7614,3.7311,3.6978,3.6673,3.6423,3.6293,3.6219,3.6293,3.6451,3.6655,3.6673,3.6747,3.6914,3.7024,3.7154,3.7329,3.7375,3.7504,3.7457,3.7669,3.7696,3.777,3.7835,3.8055,3.8256,3.8411,3.8552,3.8375,3.8519,3.8592,3.866,3.866,3.8807,3.8868,3.8809,3.8817,3.9074,3.9097,3.9099,3.8918,3.8909,3.908,3.9442,3.9595,4.0083,4.0783,4.1117,4.1835,4.2663,4.3321,4.3779,4.4032,4.4618,4.4833,4.451,4.415,4.3993,4.4091,4.4423,4.4726,4.457,4.4998,4.5174,4.5193,4.5282,4.533,4.5341,4.5577,4.5822,4.584,4.6063,4.6074,4.5918,4.5811,4.5822,4.5822,4.5831,4.5918,4.582,4.5497,4.5419,4.5419,4.5438,4.5458,4.5254,4.5156,4.4959,4.4764,4.4774,4.4794,4.5,4.5126,4.5204,4.538,4.5497,4.5556,4.5634,4.5742,4.5929,4.6007,4.6113,4.6172,4.623,4.623,4.6211,4.6289,4.6406,4.6512,4.656,4.6532,4.6727,4.7137,4.7313,4.7567,3.7043,3.6442,3.6405,3.6312,3.6386,3.6627,3.6525,3.6266,3.6544,3.6544,3.6414,3.6367,3.6747,3.7209,3.7605,3.7393,3.7255,3.7513,3.7698,3.7644,3.8076,3.8343,3.8377,3.8082,3.8383,3.8599,3.8693,3.8371,3.844,3.86,3.8681,3.8768,3.9033,3.9326,3.9591,3.9432,3.9624,4.0067,3.971,3.9384,3.9413,3.9654,3.9779,4.0057,4.0521,4.1132,4.1558,4.1833,4.234,4.3393,4.364,4.4091,4.4686,4.4901,4.4979,4.494,4.4881,4.4831,4.4842,4.5117,4.5254,4.5145,4.5595,4.5851,4.5781,4.5859,4.6005,4.6152,4.6191,4.6172,4.6152,4.6239,4.625,4.6211,4.6133,4.6152,4.6172,4.6065,4.6183,4.6191,4.5887,4.5985,4.6044,4.6055,4.6035,4.5811,4.5577,4.538,4.5271,4.5291,4.5321,4.5497,4.5605,4.5653,4.5692,4.5809,4.5848,4.5927,4.6016,4.6144,4.6152,4.6191,4.628,4.6328,4.6348,4.6465,4.6612,4.6719,4.6775,4.6842,4.6883,4.7363,4.7969,4.8066,4.7977,3.825,3.7854,3.7405,3.7209,3.7181,3.6951,3.671,3.6562,3.6479,3.6636,3.6849,3.6877,3.7089,3.7384,3.7384,3.7255,3.7228,3.7578,3.7877,3.8068,3.8467,3.8768,3.8906,3.8842,3.8954,3.9303,3.9518,3.9539,3.9218,3.9001,3.9111,3.9551,3.9385,3.9561,4.0176,4.0063,4.0365,4.0715,4.0792,4.0858,4.0916,4.0811,4.0744,4.0957,4.1357,4.1845,4.2354,4.2579,4.3037,4.3917,4.4101,4.4364,4.4901,4.5224,4.5401,4.541,4.5634,4.5486,4.5145,4.5479,4.5518,4.5586,4.5948,4.6172,4.6105,4.6172,4.6298,4.6278,4.6278,4.6298,4.6298,4.6298,4.6298,4.6298,4.6298,4.6298,4.6298,4.6298,4.6289,4.6278,4.6298,4.6298,4.6298,4.625,4.6191,4.6094,4.5968,4.5879,4.5829,4.5887,4.5927,4.5976,4.6035,4.6063,4.6083,4.6141,4.6083,4.6141,4.6141,4.623,4.6269,4.6308,4.6426,4.6582,4.6688,4.6797,4.6925,4.6973,4.7009,4.7126,4.7274,4.7743,4.8203,4.8242,4.817,3.9492,3.9427,3.8337,3.7914,3.7932,3.7238,3.6951,3.6914,3.6793,3.6904,3.7191,3.7311,3.7347,3.743,3.7394,3.756,3.773,3.7813,3.8219,3.8645,3.9026,3.9313,3.9602,3.9699,3.9958,4.0224,4.044,4.0421,4.0147,3.9863,3.9854,4.0332,3.9834,4.001,4.0469,4.0684,4.0899,4.1308,4.1543,4.1825,4.2059,4.1611,4.1718,4.1894,4.2109,4.2363,4.3076,4.3087,4.3497,4.3975,4.4121,4.4306,4.4774,4.5156,4.5479,4.5636,4.5957,4.5976,4.5683,4.5723,4.5811,4.5959,4.6065,4.6289,4.6289,4.6298,4.6298,4.6298,4.6298,4.6298,4.6298,4.6298,4.6298,4.6298,4.6298,4.6298,4.6298,4.6298,4.6298,4.6298,4.6298,4.6298,4.6298,4.6298,4.6278,4.6278,4.6298,4.6298,4.6278,4.6258,4.6269,4.623,4.6219,4.6239,4.6269,4.6308,4.6308,4.6328,4.6317,4.6298,4.6298,4.6454,4.6599,4.6775,4.6981,4.7148,4.7277,4.7246,4.7243,4.7547,4.7832,4.8027,4.8281,4.8379,4.8591,4.0079,4.0257,3.8368,3.7802,3.8045,3.7563,3.7394,3.7497,3.7698,3.7375,3.7034,3.7265,3.7542,3.755,3.804,3.8313,3.8492,3.8892,3.9108,3.9458,3.9939,4.0219,4.0491,4.0792,4.0987,4.1054,4.1182,4.1182,4.0996,4.0605,4.0273,3.998,4.0166,4.0644,4.0996,4.1142,4.1357,4.167,4.1816,4.2002,4.2187,4.208,4.2197,4.2705,4.2666,4.2753,4.3584,4.336,4.3389,4.3906,4.3954,4.4238,4.4746,4.5108,4.544,4.5811,4.6105,4.6152,4.6083,4.6063,4.6191,4.625,4.6289,4.6298,4.6298,4.6298,4.6298,4.6298,4.6298,4.6298,4.6298,4.6298,4.6298,4.6298,4.6298,4.6298,4.6298,4.6298,4.6298,4.6298,4.6298,4.6298,4.6298,4.6298,4.6298,4.6298,4.6298,4.6298,4.6348,4.6337,4.6367,4.6367,4.6337,4.6337,4.6348,4.6348,4.6298,4.6367,4.6406,4.6348,4.6298,4.6512,4.6911,4.7067,4.7274,4.7461,4.7679,4.7824,4.7969,4.8164,4.8371,4.8507,4.8828,4.909,4.9387,4.0771,4.0801,3.951,3.9041,3.9151,3.8743,3.8563,3.8459,3.796,3.7528,3.7247,3.8046,3.823,3.807,3.8289,3.8619,3.8587,3.8466,3.9306,3.9979,4.0375,4.0773,4.1191,4.1533,4.1562,4.1641,4.1758,4.1582,4.1172,4.1172,4.1064,4.084,4.0635,4.0967,4.1308,4.1543,4.1807,4.1992,4.1992,4.2021,4.2265,4.2333,4.2577,4.334,4.3359,4.3505,4.3965,4.3682,4.3799,4.3984,4.4091,4.4492,4.4971,4.5284,4.5586,4.5957,4.6211,4.6269,4.6298,4.6298,4.6298,4.6298,4.6298,4.6298,4.6298,4.6298,4.6298,4.6298,4.6298,4.6298,4.6298,4.6298,4.6298,4.6298,4.6298,4.6298,4.6298,4.6298,4.6298,4.6298,4.6298,4.6298,4.6298,4.6298,4.6298,4.6298,4.6298,4.6298,4.6367,4.6473,4.6543,4.6641,4.663,4.6599,4.661,4.6473,4.6317,4.6406,4.6523,4.6523,4.6562,4.7023,4.7374,4.748,4.7676,4.796,4.8245,4.848,4.8558,4.846,4.8644,4.8937,4.9297,4.9762,4.9976,4.1113,4.0948,4.0502,4.0191,4.0031,3.9526,3.9364,3.9315,3.8632,3.8112,3.8023,3.8859,3.8942,3.8612,3.8812,3.9148,3.9198,3.9181,3.9912,4.0472,4.0919,4.1288,4.1893,4.2197,4.207,4.2158,4.207,4.1855,4.166,4.1728,4.1562,4.1299,4.1094,4.1328,4.1406,4.1787,4.207,4.2392,4.2422,4.2519,4.2919,4.3065,4.3319,4.3974,4.3954,4.3984,4.4141,4.3945,4.3926,4.4199,4.4453,4.4844,4.5343,4.5733,4.5929,4.6152,4.6298,4.6298,4.6298,4.6298,4.6298,4.6298,4.6298,4.6298,4.6298,4.6298,4.6298,4.6298,4.6298,4.6298,4.6298,4.6298,4.6298,4.6298,4.6298,4.6298,4.6298,4.6298,4.6298,4.6298,4.6356,4.6532,4.6641,4.6649,4.6532,4.6454,4.6298,4.6328,4.6367,4.6543,4.6775,4.6892,4.6989,4.695,4.6911,4.6736,4.659,4.663,4.6727,4.6844,4.7012,4.7453,4.7746,4.7851,4.8086,4.8488,4.8656,4.8726,4.8648,4.8519,4.8949,4.9504,4.9941,5.0355,5.0357,4.0938,4.0588,4.0967,4.0879,4.0431,3.9642,3.9592,3.9925,3.9761,3.9466,3.9115,3.9373,3.9372,3.9334,3.9627,3.9945,4.0102,4.0161,4.0607,4.1084,4.1211,4.1815,4.2187,4.2334,4.2256,4.2696,4.2373,4.2031,4.2187,4.1904,4.1758,4.1787,4.1641,4.1611,4.1318,4.1631,4.2236,4.293,4.3028,4.3467,4.3936,4.4062,4.4336,4.456,4.4423,4.4336,4.4394,4.4082,4.4141,4.4561,4.4639,4.505,4.5655,4.5772,4.5987,4.6328,4.6308,4.6298,4.6298,4.6298,4.6298,4.6298,4.6298,4.6298,4.6298,4.6298,4.6298,4.6298,4.6367,4.6337,4.6317,4.6367,4.6426,4.6376,4.6395,4.6415,4.6434,4.6298,4.6298,4.6337,4.6649,4.6911,4.704,4.709,4.6883,4.6688,4.6395,4.6367,4.6515,4.6836,4.7204,4.7302,4.7419,4.7293,4.7215,4.6989,4.6853,4.6892,4.6981,4.7109,4.7363,4.7734,4.7988,4.8133,4.8301,4.8499,4.8695,4.8882,4.8929,4.9105,4.9672,5.0207,5.0632,5.0819,5.0703,4.1113,4.0977,4.1133,4.1113,4.0937,4.0695,4.0646,4.0684,4.042,3.9928,3.9594,4.0114,4.017,4.0072,4.0354,4.0644,4.0479,4.0202,4.0492,4.1494,4.1288,4.1638,4.2058,4.2236,4.2158,4.2129,4.1885,4.1855,4.1943,4.1885,4.1836,4.1846,4.2158,4.2119,4.206,4.2236,4.2627,4.333,4.3535,4.3769,4.4336,4.4453,4.4599,4.4979,4.4638,4.454,4.4716,4.4325,4.4512,4.503,4.5147,4.546,4.5937,4.6055,4.625,4.6493,4.6512,4.6298,4.6298,4.6298,4.6298,4.6298,4.6298,4.6298,4.6298,4.6298,4.6298,4.6356,4.6493,4.6454,4.6387,4.6925,4.7051,4.6775,4.6736,4.6736,4.6708,4.6434,4.6298,4.6426,4.663,4.6922,4.7118,4.75,4.7422,4.7285,4.7051,4.7042,4.7171,4.7519,4.7879,4.7879,4.7899,4.7715,4.7519,4.7235,4.7028,4.7009,4.7207,4.7433,4.7726,4.8066,4.7988,4.8008,4.8234,4.846,4.8617,4.8871,4.9418,4.9816,5.0246,5.0539,5.0789,5.0873,5.0764,4.1104,4.0987,4.1143,4.1104,4.0987,4.1123,4.1201,4.1142,4.0859,4.0413,4.024,4.086,4.0908,4.0654,4.0859,4.1113,4.0704,4.053,4.0695,4.1689,4.1307,4.1813,4.2245,4.2246,4.2314,4.2109,4.1953,4.1914,4.2334,4.2129,4.2266,4.2558,4.2695,4.2968,4.3017,4.3134,4.33,4.3915,4.4169,4.4375,4.4805,4.4941,4.4863,4.5028,4.4931,4.4735,4.4842,4.4892,4.4952,4.5479,4.5753,4.589,4.6172,4.6337,4.6434,4.6512,4.6638,4.6415,4.6348,4.6512,4.6473,4.6328,4.6308,4.6298,4.6298,4.6298,4.6298,4.6376,4.663,4.6649,4.6699,4.7305,4.7344,4.7037,4.7137,4.7137,4.7109,4.6836,4.6758,4.6816,4.7001,4.7176,4.7344,4.7726,4.8011,4.7882,4.7734,4.7746,4.7718,4.8008,4.8211,4.8153,4.8183,4.8039,4.7746,4.7422,4.7266,4.7157,4.7383,4.7659,4.8139,4.846,4.8187,4.7991,4.8323,4.8558,4.8555,4.8848,4.9543,5.0109,5.0527,5.0801,5.0964,5.097,5.0944,4.0938,4.0617,4.1006,4.0948,4.0646,4.1045,4.1201,4.1201,4.1172,4.1142,4.1172,4.1152,4.1152,4.1152,4.122,4.1191,4.1133,4.1084,4.1387,4.168,4.162,4.2285,4.2538,4.2548,4.247,4.2519,4.2422,4.2295,4.293,4.2773,4.2959,4.3466,4.3651,4.3876,4.4004,4.4013,4.4159,4.451,4.4599,4.4883,4.5302,4.5176,4.5098,4.5145,4.5058,4.494,4.5007,4.5106,4.5321,4.5616,4.5783,4.5998,4.6183,4.6278,4.6298,4.6395,4.6669,4.659,4.6426,4.659,4.6571,4.6337,4.6367,4.6328,4.6328,4.6367,4.6454,4.6532,4.6727,4.6825,4.695,4.7204,4.743,4.7461,4.7589,4.762,4.76,4.7503,4.7464,4.755,4.7793,4.7938,4.7988,4.8273,4.8363,4.8214,4.8078,4.8058,4.8089,4.8175,4.8281,4.8125,4.8175,4.8284,4.798,4.7539,4.75,4.7411,4.7598,4.7882,4.8402,4.8609,4.8167,4.805,4.846,4.8664,4.8664,4.9101,4.9816,5.0312,5.0683,5.1011,5.1206,5.1245,5.1207,4.1113,4.1026,4.1152,4.1123,4.1036,4.1143,4.1201,4.1201,4.1201,4.1201,4.1211,4.1494,4.1426,4.125,4.1494,4.1406,4.1299,4.126,4.1445,4.168,4.1933,4.2207,4.2412,4.2577,4.2538,4.2538,4.249,4.2569,4.3057,4.3144,4.3583,4.4111,4.4491,4.4735,4.4716,4.4686,4.4783,4.4783,4.4696,4.5067,4.5224,4.4931,4.4989,4.5117,4.4991,4.5009,4.5371,4.5469,4.5703,4.6026,4.6105,4.623,4.625,4.6298,4.6298,4.6337,4.6599,4.6736,4.6426,4.6415,4.6473,4.6473,4.6571,4.6512,4.6473,4.6582,4.6727,4.6844,4.7079,4.7293,4.745,4.7645,4.7832,4.796,4.805,4.8039,4.8011,4.7913,4.7874,4.7913,4.8175,4.8301,4.839,4.8558,4.8628,4.848,4.839,4.8363,4.8323,4.8371,4.8332,4.8156,4.8195,4.8293,4.7988,4.7556,4.7637,4.7695,4.7851,4.8058,4.8421,4.8491,4.8069,4.8089,4.8441,4.8656,4.8753,4.9289,4.9902,5.0332,5.0723,5.1089,5.1397,5.1304,5.1207,4.1299,4.1406,4.125,4.1201,4.1201,4.1201,4.1201,4.1201,4.1201,4.1201,4.122,4.1426,4.1426,4.125,4.1426,4.1435,4.125,4.1426,4.168,4.2021,4.2158,4.2637,4.2802,4.2909,4.3134,4.3026,4.2959,4.3037,4.3487,4.3993,4.4452,4.4922,4.5321,4.5213,4.5076,4.4911,4.4696,4.456,4.4491,4.4783,4.4833,4.4716,4.4892,4.5224,4.5039,4.5343,4.5792,4.589,4.6085,4.6269,4.6308,4.6298,4.6298,4.6298,4.6298,4.6376,4.6658,4.6638,4.6434,4.6719,4.668,4.6699,4.6903,4.7012,4.7012,4.7101,4.7148,4.7246,4.7606,4.7899,4.8066,4.8234,4.8351,4.8499,4.8488,4.8457,4.8371,4.8253,4.8226,4.8218,4.8323,4.848,4.8617,4.8804,4.8863,4.8714,4.8597,4.8499,4.8402,4.8312,4.8273,4.8136,4.8234,4.8332,4.7957,4.7731,4.786,4.7949,4.8027,4.8234,4.8538,4.8722,4.8691,4.8507,4.8382,4.8597,4.8812,4.9316,4.9851,5.0261,5.0624,5.0917,5.1081,5.1024,5.0903,4.1426,4.1768,4.1367,4.1201,4.1201,4.1201,4.1201,4.1201,4.1201,4.1201,4.1191,4.1201,4.123,4.122,4.1279,4.1406,4.1416,4.1602,4.1992,4.2431,4.2577,4.2978,4.3398,4.3691,4.3681,4.3828,4.376,4.3428,4.416,4.4579,4.497,4.5627,4.582,4.5595,4.5087,4.5028,4.4774,4.4393,4.4267,4.4385,4.4893,4.4932,4.4931,4.579,4.582,4.5831,4.6152,4.6278,4.6298,4.6298,4.6298,4.6298,4.6298,4.6298,4.6298,4.6367,4.661,4.6551,4.6512,4.6758,4.695,4.7059,4.7305,4.7472,4.7511,4.7558,4.7617,4.7676,4.7988,4.8223,4.839,4.846,4.8558,4.8687,4.8695,4.8695,4.8656,4.8578,4.8589,4.8569,4.8609,4.8726,4.8745,4.8882,4.8882,4.8863,4.8804,4.8667,4.848,4.8301,4.8214,4.8156,4.8351,4.8421,4.8117,4.798,4.8144,4.8223,4.8262,4.8476,4.8808,4.9129,4.9449,4.9082,4.8695,4.8734,4.8968,4.957,5.0015,5.0128,5.0454,5.0683,5.0746,5.0645,5.0378,4.1445,4.1748,4.1367,4.1201,4.1201,4.1201,4.1201,4.1201,4.1201,4.1201,4.1201,4.1201,4.1201,4.1201,4.1201,4.1416,4.1894,4.1836,4.2266,4.2705,4.2978,4.3271,4.3594,4.376,4.3993,4.4082,4.3945,4.373,4.4091,4.4579,4.4892,4.4835,4.5234,4.5282,4.5037,4.5018,4.4862,4.451,4.4384,4.4219,4.4336,4.459,4.4766,4.5332,4.5488,4.5909,4.6191,4.6298,4.6298,4.6298,4.6298,4.6298,4.6298,4.6298,4.6298,4.6328,4.6426,4.6406,4.6454,4.6641,4.6805,4.7098,4.7332,4.7715,4.793,4.7996,4.8086,4.8175,4.8293,4.8507,4.8656,4.8675,4.8726,4.8824,4.8882,4.8882,4.8882,4.8882,4.8882,4.8882,4.8882,4.8882,4.8882,4.8882,4.8882,4.8882,4.8882,4.8765,4.848,4.8293,4.8195,4.8195,4.8558,4.8569,4.8296,4.8226,4.841,4.8488,4.8519,4.8781,4.909,4.9383,4.9625,4.9316,4.9066,4.9222,4.9562,5.0137,5.0445,5.0279,5.0239,5.0455,5.0261,5.0108,4.9741,4.1445,4.1758,4.1543,4.1367,4.122,4.1201,4.1201,4.1201,4.1201,4.1201,4.1201,4.1201,4.1201,4.1201,4.1191,4.1533,4.2119,4.2139,4.2569,4.3027,4.3437,4.3721,4.3838,4.3838,4.4208,4.4384,4.4384,4.4306,4.415,4.4549,4.4862,4.4716,4.5009,4.5165,4.5076,4.5135,4.5174,4.4968,4.4764,4.451,4.4237,4.456,4.4902,4.5323,4.5733,4.6085,4.6172,4.6298,4.6298,4.6298,4.6298,4.6298,4.6298,4.6298,4.6298,4.6298,4.6328,4.6298,4.6337,4.6473,4.6719,4.7109,4.7567,4.8008,4.8421,4.8519,4.8519,4.8578,4.8597,4.8773,4.8773,4.8824,4.8824,4.8863,4.8882,4.8882,4.8882,4.8882,4.8882,4.8882,4.8882,4.8882,4.8882,4.8882,4.8882,4.8882,4.8882,4.8882,4.8617,4.841,4.8284,4.8265,4.8609,4.8765,4.862,4.8589,4.8695,4.8734,4.8706,4.9105,4.9426,4.9668,4.9754,4.9758,4.9797,4.9953,5.0332,5.0586,5.0456,5.0186,5.0171,5.0249,4.9914,4.9569,4.9249,4.1494,4.1777,4.1719,4.1553,4.1289,4.1211,4.123,4.1279,4.122,4.1201,4.1201,4.1201,4.1201,4.1201,4.122,4.1572,4.1894,4.2217,4.2764,4.3448,4.3819,4.3975,4.3995,4.4004,4.4267,4.4716,4.4989,4.4657,4.4355,4.4774,4.4998,4.5037,4.5165,4.5343,4.5234,4.5382,4.551,4.5263,4.5096,4.5096,4.5087,4.5106,4.5343,4.5694,4.6065,4.6269,4.6298,4.6298,4.6298,4.6298,4.6298,4.6298,4.6298,4.6298,4.6298,4.6298,4.6298,4.6298,4.6337,4.6532,4.6933,4.7383,4.7871,4.8223,4.8578,4.8784,4.8784,4.8874,4.8882,4.8882,4.8882,4.8863,4.8863,4.8882,4.8882,4.8882,4.8882,4.8882,4.8882,4.8882,4.8882,4.8882,4.8882,4.8882,4.8882,4.8882,4.8882,4.8882,4.8843,4.8745,4.8617,4.853,4.8648,4.8776,4.8815,4.8921,4.8968,4.8753,4.8773,4.9301,4.9789,5.0117,5.0391,5.0566,5.0637,5.0632,5.0527,5.0586,5.0377,5.0219,4.9883,4.9795,4.9492,4.915,4.883,4.1729,4.1777,4.1455,4.1445,4.1611,4.1328,4.1387,4.1592,4.1308,4.1201,4.1201,4.1201,4.1201,4.1201,4.1201,4.1621,4.2422,4.2569,4.3233,4.4043,4.3867,4.4014,4.417,4.4141,4.4141,4.4629,4.5234,4.5302,4.4618,4.4774,4.4814,4.457,4.4579,4.4844,4.5145,4.5401,4.5694,4.5547,4.5547,4.5547,4.5558,4.5588,4.5607,4.5861,4.6085,4.623,4.6298,4.6298,4.6298,4.6298,4.6298,4.6298,4.6298,4.6298,4.6298,4.6298,4.6298,4.6298,4.6376,4.6434,4.6777,4.7067,4.7438,4.7743,4.8117,4.848,4.8578,4.8855,4.8894,4.8874,4.8855,4.8824,4.8812,4.8863,4.8882,4.8882,4.8882,4.8882,4.8882,4.8882,4.8882,4.8882,4.8882,4.8882,4.8882,4.8882,4.8882,4.8882,4.8882,4.8882,4.8882,4.8843,4.8765,4.8804,4.8882,4.9113,4.9152,4.8898,4.8851,4.9301,4.9875,5.0625,5.0918,5.0976,5.1101,5.1148,5.1011,5.073,5.061,5.0395,4.9666,4.928,4.9025,4.8706,4.8337]}]]